GFSSGP_500_spd_042.txt.gz
Wind_Speed
5 4 7 8 7 6 5 5 4 3 4 5 7 8 8 9 8 8 9 9 9 9 9 10 10 10 11 10 9 10 10 11 12 11 11 11 10 9 8 7 7 6 7 7 7 6 4 4 5
6 4 5 5 5 5 5 5 4 2 1 1 3 5 8 10 11 12 11 12 11 12 13 13 14 13 14 14 14 14 12 13 13 13 13 13 12 11 10 9 8 7 6 6 5 4 3 2 1
5 6 6 5 6 7 7 6 6 4 4 4 4 5 7 9 10 12 13 13 13 14 14 15 17 17 17 17 17 16 16 16 16 16 15 14 14 13 12 11 10 9 9 8 8 6 6 5 4
5 6 6 6 7 7 7 8 8 5 5 5 5 6 8 9 10 11 12 12 13 14 15 16 18 19 20 20 20 20 19 19 18 18 17 16 16 15 15 14 12 12 12 11 10 10 9 9 7
6 6 7 8 8 8 8 9 7 5 4 5 5 7 10 10 11 12 11 10 12 15 16 17 17 18 21 22 23 23 23 23 22 21 20 19 19 18 17 17 16 16 15 14 13 13 12 11 11
9 9 9 10 9 9 10 10 9 6 6 6 7 10 13 14 14 15 15 14 12 12 13 15 14 15 18 21 23 25 26 27 27 27 26 25 23 22 21 20 20 19 19 19 18 17 15 15 14
10 12 12 12 11 12 12 12 11 8 9 10 11 12 14 14 15 14 13 14 14 14 14 15 16 16 16 17 19 22 25 27 29 30 30 30 30 29 27 26 24 23 23 22 22 21 20 20 18
13 13 13 13 13 15 15 15 13 13 12 11 10 11 14 14 14 13 13 14 13 12 13 15 16 17 18 19 19 20 20 23 26 29 31 33 33 33 32 31 30 29 27 26 26 25 25 23 22
14 13 14 13 14 15 15 15 14 13 12 12 11 11 12 13 14 14 15 16 16 15 16 17 18 19 20 21 21 22 23 24 24 25 27 30 32 34 35 35 34 33 32 31 29 29 29 28 27
14 14 13 13 15 15 14 16 14 14 13 12 11 11 12 12 14 16 18 19 19 20 20 21 22 21 22 23 23 24 26 27 27 28 28 29 30 31 33 34 35 36 36 35 35 33 33 32 31
16 15 13 14 15 16 15 17 16 17 17 15 13 10 11 13 14 15 18 19 20 20 21 22 24 24 24 24 25 25 26 27 29 30 31 32 33 33 34 34 34 35 36 37 38 38 37 37 37
16 16 15 14 16 16 17 17 16 16 16 15 14 13 12 11 13 14 15 16 18 19 20 21 22 24 25 26 27 28 29 29 30 31 32 34 36 37 38 38 37 37 37 38 39 40 41 40 40
17 17 16 15 16 17 18 17 15 14 14 13 13 13 12 13 14 16 17 16 16 17 18 19 21 23 24 25 27 29 31 32 33 34 35 36 37 38 40 42 42 42 42 41 41 42 43 43 43
17 18 18 17 17 17 17 14 13 12 11 12 13 13 12 13 14 15 15 17 19 20 22 23 24 26 29 31 32 33 36 37 39 40 42 43 43 44 44 44 44 46 47 47 47 45 45 46 46
18 18 19 20 18 16 16 14 11 11 12 13 14 15 15 16 18 19 20 21 22 24 26 27 28 30 31 34 36 37 39 41 43 45 47 49 51 52 52 52 53 51 48 49 51 52 53 52 51
18 19 20 20 19 17 15 12 12 12 14 16 17 18 19 20 21 22 22 23 24 26 27 29 30 32 33 35 37 39 40 40 42 44 47 49 51 53 54 55 57 58 60 58 52 53 56 57 58
18 20 21 20 19 17 16 13 14 15 16 18 19 20 20 20 21 22 22 22 23 25 26 27 30 32 34 36 38 40 42 43 45 47 48 49 51 53 55 57 59 58 58 59 63 59 60 59 60
19 20 20 21 17 17 16 15 15 16 18 20 20 21 23 24 24 24 24 25 26 28 29 31 33 35 36 37 39 41 43 45 48 50 51 53 55 57 59 61 63 65 66 64 56 61 65 64 64
19 20 21 19 18 17 17 17 18 19 20 22 23 24 26 27 27 27 29 31 32 33 35 37 40 43 45 47 49 52 54 55 54 52 52 54 58 61 64 67 69 70 71 73 65 61 64 63 67
20 20 20 19 18 18 20 20 20 20 22 24 25 26 28 28 30 31 33 35 37 39 40 43 46 48 51 53 55 57 59 61 63 65 67 68 67 65 63 64 69 72 73 74 75 74 70 69 69
20 19 20 20 20 20 21 19 19 21 24 25 27 29 29 31 32 35 37 40 41 43 46 50 52 53 55 57 58 60 62 65 67 68 70 71 72 72 73 72 70 68 71 76 73 74 76 76 72
19 20 21 22 22 21 20 21 19 21 24 26 28 30 32 34 36 38 42 44 46 49 50 52 53 56 58 60 62 64 67 69 71 72 71 71 71 71 71 74 77 78 79 78 75 81 78 74 78
20 21 22 22 22 21 21 26 20 23 28 30 32 33 35 36 39 42 45 48 50 52 54 54 56 58 61 63 66 67 69 72 74 75 75 74 74 77 80 82 80 78 78 81 82 80 81 84 74
21 22 23 23 24 25 25 27 26 28 30 34 36 37 38 40 43 46 48 52 53 55 57 58 60 62 65 66 67 70 73 75 75 74 74 78 82 82 77 76 76 75 75 76 80 81 77 75 77
22 23 25 26 25 26 27 30 30 33 37 39 41 42 43 45 46 50 54 56 57 58 59 61 64 67 70 70 71 74 74 74 75 80 83 77 75 74 75 78 79 80 81 81 82 83 83 81 78
23 24 26 29 28 31 30 32 34 36 42 44 46 48 49 49 51 55 57 60 60 61 64 67 70 72 73 74 75 75 76 79 81 78 78 78 79 82 85 88 87 86 86 86 88 90 89 89 87
24 25 27 30 32 34 35 35 36 41 45 48 51 53 53 54 57 59 62 63 64 66 69 72 74 74 74 74 74 77 79 80 80 79 81 84 87 86 80 77 74 72 72 74 76 82 83 82 84
25 27 29 31 36 39 42 41 40 46 50 52 54 56 58 60 61 63 64 65 67 69 71 73 73 73 73 74 76 77 78 79 81 83 86 87 81 73 64 65 68 68 69 70 70 73 75 77 76
28 30 33 36 38 42 47 47 44 50 51 56 58 59 62 62 62 65 66 67 70 71 71 71 71 72 73 74 77 79 79 80 82 86 82 77 67 63 67 68 66 66 66 66 70 68 68 71 71
31 34 37 41 44 45 49 51 45 53 55 58 59 62 63 63 65 67 68 70 70 70 71 72 72 72 75 79 79 78 79 82 84 81 74 65 64 68 67 66 66 64 66 64 65 63 62 61 64

GFSSGP_500_spd_045.txt.gz
Wind_Speed
6 5 7 7 5 4 5 5 5 5 5 6 9 10 10 10 11 11 12 12 12 12 12 13 13 14 15 15 15 15 15 14 14 15 14 13 13 12 12 10 11 9 9 9 9 9 8 8 7
6 7 7 8 8 4 8 6 4 4 4 3 6 8 9 11 12 13 14 15 15 15 15 15 16 16 17 18 18 17 17 16 16 16 16 16 15 15 14 14 12 11 11 9 9 9 9 8 8
6 8 8 9 12 16 9 6 6 6 5 5 5 6 7 9 11 11 12 13 14 15 16 17 17 19 19 20 20 20 19 19 19 19 20 19 19 18 17 16 15 15 13 13 12 11 10 10 8
7 8 9 11 12 13 9 9 7 6 6 6 7 8 9 10 11 11 11 13 15 15 16 17 18 19 20 21 22 22 23 23 23 23 23 23 23 23 21 20 18 17 16 16 15 14 13 12 11
7 7 9 11 12 12 10 9 7 7 7 7 9 10 11 12 12 12 11 12 14 15 16 17 17 18 18 19 20 21 22 24 25 25 25 25 25 25 25 25 24 23 21 19 18 17 16 15 15
9 9 10 13 13 12 10 9 9 9 8 8 11 14 14 15 16 16 16 16 16 16 17 17 17 18 18 18 19 20 22 23 24 25 26 26 26 26 26 26 26 26 26 25 24 22 21 20 18
11 13 12 13 15 13 12 11 11 11 11 12 14 17 16 18 17 16 15 15 14 15 17 18 18 19 19 20 21 21 22 22 23 23 24 25 27 28 29 30 29 28 28 28 27 27 27 24 22
14 14 14 16 17 14 14 13 13 14 15 16 17 18 18 19 19 17 17 16 15 14 15 16 17 17 18 20 21 23 24 24 24 24 24 25 26 27 28 29 30 31 30 30 30 30 29 29 27
16 15 18 17 16 16 16 16 16 17 17 17 17 19 19 19 18 18 18 18 18 17 18 19 20 20 21 22 22 23 24 24 25 26 27 28 28 29 29 29 29 29 30 30 31 32 31 31 31
17 18 16 17 17 16 16 16 15 16 16 16 17 18 18 18 19 20 21 21 22 22 23 24 23 22 21 21 21 21 22 22 23 25 26 27 28 29 31 32 32 32 32 32 31 32 33 33 34
19 19 17 17 18 17 17 16 16 17 15 14 14 15 16 18 19 20 21 21 21 21 21 20 21 21 20 21 21 21 22 22 23 23 24 26 28 30 31 32 34 35 36 36 36 35 34 36 36
21 20 18 18 18 18 18 18 18 19 17 16 15 15 15 15 16 17 18 18 18 18 18 18 19 20 21 21 23 24 25 27 28 28 28 28 29 30 32 33 34 35 36 38 40 41 40 39 39
23 21 19 18 19 19 19 19 18 18 17 17 16 15 14 15 17 18 19 19 19 19 21 23 23 24 24 24 26 27 29 30 32 34 35 36 36 35 34 36 37 39 40 41 42 43 44 45 45
23 22 20 19 20 20 19 18 17 18 17 16 16 15 14 15 17 18 20 20 22 23 24 24 25 26 27 28 30 31 32 33 34 36 39 40 42 42 42 44 43 42 43 46 47 48 48 48 49
23 23 22 20 21 20 20 17 18 17 16 16 16 16 17 18 20 21 21 22 23 23 23 24 26 27 29 30 32 33 35 36 38 39 39 41 43 44 45 46 48 49 49 46 48 51 53 54 53
22 23 23 19 22 20 20 20 17 17 17 17 18 19 20 20 21 21 20 21 21 22 22 25 27 28 29 31 32 34 36 38 40 41 43 44 46 47 49 50 51 52 53 55 57 55 53 55 58
22 22 24 24 21 21 21 21 17 17 18 19 21 21 21 21 21 21 21 22 22 23 25 27 29 31 33 34 36 38 40 42 43 45 47 49 49 51 53 54 55 57 57 58 59 61 64 64 60
22 22 25 24 20 24 21 20 18 20 21 23 24 23 23 23 23 24 24 25 26 28 30 31 33 34 35 37 39 41 43 45 47 49 52 54 55 56 58 59 60 61 62 65 66 66 67 69 70
22 23 23 26 24 23 22 20 20 22 23 25 25 25 27 26 26 27 27 28 30 32 35 37 39 40 41 44 45 47 49 51 53 54 55 57 58 58 59 59 62 66 68 69 69 72 72 72 72
23 24 25 24 23 22 22 22 23 24 25 26 27 27 27 27 28 29 30 32 35 37 40 42 43 46 48 49 52 54 56 57 59 61 63 64 66 67 68 69 69 69 67 66 68 71 73 75 77
24 25 25 24 21 23 23 23 25 25 25 27 28 28 28 29 31 33 35 37 39 42 44 47 49 51 53 55 56 57 58 59 62 64 66 67 67 69 72 74 75 74 73 72 71 71 70 70 73
27 23 24 24 24 25 22 26 21 24 26 28 29 30 31 32 34 37 39 42 45 48 50 52 54 56 57 59 61 61 62 64 66 68 69 70 71 72 73 73 73 72 73 75 77 78 79 79 77
24 24 24 25 26 25 24 25 25 24 27 29 31 32 33 36 38 41 44 47 51 53 56 57 58 60 61 62 64 65 68 70 71 71 72 73 74 73 73 74 75 78 80 80 79 77 77 77 76
23 24 25 26 26 27 25 25 28 25 28 31 33 35 36 39 42 44 48 52 55 58 60 61 62 62 63 65 67 70 71 73 74 75 75 75 76 76 76 75 74 74 73 73 74 76 78 78 77
24 25 26 27 26 27 28 29 26 32 33 35 36 38 41 44 46 48 52 57 60 62 63 64 65 65 67 69 71 73 74 74 74 76 77 77 76 77 75 75 75 76 77 79 81 84 85 85 85
24 25 25 27 27 30 33 32 34 33 36 40 42 44 46 49 50 54 58 61 63 64 64 65 66 67 70 71 71 72 74 75 77 77 77 78 76 74 74 76 79 83 83 78 75 74 72 72 72
23 25 26 29 31 33 35 37 35 37 40 45 46 48 51 52 56 60 62 64 64 65 66 68 70 71 70 70 72 74 77 77 77 78 77 75 74 75 78 82 82 77 74 69 65 63 61 65 65
25 26 27 31 32 36 34 41 46 44 46 49 52 54 56 57 61 63 64 65 66 69 69 71 71 71 71 73 76 77 76 77 78 77 74 74 76 81 82 79 76 72 64 60 62 65 65 65 65
26 28 30 32 35 39 41 41 45 48 51 54 56 59 60 62 63 64 66 68 70 71 71 72 72 72 74 76 76 76 77 77 76 74 75 79 81 82 79 76 71 64 65 66 67 65 65 66 65
28 30 32 36 39 44 45 48 47 49 53 57 60 63 64 66 66 69 71 71 71 71 71 72 73 75 75 75 76 77 76 74 74 77 80 81 82 80 76 69 65 65 67 65 63 63 63 64 63

GFSSGP_500_spd_048.txt.gz
Wind_Speed
6 6 6 5 1 3 3 3 5 5 6 9 11 11 10 12 13 11 12 13 14 14 14 15 15 15 15 15 15 15 16 16 16 17 17 18 18 18 18 18 17 15 14 13 12 12 13 12 11
7 7 6 8 9 8 7 4 4 5 6 7 10 9 11 11 13 13 15 16 16 17 16 16 17 17 17 18 18 18 17 18 18 18 19 20 20 21 21 21 20 19 17 15 15 13 13 13 12
7 7 8 10 14 5 1 6 7 6 7 8 9 8 8 9 10 12 14 16 17 17 18 18 18 18 19 19 19 19 18 18 19 19 19 19 20 20 20 21 21 21 20 19 17 16 14 14 15
7 8 11 16 13 13 8 9 8 9 10 12 11 11 11 11 11 11 13 15 16 18 19 20 20 20 20 19 19 19 19 19 19 19 19 20 20 20 20 20 21 20 20 20 19 18 18 17 16
7 8 10 15 12 12 11 10 10 11 12 14 14 12 12 12 12 13 15 16 17 18 19 19 20 21 21 20 20 19 19 20 20 20 20 20 20 20 21 21 22 21 21 21 20 19 19 18 18
9 9 10 17 10 11 10 9 11 12 11 13 18 12 15 16 16 18 19 21 21 21 21 21 20 20 20 20 20 21 21 21 21 21 21 21 21 21 21 22 22 22 22 23 23 22 21 20 19
11 11 13 17 9 11 11 11 13 13 13 16 20 16 20 19 20 20 22 19 17 18 19 18 19 20 20 20 20 21 21 21 22 22 22 22 22 21 22 23 23 23 23 23 23 23 23 23 22
13 13 14 20 14 13 14 14 15 14 18 18 21 25 19 22 23 22 22 21 18 17 18 18 16 19 18 20 21 22 22 23 23 22 23 22 23 22 22 23 23 24 24 24 24 25 24 24 24
15 14 19 15 17 14 16 15 18 16 18 21 23 24 24 23 23 23 22 22 20 19 19 20 21 21 20 21 21 21 19 21 20 21 21 22 22 23 23 24 24 25 25 25 26 27 27 26 27
17 20 20 14 16 15 17 17 17 18 19 22 22 23 24 24 23 23 23 22 21 22 21 20 20 19 17 17 18 17 18 18 17 18 18 20 20 21 22 24 24 25 26 26 26 28 29 29 30
20 21 19 18 17 17 17 17 18 18 18 19 20 22 23 23 22 22 21 19 18 18 18 18 18 19 18 17 19 18 18 19 20 21 21 22 22 22 24 23 26 27 28 29 29 29 30 31 32
24 21 19 19 18 18 19 16 19 21 19 20 19 20 21 21 20 20 19 18 17 18 18 18 18 20 21 20 21 21 22 23 24 24 25 26 27 27 27 28 30 32 33 34 33 34 36 36 36
27 19 20 20 20 20 20 19 20 22 21 20 20 20 20 19 19 20 20 20 20 20 20 22 23 23 22 22 23 24 25 27 28 29 29 31 33 33 33 33 34 34 35 36 36 38 39 40 42
24 23 21 21 20 20 21 21 20 22 21 21 21 19 19 19 19 21 22 23 23 24 24 25 23 22 23 25 26 27 28 30 31 32 33 34 36 37 38 39 40 41 41 40 39 41 42 43 44
26 24 22 22 21 21 22 21 19 22 22 22 20 19 20 20 21 22 24 24 23 23 22 22 21 22 24 26 27 29 31 32 34 36 37 39 41 42 44 45 46 46 48 48 48 47 46 47 49
25 24 24 23 23 20 23 22 16 24 22 21 21 20 22 22 22 23 22 22 22 22 23 22 23 25 27 29 31 33 34 36 39 41 42 44 46 47 49 50 51 53 53 53 54 54 55 54 53
22 24 26 26 22 22 23 24 17 23 22 22 23 21 24 24 23 23 23 24 25 25 25 25 27 29 31 34 36 38 40 43 44 46 47 48 50 53 54 55 56 58 58 59 60 60 61 61 60
24 25 23 27 25 23 25 22 22 22 22 23 24 24 24 24 25 25 26 26 27 26 27 28 31 32 34 38 40 42 45 47 49 50 51 53 54 56 56 57 59 62 64 65 65 66 67 67 67
21 23 24 25 28 25 26 23 25 19 24 25 25 26 26 26 26 26 27 27 28 29 30 33 35 37 40 42 45 47 50 51 53 54 56 58 59 61 62 63 65 66 67 69 69 68 66 68 71
22 23 24 28 26 26 27 22 24 20 25 26 27 27 27 28 28 28 29 30 32 33 36 38 40 43 45 48 50 54 56 57 59 60 61 62 64 65 67 69 69 69 69 70 71 72 73 73 72
23 25 24 28 28 25 26 23 24 24 25 26 27 28 29 29 30 31 32 33 35 38 40 42 45 49 51 54 57 58 60 61 61 62 63 64 66 69 70 71 71 71 73 73 73 74 73 73 73
26 25 26 28 27 27 25 26 25 23 26 26 28 29 30 31 33 34 35 37 39 42 45 47 50 53 57 61 62 63 64 63 63 64 65 67 69 70 71 71 71 72 72 74 75 75 76 76 77
26 25 25 26 26 27 25 29 26 24 23 27 29 31 32 34 35 37 39 41 45 48 51 54 57 60 63 64 65 65 66 66 68 69 70 71 71 71 71 73 75 74 73 73 72 71 72 73 73
24 24 24 25 27 28 27 28 28 28 24 28 30 32 34 36 39 41 43 46 49 52 54 58 61 64 65 65 66 67 69 71 73 74 73 72 71 73 74 73 74 74 74 72 71 70 69 69 71
23 24 26 27 26 29 31 29 25 29 32 33 33 35 38 41 43 45 47 51 53 57 61 63 65 66 66 68 69 71 73 74 75 73 73 75 76 77 77 77 76 73 71 70 70 71 74 76 77
23 25 26 28 27 29 30 32 34 32 32 33 38 41 43 45 46 49 52 56 60 62 64 66 67 68 70 71 73 74 75 74 73 75 77 78 79 79 78 76 74 73 73 74 76 79 77 74 72
23 25 26 29 27 31 29 34 36 38 41 40 44 47 48 50 51 54 58 61 63 65 66 68 70 71 72 73 74 73 73 74 76 77 78 79 79 78 76 75 75 76 77 78 78 77 74 73 69
26 26 26 29 31 32 30 31 39 42 45 48 50 52 53 55 57 60 62 64 65 66 68 71 72 73 73 72 71 73 75 77 77 78 80 80 78 76 76 78 78 78 78 79 78 75 72 67 59
25 26 27 30 31 35 37 38 40 44 47 50 53 56 58 58 61 62 61 63 66 69 71 72 72 71 70 73 74 75 76 77 79 81 81 78 77 79 81 80 81 81 81 79 75 69 64 60 58
26 27 30 33 34 38 40 44 44 45 49 54 59 61 60 62 65 67 68 69 69 69 69 69 70 72 73 75 75 76 79 80 82 81 77 79 81 83 83 82 81 80 76 71 67 64 61 60 61

GFSSGP_500_spd_051.txt.gz
Wind_Speed
7 8 7 6 6 9 8 5 5 7 11 7 5 9 10 12 12 12 11 14 14 15 16 15 15 15 15 15 15 15 14 14 14 14 14 15 15 15 15 15 15 16 16 15 15 14 14 14 14
8 9 10 10 12 10 4 5 3 4 11 6 6 9 12 12 13 13 13 13 17 16 17 18 18 18 18 17 17 17 17 16 16 15 14 14 15 15 15 14 15 15 15 14 14 14 15 15 15
10 11 13 13 12 12 7 5 4 6 11 9 8 8 9 11 11 14 14 12 17 18 16 18 18 19 20 20 19 19 18 18 17 17 16 16 15 15 15 15 14 14 14 13 12 13 12 14 14
9 12 13 13 13 13 4 5 8 10 15 10 13 12 12 12 14 14 15 14 17 16 18 19 20 20 20 20 19 18 18 18 18 18 18 18 18 18 17 16 15 15 15 15 14 13 13 13 13
9 12 15 12 11 11 9 10 11 9 18 11 12 14 14 13 16 16 15 16 20 22 22 22 22 21 20 19 18 18 18 18 18 18 18 18 18 18 18 18 18 17 17 17 16 16 15 14 14
11 13 15 11 11 10 9 12 10 10 18 14 10 15 16 17 18 20 19 19 21 24 21 21 20 20 20 19 18 18 18 17 17 18 18 18 18 18 18 18 17 17 17 18 18 17 18 17 16
13 14 15 14 8 11 11 14 10 12 17 19 13 17 20 20 21 23 22 20 21 20 19 18 18 18 17 17 16 16 17 19 19 19 19 18 18 18 18 17 16 16 17 17 18 18 19 19 19
15 15 18 18 11 11 13 14 14 15 17 21 21 17 22 23 24 23 25 22 22 18 17 17 20 19 20 20 21 19 19 20 19 17 16 17 16 15 16 18 17 17 17 17 18 18 18 19 20
17 20 20 20 12 13 15 14 16 14 18 22 24 24 22 23 24 24 23 22 21 20 18 19 18 18 20 21 17 16 15 16 17 17 16 15 15 16 16 17 18 18 18 19 19 20 20 20 21
19 20 19 18 13 12 16 15 16 15 18 23 23 24 25 25 25 25 22 20 20 19 17 16 15 12 11 17 17 17 15 15 16 16 16 16 17 19 19 19 19 20 21 21 22 23 23 24 24
20 21 20 17 16 15 13 17 16 13 16 21 22 23 24 25 26 26 22 18 19 18 17 16 17 16 13 15 18 17 18 18 19 18 19 19 18 19 21 24 24 25 26 27 26 26 27 28 28
23 20 19 20 18 15 13 14 18 16 18 19 20 21 22 23 23 23 21 17 17 19 20 19 19 18 19 19 19 18 19 21 21 22 23 25 25 25 25 24 26 28 31 31 31 32 32 33 33
24 21 20 19 18 18 16 15 18 19 20 21 22 22 22 22 21 20 19 19 19 21 22 21 20 22 21 19 19 20 21 22 23 24 25 27 29 29 30 32 34 34 32 33 37 37 37 38 39
25 22 19 21 21 19 19 17 18 22 22 22 22 23 23 21 21 21 21 22 23 23 24 23 21 21 20 20 21 21 23 24 25 27 28 30 32 34 36 38 40 41 41 41 40 41 43 43 43
24 23 20 23 22 21 20 18 18 22 23 23 22 23 23 21 21 23 24 23 23 23 22 22 22 22 22 22 24 26 27 28 30 32 34 37 39 39 41 42 44 46 47 48 49 50 49 49 50
22 22 23 24 22 21 22 19 19 22 25 25 24 23 23 23 23 24 24 23 23 24 24 24 25 25 25 27 28 29 31 33 35 36 40 43 44 46 48 49 50 51 53 54 55 56 56 56 55
22 23 24 22 22 19 22 22 21 22 26 25 25 23 24 24 23 26 26 26 26 26 27 27 27 28 29 31 32 33 35 38 40 43 46 49 51 53 54 56 58 58 59 60 60 61 61 62 63
22 20 24 27 23 20 21 22 23 23 26 25 25 24 23 25 25 27 26 27 27 27 28 28 30 30 32 34 35 38 40 43 46 48 52 54 56 57 59 60 61 63 64 65 65 64 65 67 68
22 23 22 26 24 20 23 22 24 22 22 27 25 26 25 25 24 27 26 27 27 28 29 30 32 33 34 37 39 42 45 48 50 54 57 59 60 62 63 64 65 66 66 67 69 69 70 71 70
21 23 21 24 26 23 27 22 25 23 20 27 26 27 26 26 24 26 27 28 30 30 32 35 36 37 39 41 44 47 50 53 56 59 61 62 64 65 65 66 66 67 69 71 72 74 74 74 74
23 22 22 26 28 25 28 24 24 22 21 25 26 26 27 26 27 28 29 31 33 35 36 38 40 42 45 47 49 52 55 59 61 62 64 64 65 65 67 69 70 71 72 72 72 73 72 70 71
24 25 26 27 30 29 27 29 18 23 23 24 25 26 28 28 30 31 31 32 35 37 40 43 45 47 50 52 56 60 62 63 65 65 65 65 67 69 70 71 71 71 70 69 69 71 72 72 73
26 26 26 27 28 29 22 31 19 22 22 23 25 26 27 29 31 34 36 38 40 43 45 47 50 52 56 60 63 65 67 69 69 69 69 70 71 71 70 69 67 68 70 72 73 74 74 75 74
26 26 27 27 26 27 26 28 26 23 21 25 25 27 29 30 33 36 39 42 44 46 48 51 54 58 61 63 66 68 70 71 72 73 73 72 70 68 68 70 71 72 72 73 74 75 74 74 72
25 23 25 26 25 27 28 29 25 28 27 27 27 26 30 35 38 41 43 44 47 50 53 57 60 62 65 67 69 71 72 74 74 73 72 71 71 73 73 73 74 74 76 76 74 72 71 71 70
21 23 24 27 27 28 29 29 31 32 32 32 30 35 37 39 44 45 46 48 52 55 58 61 64 66 68 70 71 73 72 71 70 71 74 75 75 75 76 77 78 78 78 76 74 73 73 74 73
22 23 26 28 27 30 28 30 32 33 32 36 40 43 46 47 49 49 51 54 57 59 62 64 67 68 70 70 70 68 69 71 73 73 74 75 76 77 79 79 79 77 75 76 78 79 78 78 77
24 25 25 27 29 29 29 31 32 32 36 41 45 48 50 50 49 50 54 56 59 62 64 66 66 66 67 68 69 70 70 71 73 75 76 77 78 79 79 76 75 76 78 81 82 82 82 82 80
25 26 26 27 29 32 33 32 37 39 43 47 49 48 48 49 52 55 57 58 59 60 61 63 65 66 67 68 70 71 73 76 78 79 79 79 78 78 75 73 76 78 79 81 82 82 80 80 76
24 26 27 29 30 34 36 38 42 44 47 50 52 52 54 56 57 58 58 59 60 61 61 62 64 68 71 73 75 77 77 78 79 79 78 77 75 73 74 76 78 79 76 74 75 78 80 80 78

GFSSGP_500_spd_057.txt.gz
Wind_Speed
10 10 10 10 9 8 7 7 7 7 8 9 8 8 9 11 11 12 13 13 12 13 14 15 15 15 16 15 16 17 17 17 17 17 17 16 15 14 13 12 11 10 10 9 7 7 7 6 7
12 12 13 14 11 10 8 6 7 7 6 8 9 8 8 11 12 12 12 13 14 14 15 16 16 16 17 17 16 16 16 16 16 16 16 16 16 16 16 15 14 13 12 11 10 8 7 8 8
14 13 14 14 11 13 11 9 8 7 7 6 9 9 9 11 15 15 14 14 15 16 17 17 18 18 18 17 17 16 16 16 15 15 15 15 16 16 16 16 15 15 14 13 12 10 8 7 8
16 14 13 13 11 10 8 8 11 11 11 11 12 12 11 11 14 17 17 16 17 18 18 17 17 16 15 15 14 14 14 15 15 14 14 14 13 13 14 14 14 16 15 15 14 12 12 10 9
17 15 14 14 12 13 16 16 17 15 13 13 13 13 11 10 12 15 20 20 20 21 20 19 17 16 15 14 13 12 14 14 14 14 15 15 15 15 15 15 14 14 14 14 14 14 12 10 9
20 17 14 14 14 14 16 16 15 16 13 14 14 14 14 11 14 14 16 21 22 21 20 18 17 16 15 15 14 14 13 14 15 15 16 17 16 15 14 14 14 15 14 13 13 14 14 13 11
22 18 16 15 13 16 16 17 16 15 15 15 15 16 18 15 15 15 15 17 19 22 19 17 18 17 18 18 18 16 17 17 16 18 16 15 15 14 14 14 14 14 14 14 14 15 15 15 15
24 19 17 15 14 15 15 16 17 18 17 17 18 18 19 16 15 15 14 16 17 17 19 17 17 19 19 20 19 17 16 15 13 15 15 15 17 15 14 13 13 14 14 15 15 16 17 18 18
24 21 18 18 14 16 18 18 19 20 21 19 18 18 18 17 16 16 16 17 17 15 15 18 17 17 18 18 17 16 16 15 17 16 17 16 17 15 15 16 17 17 17 17 18 19 19 21 22
25 24 20 18 16 15 17 19 20 21 21 21 19 18 20 19 18 17 18 19 17 15 13 14 16 17 20 21 21 19 18 18 19 18 17 18 18 19 18 18 19 20 21 21 22 23 24 26 27
25 24 21 21 18 15 16 18 19 21 22 22 19 19 21 21 20 20 20 20 20 18 15 15 15 17 20 23 24 22 21 22 22 21 21 20 19 20 21 21 21 23 24 24 25 26 28 30 31
23 23 23 22 21 19 18 18 18 18 20 20 20 20 21 22 23 23 24 23 21 20 18 18 18 19 20 21 23 26 27 26 24 23 22 22 20 21 21 22 22 24 27 29 30 32 33 34 36
24 24 24 23 22 22 19 17 16 18 18 18 19 20 21 22 23 23 24 24 23 21 20 21 23 23 24 23 24 26 26 26 26 24 23 23 24 24 25 25 26 28 30 32 34 35 38 39 41
24 23 21 20 22 23 19 18 19 20 18 18 19 21 22 23 24 25 25 25 24 23 23 25 26 26 25 24 25 25 26 26 26 26 27 28 29 29 30 31 32 34 36 37 39 41 42 43 44
25 24 20 21 24 20 19 16 23 20 21 20 21 23 24 24 26 27 27 27 26 26 26 28 29 28 28 28 28 29 29 30 31 32 32 32 33 34 35 36 38 40 42 44 46 47 48 49 50
25 24 21 24 24 20 20 15 24 22 24 23 24 25 27 27 28 28 27 27 28 28 30 31 31 30 30 31 31 32 33 34 35 36 36 37 38 39 41 42 44 46 49 51 53 54 55 56 56
24 24 23 24 24 22 21 15 26 24 25 25 27 29 29 29 30 29 29 28 29 31 32 33 32 31 31 32 33 34 35 36 37 38 40 41 43 44 46 48 50 52 54 57 59 61 62 63 64
25 25 24 23 23 23 21 17 25 27 26 28 31 32 31 30 30 31 30 29 30 33 34 34 32 33 33 35 37 37 38 40 41 42 44 46 47 49 51 52 54 56 59 62 64 65 67 69 69
26 25 25 22 24 24 23 19 24 29 26 30 33 32 31 30 29 33 32 31 32 33 33 33 34 35 37 38 39 41 42 44 46 47 49 51 53 55 57 59 61 64 66 68 70 71 73 73 74
26 25 24 24 26 25 23 19 22 28 28 30 30 30 30 29 30 33 33 33 33 33 33 34 36 37 39 41 42 44 45 48 50 52 54 56 58 59 62 64 67 69 70 72 74 75 75 76 77
24 24 25 26 26 26 26 22 24 29 32 31 31 31 32 31 32 31 32 34 34 34 35 36 38 40 43 44 46 48 50 52 54 56 58 60 62 65 68 70 72 73 75 76 77 78 79 78 76
23 24 25 26 27 28 28 33 23 30 30 31 30 31 31 32 33 33 33 34 35 37 37 39 41 44 46 48 50 53 55 56 58 59 62 65 67 70 72 73 75 75 76 77 77 77 77 78 78
22 24 26 29 30 31 28 36 25 26 27 29 30 30 30 31 32 32 33 36 36 38 40 42 46 49 51 52 54 56 58 61 63 66 67 69 70 71 71 72 74 75 74 74 74 75 75 77 78
25 26 29 31 31 33 29 31 28 25 26 27 28 28 29 30 33 35 35 35 38 41 44 47 50 52 54 56 58 61 64 66 67 68 69 69 69 69 71 73 74 76 77 78 78 79 79 80 81
27 28 30 32 31 30 29 29 25 26 27 28 29 30 32 34 34 35 37 40 43 46 49 51 53 56 58 61 63 64 64 65 66 67 67 68 69 71 73 75 77 79 80 81 83 84 84 84 84
27 28 29 31 30 28 28 28 28 29 30 31 31 32 33 34 36 39 42 44 47 50 52 54 57 60 61 61 61 60 61 62 63 64 67 71 74 77 80 82 83 84 84 83 83 83 83 84 84
25 26 27 28 28 29 28 28 30 29 31 31 33 34 36 39 40 43 46 48 51 53 55 57 59 60 58 57 57 58 60 62 66 71 75 78 81 84 86 86 85 85 85 85 84 82 79 78 78
25 25 25 27 30 30 30 30 31 31 32 33 36 39 40 43 45 46 49 52 54 56 57 57 55 54 55 57 57 61 65 69 74 78 81 84 87 88 88 88 89 89 87 81 77 75 71 68 65
25 25 27 28 29 31 33 31 32 33 35 38 41 42 43 44 48 51 53 55 56 56 54 52 53 56 57 59 63 67 72 76 80 83 85 88 88 88 89 91 88 82 77 73 69 64 64 65 66
25 25 27 28 29 31 32 35 35 37 41 43 44 45 46 49 52 54 55 55 54 52 52 55 57 59 61 65 69 73 77 80 82 84 87 88 89 90 89 81 75 69 63 61 62 64 65 61 55

GFSSGP_500_spd_060.txt.gz
Wind_Speed
10 9 9 7 5 6 5 5 5 7 8 8 7 7 7 7 7 8 9 10 11 12 13 13 13 14 13 14 15 14 13 13 14 14 14 13 13 13 13 13 13 12 11 10 9 9 8 8 7
11 10 11 9 8 7 6 6 5 7 9 9 8 8 9 9 9 10 11 11 11 11 12 13 14 14 14 13 13 13 12 13 14 14 14 14 14 13 13 13 12 13 13 12 10 9 9 9 8
14 12 13 11 9 10 10 9 7 7 9 10 9 9 12 11 11 10 10 11 11 13 15 16 16 17 16 14 14 13 13 12 13 14 14 14 14 14 13 13 12 12 12 12 11 10 10 10 10
15 15 14 12 11 10 10 13 10 9 10 11 11 11 12 14 13 13 12 13 15 16 16 16 16 15 13 12 12 11 11 12 13 14 14 14 14 14 15 15 14 14 14 13 11 10 10 10 10
18 17 15 14 14 12 11 12 13 14 14 15 15 12 12 13 13 15 17 17 17 17 17 17 16 15 14 13 12 12 12 12 12 13 14 14 15 16 17 16 15 14 15 14 13 11 10 10 10
21 19 15 15 16 15 15 17 18 18 18 17 15 11 12 13 13 15 18 20 21 19 18 18 16 16 15 15 14 14 15 15 16 16 16 18 17 16 16 15 15 15 14 14 14 13 11 11 11
24 20 18 16 15 15 15 16 17 18 18 17 16 13 12 14 14 15 17 18 19 19 18 18 18 17 18 18 17 17 16 16 17 17 17 17 17 15 16 16 16 16 15 14 14 14 14 13 13
26 22 19 16 15 15 16 14 15 18 20 19 18 16 15 14 14 14 14 16 16 19 18 18 18 18 18 17 16 17 16 15 16 17 16 17 19 16 16 15 14 14 15 15 15 16 16 16 16
27 22 20 19 16 16 16 18 19 21 21 21 20 18 15 13 12 13 14 15 17 17 18 18 18 18 18 17 18 18 20 20 20 19 19 20 19 16 16 16 17 16 16 17 18 19 20 21 21
27 23 20 21 18 18 17 19 21 22 22 21 19 18 14 12 12 13 15 17 16 17 17 18 19 19 20 22 22 22 22 22 21 21 21 21 21 20 19 19 18 19 18 18 19 20 21 23 24
27 24 21 22 19 18 18 18 20 22 22 21 19 18 16 14 15 16 17 17 18 18 18 17 17 18 20 23 26 27 25 24 24 25 25 25 23 23 22 22 21 20 20 19 20 22 23 26 28
27 24 22 23 21 18 18 18 19 21 22 22 19 19 18 18 18 19 19 20 20 21 20 19 19 20 21 24 26 28 30 30 30 28 27 27 26 25 24 24 23 23 23 24 25 26 27 29 31
25 25 24 23 24 23 20 18 19 20 22 20 20 20 20 20 20 20 22 23 24 24 24 23 23 23 24 26 27 28 28 29 30 30 29 28 28 28 27 27 27 27 28 29 30 32 33 34 36
25 25 24 22 23 24 21 17 19 22 21 22 21 21 22 22 23 23 24 25 26 26 26 26 27 28 28 28 27 27 27 27 28 29 30 31 31 32 32 32 32 33 33 34 36 37 39 39 40
29 24 22 22 23 22 20 16 24 23 21 22 22 23 24 25 26 27 28 29 29 28 28 28 29 30 31 31 30 29 30 31 31 32 33 34 36 37 37 37 38 39 40 40 42 43 43 45 46
21 23 21 21 25 22 20 14 25 24 24 25 25 26 27 28 29 30 32 33 32 32 32 32 32 33 34 33 33 33 34 35 35 36 36 37 38 39 40 41 42 44 46 47 49 50 50 51 52
28 23 23 23 24 24 21 15 25 26 25 26 26 28 29 30 31 32 34 34 33 33 34 34 34 35 36 36 36 37 37 38 38 39 40 41 42 43 44 45 47 48 50 52 53 55 56 57 59
24 26 23 23 25 24 21 17 25 27 27 27 28 30 31 32 33 33 35 33 34 35 35 36 36 37 38 38 38 39 40 41 41 43 44 45 47 48 49 51 53 54 56 57 58 60 61 63 65
27 29 26 24 26 25 23 18 22 27 26 28 30 32 33 35 34 35 34 34 35 35 35 36 37 38 39 40 41 42 43 44 45 46 48 49 50 52 54 56 58 59 61 63 65 66 68 69 72
29 28 26 26 27 28 24 19 20 25 28 30 31 31 34 34 34 35 34 36 35 35 35 36 37 39 40 41 42 43 46 48 49 50 51 53 54 56 58 60 61 63 65 68 70 72 74 75 77
27 27 27 27 26 27 25 21 19 26 30 31 33 33 34 34 34 34 34 34 34 35 36 38 40 41 42 43 45 47 49 51 52 53 55 57 58 60 62 64 66 67 70 71 73 75 77 78 77
25 25 25 26 26 26 25 29 20 29 32 32 33 33 32 31 33 34 34 35 36 37 38 41 43 44 45 46 48 51 53 55 55 56 58 59 61 63 65 67 67 68 69 70 72 73 75 77 79
20 22 24 25 27 28 24 32 25 27 30 31 31 30 30 30 31 32 34 35 37 40 43 45 46 47 48 50 53 55 57 57 58 60 61 63 63 64 63 63 64 65 67 69 71 74 76 79 80
23 24 26 27 28 30 28 30 30 27 29 26 26 27 28 29 30 32 34 36 39 41 43 46 48 51 53 55 56 58 59 60 61 63 64 64 62 60 60 62 65 69 72 75 78 80 83 86 87
24 25 27 30 29 30 29 29 27 26 26 28 26 26 28 31 33 34 36 39 41 44 47 50 52 54 55 58 60 61 61 61 63 63 62 61 59 61 65 69 73 76 79 81 85 88 90 91 91
25 26 28 32 30 29 28 29 28 28 27 28 29 30 32 33 35 37 39 42 46 49 51 53 54 57 59 60 60 59 60 62 63 63 62 63 66 70 74 77 81 83 86 89 92 94 94 92 91
25 26 27 29 30 30 28 28 29 29 29 31 32 33 36 37 39 42 44 47 50 51 54 56 57 59 59 58 57 59 61 62 64 65 67 71 75 78 82 85 87 89 93 96 97 95 93 89 84
25 25 25 27 30 30 30 30 30 31 32 33 35 37 38 40 43 46 48 50 53 55 56 58 58 57 56 57 59 61 63 66 68 71 74 78 82 85 87 89 92 94 96 95 93 88 80 75 68
24 25 26 28 30 32 32 31 32 32 34 36 38 39 41 43 46 50 52 54 56 57 57 56 56 56 57 59 61 64 67 70 73 76 79 82 84 87 89 92 94 94 91 85 75 66 60 57 58
24 25 26 28 29 31 32 33 33 36 38 39 40 42 45 48 51 53 54 55 55 55 54 54 55 57 60 62 66 69 72 74 76 78 81 83 85 88 90 90 88 79 70 61 57 57 58 59 58

GFSSGP_500_spd_066.txt.gz
Wind_Speed
10 9 8 7 7 9 8 8 8 8 8 7 6 6 5 6 8 8 8 8 9 10 10 10 11 12 12 13 13 13 13 13 12 12 12 12 12 12 12 12 12 12 11 11 10 10 10 9 9
14 12 11 10 11 10 9 8 7 7 7 6 6 7 7 8 9 10 10 10 10 10 10 10 12 13 13 12 13 12 12 12 12 12 13 13 13 13 14 13 13 13 13 13 13 12 11 10 10
17 15 15 12 12 13 12 11 10 9 9 9 9 10 9 9 11 12 11 12 12 11 12 12 13 13 13 13 13 13 12 12 12 13 14 14 14 14 15 15 15 14 14 15 15 15 14 13 12
20 19 16 12 13 14 13 13 14 14 12 10 11 11 11 12 13 13 13 13 12 12 13 13 13 12 12 13 13 13 13 13 14 15 15 15 16 15 16 17 17 17 16 16 15 15 14 14 14
22 21 19 18 16 16 14 14 14 15 12 12 13 15 14 15 16 15 15 14 13 13 12 12 12 13 13 13 13 14 15 16 16 17 17 18 18 18 19 19 19 17 16 15 14 14 13 13 12
22 22 21 20 19 17 17 16 16 16 15 15 16 17 17 18 17 17 16 15 14 13 12 12 13 14 14 14 15 15 17 16 16 17 18 20 20 21 21 21 19 17 17 16 14 14 13 12 11
25 24 22 21 20 20 18 17 18 19 19 17 17 19 19 18 18 18 17 16 14 15 15 14 15 15 15 16 16 16 15 14 14 15 16 17 19 19 20 19 19 19 18 17 14 13 12 11 11
28 26 24 22 21 22 20 18 19 18 17 17 17 18 20 20 19 18 18 18 16 17 17 17 18 18 18 15 17 16 16 17 18 19 19 20 20 21 21 21 20 19 19 18 17 16 15 14 13
30 28 24 23 23 23 21 20 21 20 18 18 17 19 20 21 20 18 18 18 19 18 19 19 19 20 20 21 20 20 20 19 20 21 22 21 19 20 21 22 21 21 22 22 21 21 20 19 17
31 29 26 23 24 24 23 22 21 22 21 21 19 18 18 19 19 18 19 20 20 19 21 21 21 22 23 23 23 23 22 22 22 23 23 23 23 23 23 24 25 24 25 26 25 24 24 23 21
33 30 26 23 24 25 24 22 22 22 23 22 21 18 17 17 18 19 20 20 20 20 21 23 23 23 25 26 26 26 26 26 26 26 27 27 27 28 27 26 26 27 27 27 27 27 27 27 25
33 30 26 23 24 24 24 23 22 22 23 23 22 20 18 17 19 20 20 21 22 22 22 22 24 25 26 28 28 29 30 30 30 30 30 30 29 28 27 27 27 28 29 30 30 30 30 30 30
33 29 25 23 23 23 22 21 22 23 23 24 23 21 19 20 21 22 22 23 24 25 25 25 25 26 27 29 29 30 31 32 33 34 34 33 32 30 29 29 29 29 31 32 33 33 34 34 35
35 28 27 23 21 22 23 22 21 24 24 23 23 23 22 23 24 24 25 26 27 28 28 28 29 29 30 31 31 31 33 34 34 34 34 35 34 34 33 33 33 34 34 35 37 38 38 39 39
41 32 26 25 24 23 25 22 23 24 25 25 24 24 24 26 27 27 28 28 29 30 30 30 30 31 32 32 32 33 34 34 34 34 34 34 34 35 35 36 37 37 38 38 40 41 42 43 44
41 35 27 20 22 24 25 20 24 27 27 26 26 26 25 27 29 29 29 30 31 31 31 31 31 32 33 33 34 35 35 35 34 34 34 34 35 36 37 38 39 40 41 42 43 45 46 46 47
36 32 31 24 23 23 25 21 25 28 29 28 28 28 28 29 30 31 30 31 31 31 32 32 33 34 34 34 35 35 35 35 35 35 36 36 37 38 39 40 41 43 44 45 47 48 50 51 52
32 33 30 23 27 29 25 21 26 29 29 28 29 29 29 30 32 31 31 32 32 33 34 34 35 35 35 35 36 36 35 36 36 37 38 39 40 41 42 44 45 47 49 50 51 52 54 54 55
34 28 26 29 26 30 27 22 25 29 27 29 29 30 29 31 32 32 35 35 36 36 36 36 36 36 35 35 35 35 36 37 38 40 41 43 45 47 48 49 51 52 54 55 56 57 58 59 61
32 26 24 23 25 24 27 21 25 28 29 29 30 30 30 31 33 35 36 37 36 36 35 35 34 35 35 35 35 36 38 40 42 44 45 47 49 50 52 54 55 57 58 59 61 62 63 64 65
31 29 30 26 29 29 28 24 23 27 28 29 30 30 31 32 33 34 35 35 36 36 35 35 35 34 34 35 37 40 42 44 46 48 50 53 54 56 57 58 59 61 62 62 63 65 67 68 67
30 29 27 29 30 30 26 28 22 27 28 29 30 31 32 32 33 33 33 34 34 34 35 34 35 35 36 38 40 43 46 48 51 54 56 57 58 60 61 62 63 64 65 66 66 67 68 70 71
31 30 28 29 29 29 23 27 23 25 28 29 30 31 31 31 31 31 31 32 33 33 34 35 36 38 40 43 46 49 51 54 56 57 58 60 62 63 64 65 66 66 67 68 69 70 70 71 73
29 26 25 25 25 26 23 24 28 26 27 29 29 29 29 29 30 31 32 33 34 35 36 37 40 42 45 48 51 54 56 57 59 60 62 63 64 64 64 65 66 67 68 69 70 71 72 72 74
25 22 23 25 25 25 24 26 27 27 28 28 28 28 28 29 29 31 32 34 35 37 39 41 44 47 51 53 56 57 58 60 62 63 63 63 63 63 64 64 66 68 70 71 72 73 73 75 76
21 20 21 24 24 25 25 27 26 26 25 26 27 28 28 29 30 31 33 35 38 40 43 46 49 52 54 56 58 60 61 61 61 60 61 62 63 64 66 68 69 69 69 70 72 74 76 79 82
18 19 21 24 25 27 26 26 26 25 27 27 28 29 30 31 33 34 36 39 42 44 46 49 52 55 57 59 60 59 59 59 60 61 62 64 66 67 67 66 67 69 72 75 78 80 82 84 85
18 19 21 22 26 25 26 26 27 26 28 29 30 31 33 35 37 39 41 44 46 48 51 53 55 56 55 55 56 57 58 60 62 64 65 65 65 64 64 68 71 74 76 78 80 81 83 84 84
18 19 21 23 24 26 27 30 27 28 30 31 33 34 37 39 42 44 46 48 50 51 52 51 51 52 53 54 56 59 61 63 64 63 62 63 64 68 71 72 73 75 78 80 81 82 82 80 75
18 19 21 23 24 25 27 29 29 30 33 35 38 40 42 44 46 47 48 49 48 47 48 49 50 53 56 58 60 60 59 58 60 63 65 67 69 72 73 76 79 80 81 81 81 78 74 68 63

GFSSGP_500_spd_072.txt.gz
Wind_Speed
9 8 6 5 7 10 10 10 11 12 12 13 14 15 13 13 13 12 13 15 14 15 16 15 16 16 14 12 12 12 12 12 12 12 12 12 13 13 13 14 14 14 14 14 15 15 15 14 14
12 11 9 8 9 13 9 9 9 11 12 13 14 15 13 13 14 15 16 16 17 16 18 18 17 16 14 12 12 12 13 12 12 13 13 13 13 14 15 15 15 15 15 15 16 16 16 15 14
15 14 12 9 10 13 16 11 11 12 12 13 13 14 14 14 15 17 18 18 18 18 18 18 17 16 13 12 13 13 13 13 13 14 14 14 15 15 15 15 16 16 16 17 17 17 16 15 15
18 17 15 12 11 22 9 12 14 15 15 15 16 16 17 17 17 18 20 20 20 19 19 18 17 15 14 13 14 13 14 15 15 15 16 15 16 16 16 17 18 17 18 18 18 17 17 16 15
21 19 17 14 13 17 19 15 15 16 17 18 20 19 20 20 19 22 22 22 20 19 19 18 17 16 15 14 15 15 15 16 16 16 16 15 16 16 17 17 18 18 18 18 18 18 17 17 16
23 22 20 16 17 19 23 17 18 18 18 20 22 20 22 23 23 24 24 23 22 19 19 18 17 16 16 16 16 16 16 16 16 16 15 15 17 18 18 18 19 19 19 19 19 19 19 18 17
25 25 21 18 20 29 18 20 18 19 19 18 22 25 21 24 24 25 26 25 24 22 19 18 17 17 17 16 16 17 15 18 19 18 19 19 19 20 21 21 20 20 19 19 20 19 19 18 18
27 27 21 21 16 24 23 24 22 20 18 19 21 26 18 23 23 24 26 26 25 24 19 20 18 19 19 18 18 18 19 20 20 20 21 22 21 22 22 21 20 20 21 21 21 20 19 19 19
31 29 23 21 20 29 25 23 22 22 19 21 22 23 24 23 25 26 27 27 24 24 19 21 20 21 21 19 20 19 20 21 21 22 22 24 24 23 23 23 23 22 24 25 24 22 22 22 23
34 31 23 19 23 26 19 24 22 23 23 22 23 24 27 26 25 26 26 26 26 23 22 23 21 23 23 23 22 22 22 23 24 24 25 25 26 26 25 25 25 25 25 26 27 26 26 26 26
35 32 24 29 27 25 27 27 21 24 24 24 23 22 28 26 25 25 26 25 26 23 26 24 24 25 26 26 26 25 25 26 26 27 27 28 28 28 27 27 27 28 28 28 28 28 28 28 29
37 36 31 32 26 29 29 27 23 23 27 24 27 26 24 25 25 26 26 27 26 22 26 27 27 26 27 30 29 30 30 31 31 30 30 30 30 30 29 29 30 30 30 30 30 29 30 30 30
39 37 38 37 29 32 32 28 25 22 26 25 24 27 24 25 24 25 26 27 26 24 27 27 30 31 31 31 32 33 34 34 33 33 33 32 32 32 32 32 32 32 32 33 32 32 32 32 32
43 41 42 36 32 35 32 31 26 23 25 26 25 25 26 26 26 26 26 26 27 25 28 30 32 33 33 34 34 35 35 35 35 34 34 34 34 34 34 35 35 35 34 35 35 35 35 35 35
45 40 39 37 35 34 35 32 25 33 26 26 28 25 26 26 27 28 27 28 29 25 30 30 34 34 33 35 35 35 35 34 35 34 34 34 35 35 35 35 36 37 37 37 37 37 37 37 37
45 42 41 40 39 39 37 34 33 32 27 29 27 28 27 28 29 29 29 29 30 27 31 33 34 35 34 35 35 35 35 35 35 35 35 35 35 35 35 36 37 38 38 38 39 39 40 40 41
46 43 41 42 40 39 39 42 40 31 28 31 27 27 26 28 30 31 29 30 31 30 31 33 34 35 35 36 36 36 37 37 37 36 36 35 35 36 37 38 39 39 40 41 42 42 43 44 45
45 45 40 42 41 41 40 42 55 39 35 29 29 26 29 27 29 32 30 32 33 34 33 33 35 36 37 38 37 37 37 37 37 36 36 36 37 38 39 40 41 42 44 45 46 47 48 49 49
41 43 43 45 43 38 39 38 37 37 29 27 31 28 29 30 30 32 33 34 35 36 36 34 36 37 37 38 38 38 37 37 38 38 38 39 39 40 42 43 45 47 48 49 50 51 52 53 54
39 44 41 38 30 34 39 34 28 27 32 32 31 23 30 34 34 33 31 36 36 37 37 36 36 37 37 37 37 38 37 38 39 40 41 42 43 45 47 48 50 52 53 54 55 56 56 56 58
42 46 42 42 42 35 35 36 35 29 29 27 22 27 33 33 36 36 33 35 37 38 37 38 36 37 37 38 39 40 40 42 43 42 43 45 48 50 52 54 56 57 58 58 59 60 61 61 61
38 37 39 43 35 33 33 33 31 34 21 24 23 29 30 32 34 36 35 35 36 36 35 37 38 37 38 39 41 42 42 43 46 47 49 51 53 56 58 59 60 60 62 63 63 64 64 65 64
35 37 34 36 36 34 32 31 25 29 27 20 22 25 27 30 32 34 34 34 34 35 35 38 39 41 41 42 42 44 46 48 51 53 56 58 60 61 62 63 64 65 65 64 64 63 63 63 64
30 30 30 32 31 34 24 30 28 29 24 25 24 26 28 29 31 32 31 33 35 36 38 39 41 42 44 45 47 48 51 54 56 59 61 63 64 65 66 66 65 64 64 63 63 63 63 63 63
28 29 27 28 28 27 26 26 32 25 25 27 27 28 28 28 30 32 33 35 36 37 39 40 42 45 47 49 51 54 57 59 61 64 65 65 64 64 64 64 64 64 65 66 66 65 63 62 62
22 24 24 26 14 18 23 26 24 25 24 27 26 27 28 28 30 32 33 35 36 38 40 43 46 48 51 53 56 57 58 59 60 61 61 63 64 65 67 68 69 70 69 66 63 63 64 66 67
23 24 24 22 23 25 27 30 30 24 23 25 26 27 28 29 30 32 34 37 39 42 44 46 48 49 50 51 53 55 58 60 61 62 65 68 70 72 73 72 70 67 65 66 68 69 70 71 73
21 21 22 25 26 27 17 21 31 23 21 24 26 28 29 31 34 37 39 41 41 42 43 44 46 47 49 52 55 58 61 64 67 69 71 73 74 71 68 67 68 69 70 73 74 75 76 77 78
18 19 21 23 22 22 19 26 29 28 25 26 27 30 33 36 37 38 38 38 39 40 42 44 47 50 52 55 60 63 66 68 70 70 69 68 68 69 70 72 73 74 75 77 77 77 79 81 83
16 16 17 19 22 18 20 23 25 26 25 28 31 33 35 35 35 36 35 35 38 42 45 48 51 53 56 60 63 67 68 68 68 69 70 72 73 72 72 73 73 74 75 76 79 80 82 84 86

GFSSGP_500_spd_078.txt.gz
Wind_Speed
14 14 15 16 14 14 12 12 12 12 10 9 11 10 11 10 9 10 11 12 12 14 15 16 16 16 16 15 14 13 13 12 11 11 12 12 11 11 12 12 13 13 14 14 14 16 16 15 13
14 14 15 15 14 12 9 11 13 12 9 9 11 11 12 10 9 10 12 13 14 16 17 18 18 18 16 13 14 14 13 13 12 11 12 13 13 13 13 13 14 14 15 15 16 16 17 16 14
18 17 16 16 16 14 10 13 13 13 10 9 11 12 13 12 11 12 14 17 16 18 20 20 20 19 16 14 13 14 14 14 13 13 13 13 14 14 14 14 15 15 16 16 17 17 18 17 16
21 21 20 19 20 18 14 17 16 16 11 11 13 14 17 16 14 15 15 18 19 21 22 21 20 20 17 15 14 14 14 14 14 13 13 14 14 14 15 15 15 15 16 17 18 18 18 18 18
25 23 23 24 22 19 17 19 18 15 13 12 14 15 17 18 16 17 17 19 21 21 21 21 21 20 18 16 15 15 16 15 14 14 14 14 15 15 16 16 16 16 17 18 18 19 19 20 20
29 27 25 24 23 19 18 18 19 21 19 16 15 17 20 21 17 18 18 19 22 20 20 20 21 20 19 17 16 16 17 17 16 14 16 15 16 16 16 17 18 18 19 19 19 20 20 21 21
31 29 27 28 24 18 17 20 13 17 21 18 18 18 21 23 20 19 18 19 20 20 20 21 21 20 18 17 17 17 18 17 17 17 17 17 17 18 18 19 19 19 20 20 20 21 22 22 21
34 31 29 29 26 27 24 22 24 18 21 20 19 18 21 25 26 22 20 20 21 23 24 22 21 19 19 18 17 18 18 18 18 19 19 19 20 20 20 21 22 22 22 22 22 23 24 25 24
37 35 28 28 30 27 27 23 23 22 24 22 18 18 21 25 29 27 24 21 20 21 27 24 22 21 19 18 20 20 21 20 20 21 22 21 22 23 23 24 24 25 25 26 26 25 26 26 26
39 37 28 31 33 30 30 25 24 23 18 18 19 19 22 24 25 26 27 21 19 19 24 23 22 23 21 21 21 22 22 22 22 23 24 26 26 26 27 28 28 28 28 29 29 28 28 27 27
40 37 30 32 35 33 28 24 23 28 21 18 22 23 23 24 25 26 25 22 16 18 21 21 21 21 22 20 22 24 25 24 25 26 27 28 29 31 31 31 31 31 31 32 32 32 31 30 29
42 37 33 35 38 34 31 28 24 23 25 25 25 26 26 27 27 27 27 22 18 17 19 18 18 22 23 23 24 26 28 27 28 28 29 30 31 33 33 33 33 33 33 34 34 35 34 33 33
44 40 36 35 39 33 29 29 28 28 27 26 30 29 27 27 27 27 27 25 21 18 17 18 20 21 22 24 26 27 29 29 30 31 32 32 32 33 33 34 34 35 36 36 37 37 37 36 36
46 43 38 37 38 33 33 30 28 26 29 34 32 31 30 29 29 29 28 28 25 23 22 21 20 21 23 25 26 27 29 30 32 33 33 33 34 34 34 35 36 37 38 39 39 39 38 38 38
50 46 42 40 41 36 35 34 31 32 33 30 33 29 27 30 31 33 30 29 26 23 23 24 26 24 25 27 29 30 31 32 33 34 35 35 36 37 37 38 38 39 40 40 40 39 39 39 39
52 50 46 44 42 39 36 35 36 35 32 30 31 32 31 32 38 40 36 29 28 24 24 23 27 26 29 31 32 33 34 34 35 36 36 37 38 38 38 39 39 39 41 41 41 41 42 41 40
54 51 48 46 43 40 36 34 34 35 34 33 35 34 26 32 37 43 37 29 26 24 26 26 27 27 30 33 34 35 36 37 37 38 37 37 37 38 37 38 39 40 41 42 43 44 45 45 45
54 52 50 47 43 39 37 37 35 34 35 36 34 34 33 30 30 36 35 32 26 25 26 26 28 29 32 35 36 37 37 37 37 37 36 36 37 37 37 38 40 42 43 45 46 47 48 49 49
51 49 45 42 41 40 40 39 36 35 38 38 38 31 29 32 35 31 33 29 22 26 29 28 30 30 33 36 37 35 36 35 35 36 36 36 37 38 39 40 42 44 47 49 50 52 53 54 55
47 43 42 42 41 42 41 36 34 34 32 33 29 29 33 35 27 18 26 26 23 26 28 29 31 31 32 34 33 33 34 35 36 36 37 39 40 42 43 45 46 48 50 52 54 56 57 58 59
42 41 39 38 37 38 38 38 37 36 34 30 25 29 32 27 22 19 21 20 25 28 28 29 33 31 32 33 34 35 37 38 39 40 40 41 42 43 45 47 50 52 54 56 58 59 60 62 63
39 35 35 37 35 35 35 35 35 35 32 22 20 28 28 23 22 23 23 24 26 29 30 29 31 32 34 36 37 38 39 40 40 42 44 45 47 48 50 51 52 51 49 51 53 55 57 58 60
32 36 35 33 33 30 28 29 25 31 31 23 24 26 26 24 22 24 25 25 27 29 31 32 32 33 35 37 38 40 42 44 45 46 46 47 48 47 47 48 49 50 52 55 57 59 62 63 62
29 30 31 31 32 34 32 31 30 26 23 24 26 26 26 25 25 24 25 26 27 29 31 32 32 34 36 38 40 41 41 41 42 43 45 48 49 50 53 55 57 59 60 63 65 68 69 68 69
30 32 32 32 35 36 25 29 24 19 20 22 24 23 22 23 24 24 25 27 28 30 32 35 37 39 38 38 37 35 38 41 45 49 51 53 56 58 60 61 63 65 69 71 74 75 75 75 74
26 27 30 29 28 22 22 26 23 20 21 22 24 24 22 21 22 24 25 27 28 31 33 34 35 35 33 35 40 43 47 48 51 54 55 58 61 63 64 65 69 75 77 79 79 80 81 81 80
26 28 25 24 23 22 23 21 21 21 20 21 22 20 20 21 23 24 26 28 30 29 29 28 30 35 39 43 47 50 53 56 58 59 61 62 64 65 67 72 77 79 80 81 82 82 80 81 80
23 22 23 23 22 21 20 20 21 18 18 20 20 20 21 24 24 27 28 26 25 24 29 33 37 41 45 49 52 55 57 60 61 63 65 66 66 69 74 78 80 81 82 81 79 78 78 78 78
18 21 23 24 20 21 21 20 18 19 20 20 20 21 23 25 27 27 24 22 27 32 36 40 44 46 50 54 57 60 61 62 64 66 68 69 72 76 79 81 80 79 76 77 77 77 77 77 76
16 19 20 22 21 21 21 22 19 20 21 21 21 22 25 28 26 23 22 27 33 38 42 44 47 52 55 57 59 61 61 63 66 68 71 74 77 79 79 77 73 73 74 76 77 78 79 80 80

GFSSGP_500_spd_084.txt.gz
Wind_Speed
18 18 19 19 17 16 16 16 14 13 13 13 12 11 11 12 11 10 10 11 12 12 13 13 15 16 16 15 14 11 10 9 8 9 9 10 10 11 11 11 11 11 13 12 12 12 12 12 12
20 20 20 20 19 17 18 17 14 13 12 12 12 11 11 12 12 11 11 12 13 14 14 15 17 17 17 15 14 12 10 10 10 10 11 12 12 11 12 11 12 13 14 13 13 13 13 13 12
23 23 23 21 19 17 17 17 14 13 12 12 13 12 12 12 13 14 13 14 15 16 17 19 18 18 18 15 15 14 12 11 11 11 12 12 13 13 12 12 13 14 14 14 14 14 14 13 13
26 26 26 24 20 18 16 16 14 12 14 15 15 16 17 17 16 16 17 17 19 19 20 21 21 20 19 17 16 15 15 14 13 13 13 14 15 15 14 13 13 14 15 15 15 16 16 15 14
30 30 30 27 26 19 20 20 17 15 17 16 16 16 18 18 18 19 19 19 21 22 22 23 23 21 19 19 18 17 17 16 15 14 14 16 17 14 16 13 14 15 16 17 17 18 18 17 16
34 34 33 29 28 25 24 24 21 20 21 22 22 22 21 21 20 21 21 21 21 22 23 23 23 22 22 21 21 19 19 18 15 15 15 15 16 15 16 16 15 16 17 18 19 19 20 19 18
36 37 36 32 31 30 26 28 24 25 25 23 25 24 23 22 21 21 22 22 23 24 24 24 24 24 22 22 21 21 21 20 17 17 16 17 18 18 18 17 17 18 19 20 21 22 22 22 22
36 38 38 36 33 31 31 30 29 25 26 23 22 22 23 21 22 24 24 24 24 25 26 26 25 24 23 22 22 21 20 20 19 19 19 19 20 20 20 20 21 21 22 23 24 24 25 25 25
40 40 39 37 35 31 33 33 31 28 25 25 26 25 26 25 21 20 20 21 23 24 25 25 24 24 24 21 20 19 19 21 22 21 21 22 22 22 22 23 24 24 25 25 26 27 28 29 28
43 41 37 36 36 36 37 35 32 30 28 26 23 24 24 18 15 15 16 15 17 19 21 23 23 22 23 24 23 20 20 21 23 23 23 23 24 25 25 26 27 27 27 28 29 30 30 31 31
46 42 39 36 37 39 38 36 33 31 30 25 27 26 25 19 17 15 15 15 17 18 21 23 22 24 24 24 21 18 20 21 23 24 25 26 27 27 28 28 29 29 30 31 31 31 31 32 32
49 45 41 39 38 40 39 37 34 32 28 28 30 28 22 19 15 15 13 12 13 16 18 22 24 25 25 25 21 20 21 23 24 25 26 27 28 28 27 27 28 30 31 32 32 32 33 33 33
52 47 44 43 41 40 40 39 39 34 31 29 30 27 24 17 16 15 15 16 15 17 20 21 23 25 25 27 24 22 23 24 24 25 26 27 27 27 28 28 29 30 32 32 34 34 35 35 35
53 51 46 44 43 40 41 42 40 35 32 30 30 26 24 18 18 18 18 20 22 24 22 22 22 23 25 29 27 26 26 27 27 27 28 29 29 29 30 31 31 32 34 35 36 36 37 37 37
55 54 51 47 45 42 42 43 40 36 34 32 29 28 25 22 22 22 21 21 19 23 24 21 21 23 23 27 28 27 30 28 27 28 29 29 30 31 32 33 34 35 35 37 37 38 38 37 37
56 57 55 50 47 46 44 44 41 39 37 32 29 30 28 26 28 28 26 25 25 25 22 24 23 21 24 26 27 31 30 29 29 29 30 31 32 33 33 34 34 36 36 36 36 37 37 37 38
58 56 55 53 49 48 46 45 43 40 38 34 33 32 30 29 29 28 30 31 25 25 26 26 26 25 24 25 29 31 32 32 33 33 33 33 33 34 35 36 36 37 37 37 38 39 39 40 40
58 57 56 54 50 48 47 45 44 41 38 36 34 33 32 30 29 32 29 29 25 26 27 28 25 23 26 31 33 34 33 32 34 34 35 35 35 36 36 37 38 39 40 41 41 43 43 44 44
56 53 53 52 50 47 46 44 41 39 38 37 35 33 33 29 29 29 28 23 24 25 27 24 22 22 30 33 34 35 34 34 35 34 34 34 35 37 39 39 40 41 42 43 44 46 46 47 47
53 52 50 50 49 46 44 42 42 41 39 38 38 35 32 32 30 26 23 22 25 28 27 26 26 28 33 33 34 35 34 36 36 36 36 37 37 38 39 41 42 43 44 45 45 45 46 47 48
50 48 45 49 46 45 42 42 42 40 40 39 38 37 34 31 29 23 20 22 27 30 30 29 26 33 34 36 36 36 36 37 37 37 38 39 40 41 42 43 43 43 44 45 47 50 52 52 54
42 34 42 43 37 39 38 40 37 38 37 38 38 36 35 34 32 28 24 24 27 30 31 32 34 35 37 37 37 37 37 37 38 40 41 42 42 41 41 43 46 48 51 54 56 57 58 59 60
34 33 34 31 33 34 36 38 34 35 35 32 31 30 32 34 34 31 29 28 30 31 33 36 36 37 37 37 37 37 38 40 41 41 39 39 40 43 46 50 53 55 58 61 63 64 66 67 69
31 27 27 31 33 37 32 34 29 28 27 28 28 29 31 30 29 29 30 31 32 34 35 35 35 35 36 36 37 39 40 39 38 37 40 44 47 50 53 56 59 62 64 66 68 69 70 71 72
31 29 28 29 33 32 27 31 24 23 24 22 21 23 26 27 27 29 30 32 34 34 33 34 34 35 36 38 39 38 35 37 40 44 48 51 54 57 60 62 64 66 67 68 70 72 74 76 78
31 30 29 28 26 23 22 27 21 18 19 23 26 26 26 26 27 28 30 33 34 33 33 33 35 37 39 38 35 35 40 44 48 51 54 56 60 62 63 65 67 69 70 72 74 76 79 81 82
27 28 25 24 25 23 23 24 19 16 19 23 23 22 23 25 26 30 32 31 31 32 33 35 37 38 37 34 38 42 47 52 54 57 60 63 65 67 68 70 71 72 74 76 78 80 83 85 87
26 24 24 23 22 21 23 20 19 17 19 22 22 22 25 25 28 29 29 29 30 31 34 36 37 34 36 40 44 50 55 58 60 63 66 68 69 70 71 72 73 76 79 81 83 84 86 87 87
22 25 24 22 22 22 30 20 17 17 18 20 21 24 25 25 25 28 29 29 30 32 34 35 34 37 42 47 52 56 60 62 65 68 70 71 72 72 74 76 79 81 83 84 85 85 84 82 78
24 25 23 24 17 13 14 17 16 16 18 19 20 23 23 24 26 28 29 30 32 33 32 34 39 44 49 53 57 61 64 66 69 71 72 73 74 75 78 80 81 82 82 81 79 77 76 76 76

GFSSGP_500_spd_087.txt.gz
Wind_Speed
20 19 19 18 17 16 16 16 16 15 13 12 11 12 12 11 11 10 10 11 11 11 12 13 13 13 14 14 13 12 11 10 10 10 9 8 8 8 9 9 9 9 9 10 10 10 11 12 13
23 22 21 20 18 16 18 17 17 16 15 13 11 11 11 12 11 11 11 12 13 14 14 15 15 15 16 16 14 13 11 11 11 11 10 10 10 10 10 11 11 10 9 9 10 11 11 12 13
25 25 25 23 18 16 17 17 16 16 15 14 12 12 12 12 13 13 14 15 15 16 16 18 18 18 19 19 16 15 14 13 12 12 12 12 12 12 11 12 12 11 10 10 11 12 13 13 13
27 28 27 25 20 19 17 15 14 15 14 13 13 15 16 16 16 17 17 18 19 19 19 20 19 20 21 20 20 18 16 15 14 14 14 14 14 14 13 12 12 12 11 11 12 12 13 13 14
30 30 30 26 22 20 18 18 16 17 17 16 16 16 16 17 17 17 18 19 19 19 19 20 21 21 22 21 21 21 19 17 16 15 15 16 14 12 10 13 13 13 13 13 13 13 15 15 15
33 33 33 28 24 25 22 20 19 18 19 19 19 20 21 22 22 22 21 21 21 20 20 20 21 21 22 22 23 21 21 19 18 17 15 16 17 16 14 14 15 14 14 14 15 16 17 17 17
33 34 35 32 29 30 26 26 23 25 22 22 23 22 23 22 21 19 19 22 22 22 22 22 23 23 23 23 22 21 19 19 19 18 17 17 17 18 17 17 16 16 17 17 18 19 19 19 19
35 35 35 34 32 31 29 29 29 25 26 25 25 23 22 20 19 19 22 20 20 21 21 21 21 21 21 21 19 18 16 16 16 18 19 19 19 19 19 20 20 20 20 21 22 22 23 23 23
37 39 36 33 32 32 32 32 30 27 26 26 25 22 23 22 16 17 16 16 16 16 17 16 16 17 18 16 15 16 18 18 18 18 19 20 20 21 22 22 23 24 24 25 25 25 26 27 27
43 41 37 33 31 35 37 35 34 31 27 28 26 27 27 19 14 13 15 15 13 13 13 13 14 15 16 17 17 19 18 18 18 18 19 21 22 23 23 25 26 26 27 27 27 28 28 28 28
45 44 39 35 34 35 38 38 36 31 30 27 26 30 27 21 16 17 16 15 14 14 14 16 16 16 16 17 19 19 18 18 18 19 20 21 22 23 24 26 27 27 28 28 28 28 28 29 29
47 46 43 39 38 38 39 38 36 34 29 28 29 31 27 22 14 15 15 13 13 15 16 18 19 18 18 16 19 21 20 21 19 20 21 22 23 23 25 26 27 28 28 28 29 29 29 30 30
53 49 47 43 42 40 41 40 41 34 32 31 31 30 27 25 16 14 16 16 14 17 19 22 22 23 23 21 24 24 23 21 21 22 23 23 24 25 27 27 28 29 29 30 30 31 32 32 33
53 54 51 47 45 44 43 42 42 37 35 33 32 30 30 27 19 14 17 20 19 17 17 20 24 26 23 20 24 23 21 24 25 27 26 26 27 28 30 30 30 31 31 31 32 32 33 33 34
54 55 55 52 48 47 44 46 43 40 38 36 34 33 32 28 20 19 20 25 24 23 26 20 22 22 22 21 26 26 25 22 27 28 29 30 30 31 31 31 31 31 31 31 32 32 33 33 33
56 57 56 54 52 49 47 45 43 42 39 37 35 33 32 29 24 22 24 30 26 29 29 27 26 23 23 23 26 26 25 29 29 30 32 32 33 33 32 32 32 31 31 31 32 33 33 33 34
60 60 58 56 54 52 50 47 46 44 42 37 35 32 31 30 29 28 31 30 29 25 23 21 24 27 28 23 22 26 28 31 33 34 35 34 34 34 34 33 33 32 32 33 33 34 35 35 35
59 59 59 57 54 52 50 48 46 45 42 38 36 34 31 34 36 28 32 19 27 24 22 23 23 26 27 24 25 27 31 34 35 36 37 36 35 36 34 34 33 33 34 34 35 36 36 36 37
55 57 57 57 53 52 49 47 45 44 42 39 37 36 34 35 35 29 28 27 25 26 25 25 24 23 25 28 28 30 34 35 36 38 37 37 36 35 35 35 36 36 37 37 37 36 36 35 36
53 52 55 55 53 50 49 47 46 44 41 40 40 38 35 33 31 31 28 25 25 26 27 24 25 25 28 29 31 36 36 37 37 36 36 37 36 36 37 38 37 37 36 36 36 38 40 42 43
45 48 49 48 50 48 46 46 45 44 42 41 39 36 36 30 30 32 26 24 24 29 30 28 28 29 30 29 35 37 38 38 37 37 37 37 38 39 39 38 37 37 38 40 43 45 47 49 51
37 40 39 43 45 44 43 44 41 40 39 39 37 35 34 33 31 31 31 30 32 31 31 32 32 32 35 38 39 39 38 37 38 38 40 41 40 39 38 37 41 43 46 48 50 53 55 57 59
27 34 31 25 38 34 35 41 37 37 35 34 34 34 34 33 35 37 35 33 33 32 32 33 34 36 39 40 39 38 39 39 40 41 42 40 37 38 42 45 48 51 54 56 59 61 62 64 65
24 26 28 33 32 34 27 30 31 33 31 31 30 29 30 32 33 33 31 28 29 31 33 34 36 38 39 38 39 39 40 42 42 41 38 40 43 46 50 53 55 57 60 63 66 67 68 70 71
26 26 27 20 25 28 28 28 23 24 24 23 24 25 26 28 27 26 26 28 28 30 33 35 37 38 38 39 39 40 42 43 41 39 43 46 50 54 57 59 61 64 67 69 71 72 74 74 75
27 26 20 23 25 23 20 26 15 17 17 19 19 20 21 22 25 27 27 27 29 30 33 36 36 36 37 38 40 42 41 38 41 45 49 53 57 61 64 66 69 71 73 74 74 75 77 77 78
23 29 24 22 19 17 21 18 14 16 16 18 19 21 24 25 25 26 26 27 29 32 33 34 35 35 37 40 41 39 39 44 48 52 56 60 64 67 70 72 73 75 76 78 79 79 81 82 85
17 17 17 19 17 16 16 12 13 16 17 19 21 24 25 24 26 25 26 29 30 31 33 34 34 37 39 39 38 41 46 50 54 58 62 66 69 71 73 75 77 79 80 81 82 84 86 87 88
17 18 17 17 13 12 10 9 13 15 18 21 23 24 25 25 24 25 28 29 31 32 32 33 36 37 36 38 43 47 52 57 61 65 68 71 73 74 76 78 79 81 83 85 86 87 87 87 87
14 18 17 16 13 12 12 14 20 16 17 20 21 22 23 24 26 28 28 30 30 30 32 35 34 35 39 44 49 54 59 63 66 69 71 72 74 76 78 80 82 85 85 84 83 83 82 80 77

GFSSGP_500_spd_090.txt.gz
Wind_Speed
22 20 20 19 17 16 17 17 17 16 16 15 14 14 14 13 13 12 11 11 11 12 13 13 15 15 15 13 14 14 11 10 11 11 11 11 10 9 8 8 7 8 8 8 8 10 10 12 12
25 25 23 21 19 17 19 19 19 17 17 16 15 13 13 13 12 12 12 12 13 14 14 14 15 17 17 16 16 15 15 13 12 12 12 13 12 11 10 9 9 8 8 8 8 10 10 11 12
27 28 27 24 20 18 20 21 19 19 18 17 16 13 12 12 12 13 13 14 15 16 17 18 19 18 18 17 17 17 16 16 15 15 14 14 14 13 12 11 10 9 9 9 8 9 10 11 11
29 30 29 27 21 21 21 20 19 19 18 16 15 14 14 14 15 15 16 17 18 19 19 20 20 20 18 18 17 17 16 17 16 17 17 17 16 15 14 12 11 11 10 10 10 10 11 11 12
31 32 33 28 23 22 23 21 19 19 18 16 16 15 15 15 14 15 16 18 21 21 21 20 20 18 18 18 19 19 18 18 16 16 18 18 18 15 10 11 12 11 11 11 11 12 12 12 12
32 32 34 31 25 25 25 22 20 20 21 20 19 18 18 18 18 19 20 20 20 21 21 21 21 21 20 20 21 21 20 19 17 16 17 18 18 16 14 13 13 13 13 13 13 13 14 14 15
32 33 33 32 31 30 27 25 22 23 22 22 21 20 21 21 19 18 18 18 19 20 21 20 20 21 21 20 20 20 19 19 17 18 17 18 19 18 17 16 16 16 16 16 16 16 16 17 17
34 35 35 32 32 30 32 29 27 26 28 26 25 22 22 21 19 20 21 21 19 17 16 17 18 18 18 17 16 14 14 14 15 16 17 18 20 20 19 18 18 18 19 19 20 20 20 20 21
37 39 35 32 31 28 33 33 31 30 28 26 27 25 23 22 20 19 18 16 15 15 15 14 14 13 13 13 13 13 13 16 17 17 17 18 19 20 21 21 21 21 22 22 22 23 23 24 24
41 41 37 35 31 31 35 37 35 32 30 27 26 23 25 24 23 19 17 17 17 17 15 12 11 12 12 13 14 10 14 15 16 17 17 18 20 21 22 23 23 24 24 24 25 26 26 26 27
42 42 41 40 35 34 36 38 38 34 33 26 27 31 30 26 21 18 20 22 21 20 18 14 13 13 13 15 16 16 15 14 16 17 18 18 19 19 20 21 22 23 24 25 26 27 27 28 28
47 46 44 42 39 39 38 39 39 38 33 30 32 34 31 26 23 18 20 22 21 20 19 17 16 16 16 18 19 20 21 18 18 18 18 19 21 22 23 24 24 26 27 28 29 30 30 30 30
48 50 50 47 42 41 43 42 42 39 35 34 34 34 31 28 25 18 21 24 23 21 20 20 20 19 18 20 22 24 23 23 20 20 21 22 24 25 25 26 27 28 29 30 30 31 30 30 30
47 50 52 52 47 45 46 46 45 40 38 37 36 36 35 32 29 21 22 26 25 24 22 23 23 26 23 22 23 24 22 22 19 23 23 25 26 27 28 30 30 30 31 31 31 31 31 30 30
47 50 52 53 52 49 49 49 47 45 42 39 38 38 38 36 31 22 27 29 26 26 26 27 27 26 28 25 22 24 25 25 24 23 25 28 28 29 31 32 33 33 33 32 33 32 31 31 31
49 50 54 53 55 52 52 48 47 47 43 42 41 39 39 38 30 27 28 33 35 31 30 26 28 32 32 28 27 27 26 27 28 27 29 30 32 32 33 33 33 34 34 34 33 33 32 32 32
56 56 54 55 57 55 55 51 49 48 46 44 42 41 37 37 32 33 34 39 33 32 27 25 25 24 27 26 27 28 27 28 29 29 32 33 32 33 34 35 35 34 34 34 34 33 34 33 33
51 60 57 56 58 56 55 54 53 48 48 45 44 41 40 37 36 39 41 41 36 26 14 20 19 22 27 26 25 25 28 31 32 33 35 35 35 37 37 36 35 34 35 34 35 35 36 36 36
45 52 61 59 56 56 55 55 54 49 48 46 44 41 40 36 39 39 46 35 34 29 24 23 20 24 25 27 25 26 29 35 35 37 38 37 38 38 37 37 36 37 38 38 38 38 37 35 35
42 44 52 56 56 57 54 55 54 51 47 46 43 42 38 39 39 38 34 30 33 30 26 25 23 25 26 28 28 30 32 34 35 40 39 39 39 39 38 38 40 41 41 40 37 35 36 39 40
32 37 45 49 46 51 52 54 53 51 48 46 44 42 42 39 37 36 33 32 34 28 25 28 29 32 30 31 32 32 34 36 41 40 39 39 38 39 40 42 42 41 39 37 39 42 44 47 48
21 22 28 36 32 39 49 49 50 50 46 44 43 41 39 38 36 34 33 34 26 24 30 31 34 36 35 33 34 35 37 39 39 40 40 39 41 43 43 41 39 39 42 45 47 50 52 53 56
8 20 25 27 32 27 33 45 32 46 43 42 41 39 37 36 32 31 31 32 30 33 36 38 36 36 35 35 37 37 38 39 40 41 41 43 45 44 41 41 44 46 50 53 55 57 60 62 64
16 25 22 26 25 36 32 35 33 37 37 36 35 34 35 34 34 34 36 36 36 36 36 37 35 34 35 37 38 38 39 40 41 43 45 45 44 42 45 48 51 55 57 60 63 65 68 70 73
18 24 20 28 18 27 30 28 30 32 31 30 31 30 31 32 31 32 33 34 34 34 34 35 33 34 35 37 39 39 40 42 43 45 45 44 44 48 51 55 58 61 65 67 70 72 75 77 78
14 20 19 7 16 17 23 25 15 18 24 25 26 27 28 29 29 30 31 32 31 32 32 32 32 33 37 38 39 41 42 44 45 44 43 47 50 54 58 62 65 68 71 74 76 77 79 80 81
13 19 17 7 15 13 16 12 14 17 19 22 24 25 27 27 27 26 27 29 29 29 29 30 33 35 36 38 40 41 44 44 43 45 48 52 57 62 66 69 72 74 76 78 79 81 82 84 85
11 15 10 14 14 9 8 11 15 15 20 21 23 25 25 25 25 26 26 26 26 27 30 32 34 35 37 39 41 43 43 43 46 50 55 60 65 68 71 73 75 77 78 80 82 84 86 88 90
4 4 4 6 10 11 11 13 16 17 19 20 21 22 23 24 24 24 24 25 26 29 32 34 35 36 38 41 42 42 45 48 53 58 63 67 70 73 74 75 77 79 82 85 87 89 89 89 88
3 3 2 4 5 7 10 10 17 18 19 20 20 22 22 22 23 23 25 28 30 31 32 33 35 38 40 40 42 46 50 55 60 65 69 71 72 73 75 78 81 84 86 86 86 85 83 81 79

GFSSGP_500_spd_093.txt.gz
Wind_Speed
22 20 20 19 18 17 18 20 20 19 18 17 17 17 16 15 15 14 13 12 12 12 13 13 14 14 14 15 14 14 13 13 12 12 11 11 11 11 10 10 10 9 9 8 7 6 7 7 8
25 24 25 22 19 18 18 22 21 21 20 19 18 18 17 17 16 15 14 13 13 14 15 16 17 17 18 17 15 14 14 13 13 14 14 13 13 13 12 12 11 11 10 10 9 8 7 7 8
28 27 28 24 22 19 22 25 23 22 21 21 19 18 16 15 14 13 13 13 14 16 17 19 20 21 20 19 17 15 14 14 14 14 16 16 15 14 13 13 12 12 12 12 11 10 9 8 9
31 30 30 27 23 21 24 25 24 23 23 22 21 19 17 15 15 14 15 15 16 17 18 20 21 22 21 19 17 16 15 15 15 14 15 17 17 16 15 15 13 13 13 13 12 11 10 10 10
32 33 34 30 24 23 24 28 22 22 21 20 20 19 17 16 15 14 15 16 19 21 22 23 23 23 22 20 19 18 17 17 17 17 17 16 18 15 13 10 12 13 13 13 13 13 12 12 12
33 33 34 33 25 26 27 29 24 23 23 22 20 21 20 18 16 17 18 19 21 21 20 20 21 22 22 22 22 21 20 19 18 17 16 14 16 14 15 14 14 14 14 15 15 15 15 14 14
31 34 34 34 30 28 28 30 25 25 26 24 23 24 21 19 19 19 20 21 20 21 22 21 20 20 21 21 21 21 19 19 17 16 16 16 18 18 17 16 16 17 17 17 17 18 17 17 17
34 35 35 35 32 30 30 32 28 29 30 29 24 24 23 22 22 20 20 22 22 22 20 18 16 16 17 17 17 17 14 13 12 13 14 17 18 19 19 19 19 19 19 19 20 20 21 21 21
39 40 36 33 35 31 30 36 32 34 34 28 27 27 26 23 22 22 21 21 19 16 15 15 15 15 14 14 13 13 14 15 16 16 16 18 19 20 20 20 21 22 22 22 22 23 23 24 25
42 43 38 37 38 35 33 36 37 35 35 32 28 26 27 25 23 22 23 22 20 18 17 16 16 16 15 15 15 13 14 16 17 16 17 17 18 19 19 20 21 22 23 24 24 25 25 26 27
43 39 40 41 42 39 35 40 37 36 38 32 31 31 28 27 26 23 23 23 22 22 21 20 19 18 16 15 16 17 19 19 17 16 17 18 19 18 19 19 21 21 23 23 24 25 26 27 28
45 45 46 43 44 41 39 40 40 41 39 36 38 36 32 32 27 26 22 25 25 23 22 20 20 19 19 19 18 19 19 22 22 21 20 20 19 19 19 21 23 23 24 26 27 28 29 29 30
42 45 47 48 47 43 42 44 43 42 41 39 36 37 33 33 30 29 24 25 27 26 24 24 23 21 20 20 21 23 24 22 24 24 22 21 21 22 23 23 24 25 27 27 29 30 32 31 32
41 46 46 48 51 49 46 47 48 42 45 44 38 36 36 34 32 32 29 27 32 29 27 27 27 25 25 25 27 27 29 26 23 22 21 22 23 24 26 26 26 27 29 29 30 31 31 32 32
43 46 48 49 51 51 50 51 46 46 48 47 42 39 40 36 36 35 35 35 34 31 29 28 30 29 29 31 28 27 31 27 27 25 25 25 24 26 28 28 29 29 30 31 31 32 32 33 33
47 50 52 49 51 51 50 52 47 49 49 48 45 43 42 41 39 40 42 44 34 33 33 31 34 33 32 26 23 28 31 29 29 26 26 28 26 29 31 30 30 31 33 34 34 34 35 36 36
48 52 52 52 53 53 54 53 49 51 50 49 48 45 44 42 42 42 44 51 29 33 32 32 33 36 26 26 23 29 30 24 26 29 26 27 29 31 34 34 35 35 36 37 37 37 38 39 38
45 50 55 58 53 58 57 56 50 51 55 51 49 46 45 44 46 43 46 31 31 35 35 35 34 21 24 27 25 26 23 22 26 29 29 32 35 36 37 37 37 38 37 38 38 39 39 40 40
46 48 50 50 51 59 62 57 53 50 57 55 49 47 44 43 44 46 47 38 35 37 40 45 19 18 23 26 24 25 23 24 26 29 32 35 36 38 41 39 39 39 40 40 41 41 42 42 42
42 45 47 47 48 52 59 63 53 51 55 54 48 48 45 42 43 44 44 40 42 42 28 31 25 21 24 25 27 27 28 30 32 32 33 35 38 41 40 40 40 40 41 42 43 43 42 41 39
39 40 40 41 41 42 39 54 54 50 55 53 52 48 46 45 42 44 42 38 39 36 34 35 27 21 25 28 29 31 34 33 33 34 35 36 38 39 40 40 41 42 44 43 41 40 40 43 46
32 25 32 36 39 38 36 40 41 40 53 53 51 47 46 44 41 41 38 38 37 38 36 31 26 25 31 33 35 35 34 33 35 35 36 37 39 39 41 43 44 44 44 41 42 45 47 50 53
16 18 23 24 27 26 26 33 32 37 46 50 47 45 44 42 40 38 38 40 41 41 36 35 30 32 35 37 36 36 35 35 35 36 37 38 40 41 44 45 46 44 42 46 49 53 56 59 61
10 7 12 13 24 33 19 32 24 30 36 43 41 41 42 40 38 37 39 38 34 31 32 34 34 36 38 37 36 36 35 36 36 37 39 40 42 45 47 46 44 46 50 54 58 61 65 68 70
1 17 11 8 16 18 12 26 20 37 28 32 37 41 37 37 36 36 37 36 35 34 35 38 39 37 38 35 35 36 36 37 39 40 42 44 47 47 45 47 50 54 58 62 66 69 72 74 75
4 8 5 3 16 19 19 16 12 21 18 25 27 32 32 32 33 35 37 36 35 36 37 36 36 36 35 35 36 37 37 39 42 43 46 48 47 45 49 53 57 62 66 70 73 74 76 77 78
4 9 7 8 10 12 27 11 14 15 16 25 24 26 28 30 31 32 33 32 33 33 33 32 33 33 34 36 37 38 40 42 45 47 49 47 49 52 56 61 65 69 73 75 76 77 78 80 83
17 12 5 11 10 24 13 18 16 14 17 21 25 26 28 29 29 29 28 26 26 27 30 30 32 32 35 37 39 41 43 45 48 49 49 52 55 59 64 68 71 74 75 76 78 80 83 86 88
15 13 14 14 17 21 11 13 10 14 16 16 19 23 23 23 22 22 22 23 25 26 27 29 32 34 36 39 41 43 45 48 49 50 54 58 62 66 70 72 74 75 77 80 83 86 88 89 89
11 12 12 8 15 6 13 13 14 15 17 19 19 19 20 20 21 21 21 22 24 26 28 31 33 35 38 40 42 46 48 48 51 56 60 64 68 70 72 73 75 78 81 84 86 87 86 84 80

GFSSGP_500_spd_096.txt.gz
Wind_Speed
24 24 22 21 20 18 16 17 21 19 18 18 18 18 17 16 16 15 13 13 11 12 11 12 13 14 14 15 16 15 13 13 12 11 11 12 12 12 12 12 12 12 10 9 8 7 6 5 6
27 27 26 25 20 19 18 15 21 22 23 20 19 20 21 13 17 16 14 13 11 12 12 14 15 17 17 18 18 17 15 14 13 12 12 13 14 14 14 13 14 13 13 11 11 10 9 8 7
31 31 29 27 23 19 19 15 27 26 19 21 21 21 21 18 16 14 13 12 11 12 15 16 17 19 20 19 19 18 16 15 14 13 13 13 14 16 14 14 14 15 14 13 12 12 11 10 9
32 35 32 30 23 21 21 20 18 27 24 23 22 22 20 18 16 15 14 14 14 13 15 17 19 22 23 22 21 19 17 17 17 15 15 15 14 15 15 15 15 16 16 15 14 13 13 12 12
35 35 34 33 25 23 26 27 32 32 25 24 24 24 21 19 17 16 15 15 15 16 19 21 21 21 22 23 23 22 20 20 19 19 18 18 16 14 14 14 13 14 15 15 15 15 14 15 15
36 34 36 33 27 26 26 27 35 19 24 25 24 25 21 19 18 17 16 18 20 20 20 20 20 20 21 21 21 22 22 21 21 19 18 18 15 13 12 14 15 15 16 16 16 16 17 17 17
34 34 34 33 30 29 27 29 31 34 24 28 24 29 20 21 21 20 19 21 22 22 22 22 23 23 21 19 19 19 19 19 19 17 15 15 15 15 15 15 17 17 17 18 18 18 18 19 19
36 37 35 34 32 28 26 31 36 39 30 28 24 28 22 22 21 21 22 23 22 22 21 19 18 17 16 15 14 14 15 13 12 12 12 15 15 17 18 17 18 18 19 19 19 20 20 21 22
42 41 36 32 34 29 29 34 41 36 30 28 26 33 24 22 24 23 23 22 21 20 19 18 15 14 14 14 13 14 15 15 15 16 17 17 17 18 19 19 19 19 20 20 21 22 22 23 23
46 44 38 38 37 35 35 39 40 35 36 28 32 30 28 27 25 23 22 22 22 21 19 17 17 16 16 17 17 17 16 16 18 19 19 18 17 18 18 18 18 19 19 20 21 21 23 23 24
44 43 42 42 42 41 40 36 37 40 26 37 34 34 31 28 28 25 24 24 23 23 22 20 18 18 17 19 19 18 18 18 19 21 21 19 17 19 19 18 18 19 19 20 20 21 22 24 25
42 43 45 47 44 44 44 39 40 48 31 31 36 33 35 31 30 28 28 25 25 26 24 23 20 19 20 20 20 19 20 20 20 21 24 25 23 21 19 18 19 20 20 20 21 23 24 24 26
38 40 43 45 47 46 46 41 44 45 41 37 37 35 30 33 34 33 32 28 27 29 26 24 23 23 22 22 23 22 24 26 25 24 26 26 25 22 22 21 21 22 21 22 24 25 26 26 27
37 40 41 44 46 46 50 49 46 42 45 43 41 40 37 33 37 35 34 31 31 31 30 27 27 24 26 25 24 26 29 27 27 25 25 26 25 23 22 21 22 24 25 26 26 26 27 28 29
37 41 42 42 43 44 47 51 45 44 48 48 45 41 41 37 36 34 37 32 34 34 33 31 29 27 29 24 28 29 27 26 26 26 27 29 26 27 25 22 25 27 25 26 27 28 30 31 32
38 41 42 41 44 44 48 51 44 49 51 49 51 45 44 42 38 39 36 37 36 39 35 36 33 34 29 32 33 28 26 26 24 25 23 26 29 25 20 22 25 27 29 31 32 32 33 34 36
32 36 40 44 45 48 52 51 47 46 51 50 52 49 42 45 45 44 40 42 42 42 36 27 29 31 30 33 26 23 24 27 25 24 25 24 21 19 22 28 30 33 34 34 34 35 35 36 37
44 45 43 42 43 50 54 56 50 46 50 50 52 52 44 47 46 45 40 43 33 41 38 31 26 28 32 30 30 28 26 22 20 18 20 25 26 25 27 30 33 34 38 37 38 37 38 39 39
44 47 47 45 46 51 48 57 56 49 48 49 52 53 49 47 46 47 47 49 50 35 45 22 26 32 34 32 29 31 21 17 21 24 25 28 30 30 30 32 34 38 38 37 38 39 39 39 40
34 40 41 44 45 49 50 50 51 55 47 49 51 53 45 48 46 47 49 48 45 36 25 29 32 35 30 26 28 27 21 21 25 29 30 30 31 33 34 35 36 37 38 38 39 40 40 41 40
31 35 37 40 41 47 50 51 48 50 52 50 50 50 54 46 44 46 46 43 43 41 41 36 36 34 29 29 29 33 27 29 31 33 31 32 32 33 34 35 37 38 38 40 41 41 41 40 39
29 30 31 30 31 40 37 42 43 41 45 49 50 51 51 45 46 44 46 43 39 41 36 37 33 30 28 31 34 29 32 33 33 34 34 34 34 34 35 37 38 40 41 42 43 42 39 40 45
22 23 27 20 31 25 29 37 36 36 34 47 41 48 47 46 45 42 41 41 39 38 35 38 35 31 35 36 32 32 36 34 32 33 34 35 36 37 38 39 41 43 44 43 40 42 45 48 52
22 14 15 12 15 25 22 33 27 25 17 27 35 39 43 44 43 41 38 40 43 40 40 40 40 38 32 32 31 34 36 34 34 35 36 37 38 40 41 43 45 45 43 43 47 50 54 58 62
20 18 16 22 11 4 24 25 14 34 25 25 33 31 33 39 39 40 37 37 35 36 35 41 36 29 33 34 36 36 35 37 37 38 39 40 41 43 44 47 47 45 48 51 54 58 62 66 69
26 26 26 24 8 4 6 9 31 27 38 33 25 24 33 33 35 34 33 35 36 35 37 34 35 35 34 36 36 36 37 38 39 39 43 43 45 47 48 49 49 51 54 58 62 66 69 72 74
29 22 22 16 13 3 12 16 18 19 27 20 27 25 18 30 30 31 32 33 36 37 37 36 36 35 36 36 35 36 39 41 40 44 44 47 50 51 50 51 54 58 62 66 69 72 74 75 76
27 25 27 25 19 19 13 13 15 11 9 19 21 23 22 24 27 29 29 31 31 32 33 31 31 31 34 35 35 38 40 41 43 45 48 51 52 52 54 58 62 65 69 71 73 74 75 78 80
21 23 24 25 18 11 15 12 12 7 9 10 18 20 21 22 22 23 24 24 25 25 24 26 28 30 32 35 38 39 41 44 46 49 52 52 53 57 61 64 67 70 72 73 74 76 79 81 84
15 16 17 13 16 11 9 11 13 8 10 9 11 12 13 13 13 15 16 18 19 21 22 24 27 30 34 36 38 41 43 47 50 51 52 56 60 63 66 68 70 72 72 74 77 79 82 83 81

GFSSGP_500_spd_099.txt.gz
Wind_Speed
26 26 26 24 21 19 18 21 24 24 17 17 17 18 16 15 14 11 10 12 10 10 9 7 8 10 12 13 14 15 15 15 14 13 12 11 13 13 13 13 12 12 13 12 11 10 9 8 8
31 29 29 27 24 19 20 23 26 26 20 17 19 22 18 15 16 12 12 11 11 10 9 10 11 12 13 15 16 17 17 16 15 14 14 13 13 14 13 13 13 13 14 14 13 12 11 10 10
33 33 32 30 26 20 23 23 28 32 22 21 21 25 17 20 16 16 12 12 11 11 10 12 13 14 16 18 18 18 18 17 17 15 15 14 14 14 14 14 14 14 14 14 14 13 13 12 12
34 35 35 34 26 21 25 27 29 17 26 20 23 25 20 19 20 17 14 12 15 12 13 13 15 18 20 21 21 21 20 19 19 17 17 16 15 15 15 16 15 15 15 15 15 14 14 14 13
35 36 36 34 27 24 24 26 29 19 27 24 27 23 22 21 21 19 17 15 17 14 14 15 17 19 19 18 20 21 21 21 21 21 20 19 17 17 16 15 16 16 15 16 15 15 15 15 14
37 36 37 33 29 29 28 27 30 34 34 28 45 23 21 21 22 21 18 18 18 17 16 18 19 19 20 20 20 20 20 19 19 19 20 17 15 14 14 13 14 15 15 16 16 16 16 16 16
37 37 36 34 30 29 28 33 32 30 34 32 41 28 21 22 23 21 20 20 20 20 19 20 21 20 19 19 18 17 16 17 16 16 14 12 11 12 12 13 14 16 16 17 17 17 18 18 18
39 40 39 35 30 26 27 35 38 36 35 30 30 30 21 22 23 24 21 21 22 21 22 20 19 18 15 14 13 12 12 12 12 12 11 12 14 14 15 15 15 16 17 17 18 18 19 20 20
42 43 38 34 33 26 25 33 40 42 38 48 28 25 22 24 24 24 24 23 23 22 22 20 18 17 15 13 12 13 13 14 15 15 15 17 18 18 18 17 17 17 17 18 19 19 20 21 21
41 41 38 37 38 35 32 38 42 47 42 21 28 22 24 25 26 25 26 26 24 23 21 19 18 17 17 16 14 15 15 15 16 16 17 18 19 19 19 18 17 17 17 17 17 17 18 19 19
39 39 42 42 43 41 38 38 43 44 46 42 35 35 37 23 27 27 27 28 27 22 23 20 20 19 18 17 16 17 18 18 17 17 18 20 21 20 19 19 18 17 17 18 18 18 19 19 19
35 38 41 43 45 48 46 42 43 44 45 42 33 31 33 31 30 29 28 27 26 23 24 22 21 21 19 17 16 17 18 21 20 19 20 20 22 24 25 24 22 19 19 18 18 18 19 20 20
32 33 37 40 43 44 47 50 46 43 45 43 38 51 25 26 31 32 30 28 26 26 29 26 23 18 21 22 18 21 21 23 25 24 24 23 24 24 25 24 23 22 20 19 20 21 21 21 22
31 33 35 36 39 42 44 46 49 44 49 46 41 34 32 30 33 38 27 28 29 29 32 31 27 21 21 22 24 21 24 26 26 25 26 23 21 22 23 24 22 21 18 19 19 20 21 22 23
27 29 34 36 38 40 42 45 43 47 47 47 43 44 43 35 37 30 26 31 30 31 33 32 30 24 25 26 27 24 28 29 28 25 23 22 20 20 24 26 27 25 19 20 23 25 25 27 28
27 29 32 34 39 40 47 43 40 43 45 47 46 43 44 38 36 31 32 33 29 33 32 34 31 27 28 31 30 27 28 29 29 26 24 24 24 23 24 28 22 18 22 25 25 29 29 29 30
31 31 32 34 39 45 48 47 45 44 45 46 49 45 45 44 37 37 34 39 35 34 34 35 32 30 31 31 29 24 23 25 29 27 24 17 17 20 19 19 19 23 27 28 29 31 33 32 33
37 40 41 41 41 46 45 50 48 47 47 47 43 48 49 47 40 40 41 41 42 39 37 37 36 37 36 25 26 28 26 28 25 25 18 14 18 22 23 24 24 30 30 32 33 35 36 36 37
35 36 37 38 41 46 48 48 48 47 48 47 46 48 50 49 43 41 43 43 41 41 30 46 32 44 24 23 18 22 24 24 31 24 20 18 21 26 28 29 31 32 33 34 36 36 37 37 38
31 32 33 31 34 42 44 48 45 44 44 47 46 45 47 45 46 46 46 44 41 42 41 34 40 30 22 25 22 21 21 30 32 26 24 22 26 29 29 31 33 34 35 37 38 39 38 38 38
22 28 29 33 34 37 39 45 46 42 43 42 46 44 47 47 46 48 52 46 42 42 39 38 33 32 32 32 26 28 23 32 32 22 27 27 28 30 32 33 34 35 36 37 37 37 39 41 41
22 25 25 24 28 27 29 39 39 38 40 41 39 46 47 44 45 52 40 41 43 38 37 37 33 30 35 28 28 30 28 38 27 25 27 27 29 32 33 35 35 35 36 37 39 40 41 41 39
29 27 27 28 21 21 17 30 29 35 36 38 37 45 46 45 44 40 45 41 43 40 42 37 38 33 35 30 30 35 38 36 20 27 30 30 32 33 36 35 37 38 39 40 41 43 42 40 43
31 30 31 31 25 11 9 18 19 28 28 32 34 43 46 43 41 41 39 39 41 39 34 31 33 35 38 36 35 38 29 27 29 34 34 33 34 37 36 38 41 41 43 44 45 44 44 47 50
31 37 40 33 15 11 1 8 14 24 30 30 27 36 43 36 33 37 33 34 38 35 32 33 36 36 39 38 31 30 35 34 34 33 35 37 39 38 41 43 43 46 48 48 46 48 51 55 59
35 41 44 25 27 19 11 13 16 26 22 25 26 35 37 35 35 33 34 34 33 33 32 33 31 37 26 30 35 33 37 37 35 36 38 39 41 43 45 46 49 50 50 50 53 56 60 63 66
28 36 37 23 20 26 28 28 15 17 18 17 26 35 37 28 26 32 34 30 32 32 33 31 34 37 36 35 33 33 34 37 36 38 40 43 43 47 49 52 51 51 53 57 60 63 66 67 70
27 19 33 20 14 19 24 23 24 20 13 16 17 24 25 27 29 27 28 28 30 29 30 32 36 36 34 31 31 34 36 37 40 41 45 44 48 51 53 53 55 58 61 65 67 69 71 72 73
18 21 27 25 17 12 16 20 18 18 11 8 12 8 10 15 18 23 25 26 28 29 29 30 28 28 28 31 32 34 37 40 43 44 45 49 53 55 55 59 63 66 69 71 72 74 75 75 76
19 18 17 20 21 14 13 13 13 13 11 9 3 2 2 8 14 16 18 19 19 19 20 21 24 26 28 30 33 37 40 41 43 46 50 52 55 57 61 65 68 71 73 74 75 75 75 76 76

GFSSGP_500_spd_102.txt.gz
Wind_Speed
26 26 26 26 25 22 22 24 25 26 22 20 22 21 18 16 13 12 12 12 12 11 10 9 8 8 8 10 12 12 13 14 13 13 13 12 12 13 13 14 14 14 14 14 15 13 11 9 9
29 29 30 29 27 24 23 27 28 29 26 24 24 22 17 16 16 14 16 12 13 13 12 10 9 10 10 11 13 15 16 15 15 15 15 14 14 13 13 15 15 15 15 15 15 15 13 11 11
33 31 32 32 29 22 23 29 30 30 28 27 26 24 19 18 17 16 17 15 15 13 12 12 11 11 12 12 15 16 18 19 17 17 16 15 15 15 15 15 16 16 16 16 16 16 14 13 12
35 35 34 33 28 25 27 29 30 33 31 30 29 25 21 20 19 17 18 18 15 14 14 14 13 12 13 15 15 14 16 18 19 19 18 18 18 17 17 16 16 18 18 17 17 17 15 13 13
37 37 38 33 28 26 28 33 34 34 30 28 28 23 22 23 20 18 19 21 17 18 16 15 15 14 15 18 18 16 17 18 19 19 20 21 21 20 18 18 18 18 18 18 18 17 15 13 14
40 39 39 35 27 28 29 36 36 36 33 32 32 29 19 24 21 20 22 24 20 20 18 16 16 17 18 20 19 18 17 18 17 17 17 18 18 16 15 15 14 15 16 16 16 17 17 15 15
41 40 39 35 31 29 28 34 39 36 37 37 43 33 29 33 25 22 22 24 22 20 18 18 19 20 20 20 19 18 16 14 14 14 14 14 12 11 11 12 13 15 16 17 18 19 19 18 17
42 42 40 37 32 27 30 37 40 40 43 36 35 42 31 40 32 24 24 25 22 21 19 19 20 21 19 18 17 15 13 10 9 10 11 11 12 13 14 15 15 16 17 17 18 19 19 20 20
43 44 41 37 36 32 31 38 42 43 45 44 40 37 34 37 30 26 25 25 24 23 22 22 21 19 18 16 17 14 13 13 13 13 13 14 15 16 17 18 18 17 17 18 18 19 20 20 21
42 42 41 38 39 38 32 39 43 45 45 43 40 34 32 43 39 31 26 28 26 25 24 22 20 19 18 16 18 17 15 15 15 14 15 16 16 18 18 19 19 18 18 18 18 18 18 19 19
35 37 42 41 41 41 39 39 43 46 45 41 44 35 26 27 37 30 32 30 30 25 23 22 19 16 17 18 18 17 17 17 17 17 16 17 17 18 20 20 20 20 20 20 19 19 19 19 19
30 32 37 39 41 42 42 39 44 45 45 43 41 36 46 30 25 38 31 27 27 28 26 22 19 17 16 18 19 19 17 19 19 20 21 20 21 23 23 23 23 23 23 22 21 21 19 20 20
30 32 35 37 38 40 41 41 41 43 47 48 44 39 35 33 34 28 38 29 28 23 23 23 22 18 16 18 20 22 20 21 22 23 23 24 25 24 25 26 25 24 24 22 21 20 21 22 21
27 30 34 35 34 34 38 39 41 48 47 47 43 42 39 37 36 44 35 26 27 25 25 26 26 22 18 20 22 24 24 23 24 24 25 25 24 23 24 24 24 24 24 23 21 18 18 19 20
26 27 31 34 37 38 41 38 40 42 47 49 49 41 42 35 37 33 25 19 19 27 28 27 28 25 20 21 24 27 26 26 26 27 28 28 25 24 22 22 18 25 27 27 23 20 22 24 25
24 26 29 32 35 38 39 39 39 41 44 47 48 50 44 40 38 38 29 22 18 26 29 33 29 27 24 24 28 30 28 29 25 25 21 21 24 25 26 24 22 17 26 19 19 25 26 28 29
28 28 27 29 35 38 39 42 39 44 46 47 46 46 51 43 35 39 33 27 29 32 35 32 26 26 27 27 29 32 31 25 24 24 28 27 26 24 20 20 19 17 17 19 25 28 30 34 35
27 30 33 37 40 44 41 43 42 40 45 45 46 47 46 47 45 34 36 34 36 38 34 26 25 26 30 30 26 28 27 23 22 22 20 24 24 20 21 21 20 22 22 24 28 31 33 33 36
20 21 24 31 35 41 46 49 48 44 43 43 45 46 48 44 39 42 38 41 41 41 32 24 31 31 39 22 27 33 27 24 26 27 23 23 26 22 26 23 26 26 26 28 30 32 34 34 36
17 17 21 20 29 37 40 42 48 48 47 44 41 44 44 42 41 41 42 41 41 38 36 31 31 34 35 22 24 26 30 24 26 29 32 27 30 24 23 26 27 30 31 32 33 35 36 38 39
19 20 18 18 24 28 32 38 45 45 47 46 43 43 45 42 41 42 42 43 41 41 35 36 33 34 24 29 29 28 29 31 31 31 31 30 26 21 25 26 27 30 32 35 36 37 38 40 41
19 21 23 23 24 17 30 38 35 44 44 45 44 41 46 45 43 42 43 42 42 38 37 39 33 29 30 27 28 33 29 30 33 30 38 25 14 20 23 28 31 31 35 37 38 39 41 43 45
25 19 18 17 22 19 22 31 18 35 41 44 43 38 43 47 44 41 44 43 44 29 27 33 32 32 31 35 34 32 31 32 32 38 26 20 19 23 27 29 31 34 37 39 41 43 44 45 47
29 29 25 27 26 19 22 17 12 28 35 38 40 37 39 45 44 42 43 37 32 37 45 32 34 30 43 27 33 32 30 36 21 28 24 24 28 29 32 33 34 37 39 42 43 45 48 49 48
27 32 27 32 37 29 19 13 3 18 25 27 28 34 37 42 45 40 36 32 32 34 33 35 33 37 31 24 30 38 35 34 24 24 26 30 33 34 36 38 40 41 43 45 48 50 51 50 51
26 33 28 28 30 28 26 15 5 11 18 24 26 32 38 41 42 37 35 36 32 31 32 33 31 26 25 31 37 39 28 28 30 34 34 35 35 39 39 43 45 46 48 51 53 53 54 57 60
22 27 27 24 29 30 29 14 8 3 7 17 23 32 36 36 33 32 29 28 31 28 28 27 27 26 28 36 36 33 32 28 32 33 33 36 41 42 45 47 48 51 54 55 56 59 62 66 69
18 21 23 25 26 27 23 16 23 21 7 4 23 30 28 29 25 25 26 26 26 28 31 28 28 29 33 36 37 34 31 32 33 33 36 40 44 46 48 49 53 54 56 60 64 67 70 72 74
19 19 24 22 23 23 21 22 21 27 28 22 14 18 29 24 25 25 29 29 25 27 27 27 29 31 32 34 32 32 32 33 35 38 41 43 46 48 51 52 55 59 63 67 69 72 75 77 78
24 17 18 21 19 19 19 17 20 21 23 23 22 18 7 25 25 23 23 20 18 19 21 25 26 26 27 28 28 30 32 36 39 40 43 46 48 50 54 58 62 66 69 73 76 79 81 82 81

GFSSGP_500_spd_105.txt.gz
Wind_Speed
26 28 29 27 27 24 21 22 25 27 26 24 25 23 21 21 19 15 15 15 14 13 12 11 11 9 8 8 8 10 12 13 13 12 12 12 13 14 14 14 15 15 15 14 14 14 14 12 13
30 30 30 32 29 25 23 27 30 29 26 27 28 24 24 23 22 19 17 16 16 14 13 12 12 10 10 10 9 11 13 14 15 14 13 13 14 14 14 15 16 16 16 15 14 15 15 15 15
35 34 33 33 32 24 24 30 33 29 28 31 30 26 25 25 25 21 17 16 16 16 15 14 13 12 11 10 11 13 14 15 15 16 16 15 15 16 16 16 16 16 17 17 15 16 16 17 16
38 37 37 36 29 25 25 33 34 32 32 34 34 28 24 26 25 22 19 17 17 17 16 15 14 13 12 12 13 15 15 15 17 17 18 18 17 17 19 19 18 18 18 18 17 16 17 17 17
40 41 41 38 30 24 27 35 36 34 37 37 34 31 26 27 25 25 24 18 19 18 18 17 16 15 14 14 15 17 18 17 17 18 18 18 18 18 19 20 19 19 19 17 17 15 16 17 16
44 42 42 40 30 25 31 37 40 38 34 37 36 33 26 27 25 26 28 21 21 21 20 19 18 17 17 16 18 19 19 19 18 16 16 16 17 17 15 15 16 16 16 16 16 14 16 17 16
47 45 43 40 34 30 34 40 41 43 42 36 39 35 27 28 27 23 29 25 23 23 22 21 20 18 18 18 19 19 19 18 17 13 12 11 10 10 10 11 12 13 15 16 17 17 19 19 19
44 48 46 42 38 34 33 39 45 44 44 41 39 37 33 29 30 30 29 32 25 23 23 21 19 18 17 17 18 17 17 17 15 11 10 11 11 10 12 13 14 14 15 16 17 18 19 19 20
44 46 47 43 41 38 33 38 43 46 46 45 44 39 38 23 30 31 36 37 27 25 23 21 20 19 17 17 18 17 18 17 16 15 13 12 12 14 14 14 15 15 15 16 17 17 18 19 20
37 39 42 44 41 41 38 39 43 47 49 46 45 39 40 30 32 31 43 38 33 30 25 21 19 19 17 18 17 18 19 20 17 17 16 16 15 15 16 17 16 17 17 17 18 19 19 20 20
31 33 36 41 42 42 41 40 43 48 48 47 43 42 39 39 26 31 33 40 37 32 27 23 20 18 17 18 17 19 20 19 17 18 19 17 17 18 17 19 20 20 20 20 21 21 21 21 21
27 30 34 35 36 39 41 39 43 46 46 47 43 41 40 36 33 34 51 65 43 36 31 25 23 20 18 17 16 19 19 20 17 19 21 20 21 22 22 22 23 24 25 23 23 23 23 23 22
24 27 32 36 33 34 37 36 38 43 48 48 47 44 41 35 38 34 33 32 45 47 31 27 23 20 20 17 17 19 19 20 19 21 24 23 23 23 23 23 25 25 24 25 25 24 24 24 24
22 23 27 33 37 36 35 37 40 46 48 49 49 46 42 38 35 32 32 35 45 45 31 27 25 22 21 18 19 20 19 21 23 23 26 26 25 26 26 24 24 26 26 25 24 25 23 22 20
23 21 25 29 31 34 35 35 34 38 49 49 46 45 43 40 37 36 33 39 37 34 35 31 28 22 21 22 22 20 21 22 25 27 25 27 27 26 26 25 25 26 25 23 26 25 24 23 24
25 26 26 27 30 31 30 32 34 37 39 47 53 55 52 43 40 36 33 28 27 35 30 29 27 23 24 25 24 24 23 25 26 26 30 26 24 23 24 25 26 28 27 25 23 27 23 26 30
24 23 24 28 30 32 35 34 33 35 38 40 45 49 50 52 52 43 35 33 30 20 22 33 32 29 30 29 27 26 28 26 28 29 29 28 24 22 21 22 21 21 22 20 17 22 24 27 29
13 20 24 27 31 35 38 39 36 36 37 39 43 44 44 47 48 47 40 37 34 28 30 31 36 31 33 30 25 23 32 27 24 25 26 27 26 24 25 23 21 20 20 22 23 25 27 30 32
20 14 13 15 21 26 34 42 45 44 41 40 42 45 43 40 41 46 42 39 34 36 36 33 32 32 27 18 20 29 30 25 22 25 27 27 27 26 24 28 26 29 27 26 26 26 28 31 33
11 9 16 18 25 26 28 30 40 46 47 46 44 46 46 42 38 37 42 40 41 36 40 37 28 30 15 22 25 32 25 28 28 27 25 29 27 36 26 28 27 26 26 28 30 30 31 33 36
24 23 19 23 24 25 30 33 33 36 46 47 52 47 47 46 39 36 34 38 37 38 39 38 33 29 26 28 31 28 25 30 29 26 26 30 28 29 34 31 28 25 26 27 31 32 34 37 39
22 21 22 27 29 22 24 30 25 37 42 49 49 50 47 46 43 38 34 38 39 38 38 40 38 31 27 34 30 29 29 28 22 26 31 30 30 34 20 21 22 23 26 29 33 35 38 40 42
27 21 23 32 33 30 18 22 27 29 31 41 45 50 49 44 43 41 37 36 38 39 40 41 39 37 36 35 30 34 31 27 32 33 41 35 34 22 11 16 20 24 29 33 36 39 41 44 45
26 22 23 29 35 33 20 22 15 10 13 27 40 44 44 43 43 42 38 37 41 39 33 28 28 34 35 32 30 29 24 32 40 32 35 17 15 19 18 19 25 29 34 36 39 43 45 47 49
21 22 26 32 38 31 23 23 14 7 4 17 31 38 38 37 42 41 36 35 36 29 27 34 32 25 28 28 39 34 33 35 42 31 21 22 19 21 26 28 29 35 39 41 45 49 47 50 54
24 27 27 28 31 31 34 20 14 10 4 16 26 36 33 31 36 39 36 34 35 33 33 32 29 27 26 37 38 35 30 33 27 26 27 27 28 29 30 35 38 40 43 46 49 50 51 53 55
22 23 22 21 25 30 35 32 24 8 8 14 24 33 35 33 33 35 37 32 31 30 28 26 29 27 33 22 33 22 29 36 29 27 25 25 28 31 37 40 42 45 47 50 51 52 57 60 64
19 20 19 20 24 25 27 28 29 36 9 13 17 26 34 32 27 25 31 32 30 26 28 25 31 31 18 24 23 27 30 31 29 27 28 30 33 36 39 42 45 48 49 52 56 60 63 65 68
18 22 23 20 24 21 24 28 27 26 30 9 6 20 25 25 22 22 22 20 26 29 27 32 22 20 25 28 31 34 32 30 29 29 32 35 37 39 42 45 47 50 55 58 61 63 66 69 73
23 24 21 18 19 22 19 23 24 28 22 24 19 20 21 22 25 23 23 25 22 27 26 27 23 21 24 27 27 28 28 30 31 35 37 39 41 44 45 48 53 56 59 61 64 68 71 74 76

GFSSGP_500_spd_108.txt.gz
Wind_Speed
27 28 29 29 29 26 23 25 27 28 25 24 24 21 23 23 23 22 20 19 18 15 14 12 10 9 8 8 9 8 9 10 10 10 10 11 11 12 12 11 10 12 13 14 14 14 14 14 12
31 32 31 32 31 26 24 28 30 31 26 27 27 24 23 24 24 21 22 21 18 17 15 15 13 11 10 9 9 9 11 11 11 12 12 12 12 12 12 12 11 11 13 15 14 15 15 15 14
35 34 35 35 32 27 22 30 33 34 30 31 30 28 24 24 25 24 24 23 21 18 16 16 15 13 12 10 9 10 12 13 13 13 14 14 13 13 15 15 14 13 14 15 15 16 15 14 15
36 37 38 39 33 27 27 32 35 36 35 35 34 31 26 25 26 25 25 24 23 20 17 17 16 15 13 12 11 12 13 14 16 15 15 15 15 15 15 16 18 17 16 17 16 16 16 14 14
41 41 41 39 33 30 28 34 38 37 38 38 37 34 28 27 27 27 26 25 24 22 19 17 18 16 15 14 13 14 16 16 17 17 16 15 14 15 16 16 16 16 15 15 15 16 15 13 14
43 43 44 43 34 33 29 36 41 42 41 41 37 37 33 29 28 27 28 25 24 23 21 20 20 19 17 16 16 16 17 17 17 19 17 15 15 14 13 12 12 11 10 11 13 14 14 14 14
46 45 44 44 39 36 35 36 42 43 42 38 37 37 38 30 30 29 28 26 25 24 24 23 22 20 19 18 17 17 18 18 17 17 15 13 11 9 8 8 8 8 9 10 12 13 15 16 16
40 44 45 45 44 39 39 37 44 45 42 43 43 36 31 30 30 30 29 26 25 25 27 25 23 21 20 19 18 17 18 19 15 15 13 13 13 11 10 10 12 13 12 11 12 13 14 15 16
33 37 39 43 45 43 41 39 42 48 47 47 45 43 35 33 33 31 28 28 26 27 28 28 25 23 21 20 18 17 18 18 17 15 14 14 14 13 13 15 14 15 14 13 13 13 13 14 15
28 31 34 37 41 43 44 41 42 48 49 48 49 48 44 33 34 30 30 30 30 32 34 32 30 27 22 20 18 18 19 19 19 18 16 16 15 13 12 15 15 16 17 17 18 17 17 17 16
25 25 29 33 36 38 39 42 41 48 49 48 49 49 42 41 33 27 35 30 31 35 35 35 32 28 23 21 19 19 19 19 18 17 15 17 16 16 15 16 18 20 21 20 21 22 21 20 19
24 24 26 29 34 35 35 38 40 43 49 49 48 50 43 38 40 35 39 26 35 37 37 39 33 28 24 21 20 20 18 19 17 17 16 18 18 19 21 19 21 22 22 23 22 23 23 22 21
25 23 25 27 31 34 32 32 38 40 47 50 49 48 44 40 39 36 33 35 31 28 33 38 33 29 26 24 22 21 18 18 18 18 17 19 20 20 23 22 22 24 24 23 22 22 22 23 23
23 22 24 26 27 28 30 30 30 34 42 49 51 50 46 42 39 36 31 36 35 31 33 35 44 39 29 25 26 23 19 20 20 19 19 21 23 25 26 26 27 27 25 24 23 23 23 24 24
24 25 28 28 27 25 26 27 29 32 36 43 50 52 50 46 39 38 38 35 34 22 27 39 45 38 31 29 27 25 23 23 24 22 23 23 23 26 26 23 24 26 25 25 24 24 25 26 26
22 23 24 24 28 30 26 24 26 32 34 38 44 52 51 46 43 38 37 37 34 27 29 37 47 37 30 28 30 28 26 26 25 25 25 25 24 26 25 26 26 27 26 26 26 26 27 26 29
21 20 22 25 27 29 31 25 26 30 33 38 40 44 51 52 40 36 37 37 35 34 24 30 36 32 32 34 32 29 25 26 28 28 27 27 27 26 25 23 22 23 23 25 25 25 25 23 26
19 21 23 23 23 28 29 32 31 31 34 35 39 42 43 49 50 44 43 41 33 31 27 27 38 35 38 42 33 28 30 29 28 28 26 27 26 23 25 28 27 25 26 25 24 24 25 26 27
26 21 22 24 30 32 31 27 29 37 39 39 41 42 42 42 42 46 44 44 48 39 37 34 28 31 36 36 35 31 34 31 29 27 29 30 28 30 28 27 28 26 30 28 28 30 32 29 28
25 21 13 11 19 26 24 25 31 35 38 44 45 44 44 43 40 39 40 40 40 37 39 44 31 34 35 31 39 27 25 28 26 29 28 30 34 32 32 28 29 37 33 33 32 30 29 28 29
23 27 23 24 22 21 22 21 28 37 43 43 47 48 47 46 42 39 36 33 31 31 32 34 35 33 33 28 22 23 21 25 29 31 32 34 35 38 31 32 34 32 36 33 30 27 27 29 31
22 25 26 28 29 26 24 18 21 24 31 40 40 47 50 47 43 39 38 32 30 36 36 40 40 39 39 27 28 28 29 24 33 32 35 41 41 44 38 37 32 27 24 24 25 26 28 32 34
21 25 27 27 28 29 25 17 18 20 15 22 36 38 47 48 42 38 37 34 32 35 39 37 40 39 38 31 22 25 26 30 34 32 34 39 41 32 36 31 26 16 19 21 24 29 33 36 38
21 23 23 25 30 35 32 20 19 17 16 13 20 31 40 44 42 36 37 36 34 33 37 40 37 31 29 25 30 24 38 36 38 27 31 31 20 20 25 12 14 16 19 22 29 34 36 37 41
24 20 20 28 31 33 29 20 17 17 15 15 8 24 35 39 41 37 37 36 34 32 31 32 34 27 23 28 22 34 33 53 38 30 36 26 22 11 14 20 22 25 29 33 36 38 40 44 47
25 27 28 30 26 29 30 26 16 15 7 7 6 23 30 37 37 35 33 34 34 32 32 33 29 27 30 25 25 30 37 39 31 38 23 20 17 24 23 22 26 33 36 40 42 43 45 48 48
24 24 23 25 23 27 34 33 41 10 9 6 9 18 27 34 33 32 30 32 31 27 24 26 28 28 27 26 29 41 45 32 24 36 28 29 27 20 22 25 32 35 38 40 44 45 46 49 54
23 22 23 26 26 26 28 35 34 32 6 7 8 16 24 27 27 24 22 25 23 25 29 31 30 26 27 24 32 22 15 18 20 20 16 19 19 22 27 31 35 37 40 42 45 49 53 56 59
23 23 26 24 23 24 24 29 31 31 28 8 9 15 20 23 20 18 21 28 24 26 30 26 28 30 31 46 21 22 24 20 18 19 21 23 25 28 31 34 37 39 43 48 51 54 57 60 63
22 23 23 23 22 23 22 22 25 28 30 19 9 12 16 17 16 14 14 17 25 20 22 24 27 27 34 26 24 21 20 21 22 24 26 27 29 32 35 37 42 46 48 51 55 59 63 67 70

GFSSGP_500_spd_111.txt.gz
Wind_Speed
30 30 30 30 30 27 24 25 28 27 27 26 27 24 24 25 23 24 22 21 20 18 14 13 12 10 9 7 6 4 3 5 6 8 8 8 7 7 6 7 7 9 10 12 11 11 10 10 11
29 30 32 33 32 28 26 28 30 31 28 29 28 26 26 26 25 23 23 24 21 20 17 15 14 14 12 11 8 6 5 6 7 9 10 11 10 9 7 7 9 10 11 13 13 12 11 11 11
33 33 33 35 35 28 25 30 34 34 31 31 31 30 28 27 26 24 24 23 23 21 19 16 16 16 15 14 10 8 7 8 10 10 11 12 12 12 11 9 10 11 11 13 14 14 13 12 11
35 36 37 38 33 32 28 31 36 38 35 35 35 33 31 28 27 26 23 24 24 22 21 19 18 19 18 16 13 11 10 11 12 12 13 13 13 13 12 12 13 13 13 14 14 14 13 13 12
38 39 40 39 35 29 33 30 37 39 37 38 38 37 34 30 28 27 24 24 25 23 21 21 21 20 19 18 16 14 14 14 13 13 14 14 13 13 12 12 12 12 12 11 11 10 11 10 10
40 42 42 40 37 34 36 32 37 41 42 40 40 38 36 32 29 28 27 24 25 24 23 23 23 22 22 20 19 18 17 16 15 14 14 14 13 14 12 10 8 8 7 7 7 8 10 10 10
41 44 44 44 41 40 40 36 36 40 42 43 43 39 37 37 33 31 27 25 26 25 25 25 25 24 24 23 21 20 19 17 16 15 15 15 13 12 9 8 7 6 7 6 7 9 10 11 12
36 40 40 39 40 40 40 40 39 42 43 44 45 40 37 37 37 35 29 26 26 26 26 26 26 26 25 25 24 22 20 18 16 17 15 16 14 12 10 9 7 10 9 9 9 11 11 12 13
28 30 28 29 32 35 39 39 43 43 46 46 45 43 39 36 30 33 30 29 29 26 26 27 26 26 27 27 26 24 21 19 18 18 16 16 15 14 12 10 9 10 10 10 10 11 12 13 14
21 24 26 27 29 31 31 36 41 45 45 47 47 47 41 40 47 33 33 29 23 27 26 25 25 26 28 28 27 25 22 20 19 19 19 18 16 15 14 12 11 12 13 14 14 13 14 14 15
19 21 24 25 24 27 29 30 35 44 46 48 49 50 48 46 40 40 38 30 17 27 25 26 27 28 30 31 29 27 23 21 20 21 19 17 16 16 15 15 16 17 17 17 17 16 17 18 17
22 23 26 26 25 25 27 28 29 35 45 49 50 49 49 46 40 36 23 28 35 31 28 26 29 30 32 31 29 30 25 22 22 21 20 18 18 17 16 18 17 19 19 19 20 19 19 19 19
25 24 23 24 25 25 27 28 28 30 38 45 49 49 48 45 43 39 39 36 35 29 26 31 31 29 30 30 35 31 27 24 23 23 21 20 18 18 18 18 19 22 22 23 23 22 21 21 21
27 22 20 21 24 26 24 24 27 31 34 39 45 48 49 45 41 38 38 41 36 34 32 31 37 31 32 33 34 31 27 27 27 25 22 23 22 21 22 22 22 24 25 24 24 26 24 23 22
26 18 21 24 25 26 27 24 23 28 34 36 40 45 49 46 42 38 40 39 34 32 32 38 26 38 40 37 38 33 33 31 29 27 25 25 24 25 24 23 25 25 22 22 24 27 25 26 24
26 24 19 20 23 27 27 24 25 26 30 35 37 41 45 47 42 42 39 40 38 33 30 29 30 27 45 42 44 41 33 34 31 29 27 27 27 28 26 26 25 24 25 25 26 27 26 27 27
22 24 24 24 25 23 23 21 24 29 29 33 37 37 40 45 44 40 38 40 42 40 33 30 27 30 35 39 39 39 35 35 33 31 30 29 28 29 28 29 28 26 24 21 22 24 27 26 25
17 20 23 22 24 23 26 23 21 24 31 33 36 39 39 40 44 42 38 38 40 38 39 37 30 29 34 32 47 40 36 37 34 32 32 32 29 29 30 30 28 28 27 26 23 26 26 25 26
18 24 16 18 22 23 24 22 24 29 29 36 38 41 42 41 40 43 41 38 37 38 36 34 31 31 31 42 43 38 34 35 35 37 38 32 31 32 33 32 31 29 29 28 27 28 29 28 28
21 24 23 19 22 23 19 19 22 26 30 34 40 44 44 44 42 40 38 42 41 37 36 35 31 32 33 48 42 34 34 38 40 39 41 38 36 35 34 36 36 35 34 32 33 35 33 32 31
21 21 25 26 29 27 21 21 20 21 28 32 37 42 47 46 43 40 37 39 43 41 39 38 43 41 38 39 36 37 35 41 42 37 36 39 37 37 40 41 37 35 36 37 39 36 39 34 32
19 22 24 26 29 30 22 24 17 21 22 23 30 35 44 49 44 41 39 37 39 39 39 39 35 37 40 38 32 41 30 26 31 36 34 39 38 40 50 43 38 43 38 37 35 34 25 22 26
23 22 25 25 24 25 28 28 24 21 19 17 21 20 37 46 46 39 39 38 36 37 37 37 38 34 34 34 32 26 26 31 32 32 32 46 36 39 42 37 39 34 37 40 31 18 22 25 32
24 24 21 23 23 30 33 40 27 22 20 12 13 14 25 37 43 39 36 39 37 36 38 36 37 33 34 29 30 27 29 28 36 41 39 45 53 43 40 30 30 17 12 13 16 21 28 33 34
25 22 23 24 28 30 22 36 32 18 21 22 12 6 22 30 36 38 33 35 38 36 37 37 38 36 39 34 32 24 22 34 43 39 36 42 36 27 20 15 7 10 16 17 24 29 33 36 39
26 24 24 23 24 25 29 35 25 23 22 19 10 7 22 27 30 35 32 33 35 35 34 35 36 37 38 37 32 29 29 32 37 39 35 34 24 16 20 18 18 18 19 21 32 36 39 42 44
26 25 23 21 24 26 30 34 34 15 17 16 14 8 15 20 24 29 28 31 34 34 34 33 32 32 32 30 32 29 36 35 40 39 35 36 18 12 18 17 17 16 28 36 38 37 40 42 44
26 25 23 25 25 25 27 32 40 20 17 16 13 13 12 16 20 25 24 25 30 32 33 32 29 29 30 30 34 29 32 21 20 16 14 16 16 13 15 17 20 25 29 35 38 39 42 46 48
23 22 24 24 26 27 28 31 32 30 17 16 12 12 10 13 17 17 17 18 20 26 30 28 29 29 30 36 34 34 31 37 29 16 13 12 14 16 19 22 26 30 32 36 40 43 46 49 52
23 23 22 22 24 24 24 27 28 28 25 14 10 7 8 9 9 8 11 17 21 24 10 23 24 22 29 28 25 25 24 21 16 12 13 15 17 19 23 25 28 32 36 39 42 47 50 54 57

GFSSGP_500_spd_114.txt.gz
Wind_Speed
26 27 30 32 30 30 29 29 31 30 31 30 29 28 27 27 27 28 26 24 22 20 18 15 14 13 12 10 9 6 5 2 2 2 3 4 4 5 5 6 6 7 7 6 6 7 7 8 8
27 29 30 31 34 32 27 31 34 35 33 32 31 30 29 29 29 28 26 26 24 22 20 18 17 16 15 13 12 9 7 4 4 5 6 6 6 7 8 8 8 8 8 7 7 7 8 9 8
30 31 32 34 33 31 31 29 36 37 36 34 34 33 31 29 30 29 27 27 27 25 22 20 19 18 18 17 15 12 9 7 7 6 8 9 9 9 11 11 10 11 10 9 9 9 8 8 8
32 34 36 36 33 31 33 31 36 39 39 38 38 36 35 31 30 30 27 27 28 27 24 22 20 20 19 19 17 15 13 11 10 9 9 10 11 11 11 13 12 13 12 12 12 11 10 9 7
36 38 40 39 36 34 34 34 34 39 40 39 39 39 38 34 31 31 29 28 28 28 26 25 23 22 21 20 21 19 16 14 13 12 12 11 12 12 12 12 13 13 13 10 10 9 8 8 6
40 40 41 41 39 38 39 39 37 38 41 40 40 40 39 36 34 33 31 28 28 28 27 26 25 24 23 23 23 21 19 17 16 15 12 12 12 12 12 13 11 9 8 5 5 5 4 4 6
39 40 40 40 40 42 41 40 39 40 41 43 41 41 39 38 36 34 34 29 29 28 28 27 26 26 25 25 25 24 22 20 19 17 14 13 13 12 11 11 10 8 7 6 5 4 5 5 5
30 32 33 34 35 37 37 40 40 43 43 43 43 43 41 39 39 36 34 29 27 28 30 29 27 27 27 27 26 25 24 22 22 19 16 14 14 13 13 11 11 9 9 8 8 8 7 8 9
21 22 24 25 27 29 31 33 37 43 45 43 43 43 42 41 39 38 32 33 29 29 30 31 30 29 28 26 26 26 25 25 23 21 18 16 16 16 15 13 13 13 11 9 9 9 10 11 11
22 26 24 23 25 27 28 29 32 38 44 44 44 45 45 43 40 40 33 34 38 37 31 33 32 30 29 27 26 26 26 26 24 23 20 18 18 18 18 15 14 14 14 13 13 12 13 14 13
22 25 25 25 24 24 24 23 26 31 39 45 45 47 48 47 43 41 43 41 28 27 30 32 32 31 28 27 26 26 27 27 26 24 22 20 19 19 19 18 17 17 18 15 16 15 16 16 16
18 21 27 27 25 26 25 24 23 26 31 39 44 46 48 48 47 44 45 44 26 33 23 30 29 27 27 27 28 28 28 28 27 25 23 21 21 22 22 20 20 20 19 18 17 17 18 19 19
25 24 21 19 22 22 23 24 25 27 29 33 41 44 46 48 49 46 45 38 30 37 28 28 26 29 30 30 30 30 30 28 28 28 24 25 24 24 23 22 22 21 21 21 21 22 22 23 23
26 25 19 16 18 20 23 25 25 26 30 32 35 41 44 46 48 47 43 43 35 34 28 34 32 25 33 33 32 32 31 31 33 30 27 27 25 26 25 24 24 24 24 24 25 25 25 25 24
25 23 23 19 17 19 23 24 24 27 26 32 35 37 42 44 47 48 42 41 38 41 41 26 35 32 31 35 35 36 35 36 35 32 30 28 27 27 26 27 26 26 26 26 26 25 26 26 26
22 25 27 25 19 17 18 15 23 27 31 29 35 38 39 42 43 44 43 40 40 42 41 44 33 33 30 38 40 42 38 36 35 33 32 31 30 29 29 29 29 29 28 26 27 28 29 29 27
19 18 26 22 22 20 15 12 20 24 30 32 33 39 38 39 41 43 43 42 43 41 45 45 33 35 36 31 36 39 42 43 40 37 38 35 33 31 31 32 32 31 32 31 30 30 28 28 26
17 16 19 21 19 22 22 21 22 27 27 29 34 36 40 40 39 42 43 44 42 41 41 36 31 34 35 36 33 34 42 43 46 43 39 35 35 36 35 34 35 34 33 32 31 30 30 27 27
21 19 17 21 24 24 22 19 20 21 28 29 33 38 40 40 39 39 42 44 44 43 41 40 37 34 33 29 35 37 36 42 44 44 41 37 37 38 37 36 34 35 35 33 31 33 35 33 31
22 21 20 20 22 26 25 20 24 24 23 28 33 36 41 40 42 39 40 43 44 44 40 35 35 39 35 35 31 35 41 44 49 49 43 37 38 41 42 40 39 40 38 34 34 33 36 36 35
22 20 21 23 24 24 28 23 29 23 22 23 24 33 38 43 41 41 40 43 45 43 40 39 38 36 33 34 35 35 42 46 46 42 41 40 41 44 44 41 44 40 40 40 38 36 38 40 39
20 20 20 24 24 28 25 30 27 21 21 21 21 20 32 39 44 42 41 42 45 47 41 40 38 38 38 36 39 43 35 48 44 41 39 43 46 43 40 45 42 47 43 42 41 38 41 39 38
20 19 19 19 24 25 27 32 27 23 19 18 14 17 25 30 40 44 40 42 45 47 45 43 41 42 38 36 28 32 41 37 40 42 40 39 45 46 49 54 47 44 44 49 43 41 43 38 35
20 20 20 21 24 29 31 34 28 22 20 18 13 17 23 29 40 42 39 40 42 45 48 48 47 45 39 37 38 37 36 35 26 39 35 34 36 39 50 44 44 41 35 34 29 18 15 17 24
22 18 20 22 24 25 29 35 30 24 24 20 15 5 9 21 30 36 36 36 39 39 42 46 46 42 38 37 37 29 25 26 26 32 38 40 34 37 41 50 43 32 22 18 13 16 17 23 30
23 23 22 22 23 26 29 35 24 25 25 23 18 13 11 18 24 31 34 33 35 35 36 40 42 41 42 41 31 27 31 32 30 34 32 36 35 39 27 24 28 27 18 14 20 26 26 26 35
24 23 22 19 23 25 29 33 24 32 25 21 17 18 16 15 20 27 32 30 33 34 33 35 36 39 41 41 38 33 30 29 31 25 21 26 21 17 8 6 14 22 20 16 21 28 39 40 41
24 23 22 23 23 26 28 30 31 27 22 18 19 13 14 14 16 23 28 27 29 33 34 32 32 34 33 35 33 33 31 31 22 20 30 21 19 12 16 15 10 13 18 28 30 34 35 43 44
22 21 22 22 22 24 26 28 30 29 21 19 16 18 14 16 17 21 24 22 26 29 32 31 29 26 26 28 28 32 33 31 30 36 24 13 12 10 10 13 14 21 28 27 31 32 36 42 46
19 20 21 20 21 20 21 25 26 26 23 15 14 14 18 14 13 12 12 11 18 23 28 31 30 24 24 27 30 35 39 30 25 14 8 9 12 14 17 19 21 24 27 30 34 37 41 46 50

GFSSGP_500_spd_117.txt.gz
Wind_Speed
23 25 27 29 31 33 29 31 33 33 33 37 32 29 30 31 33 32 28 28 26 23 21 19 17 16 15 13 12 11 9 7 5 3 2 3 4 6 6 6 6 5 5 5 5 5 5 6 6
26 26 27 30 31 33 30 33 34 36 39 34 34 33 31 34 32 32 29 30 27 26 24 22 20 18 17 16 15 13 11 8 6 4 3 4 5 6 8 9 9 8 7 6 6 6 6 6 6
28 31 33 33 32 32 30 25 35 38 38 37 36 36 37 36 30 34 31 30 30 28 27 25 23 21 19 19 18 16 14 11 8 5 4 5 7 8 9 10 11 10 10 9 9 9 8 7 7
32 34 36 37 36 33 35 30 36 37 38 39 40 38 38 36 33 34 33 32 30 30 29 27 25 24 22 21 21 20 17 14 11 8 7 7 8 10 10 10 11 11 11 12 12 12 10 9 8
36 39 40 42 41 38 37 40 41 35 37 39 38 39 43 38 34 33 33 31 30 30 29 29 27 25 24 23 23 21 20 18 14 12 10 9 9 10 11 10 10 10 12 12 12 10 8 7 7
39 40 42 41 41 42 40 33 40 40 38 39 42 36 43 38 38 34 34 32 31 30 30 30 29 28 26 25 24 23 22 20 18 15 14 12 11 11 11 10 10 8 9 9 7 6 6 4 5
33 34 36 37 37 39 37 35 39 39 42 34 41 40 42 41 41 36 35 33 31 30 30 31 31 29 28 27 24 24 24 23 21 18 16 15 12 11 12 11 9 8 8 8 8 6 5 5 5
27 26 23 23 26 31 35 38 39 38 41 45 44 35 44 40 43 40 36 32 30 30 30 30 31 31 30 29 26 26 25 24 22 21 19 18 15 13 13 12 11 11 10 11 10 9 9 9 9
23 23 23 25 27 28 30 31 30 33 38 42 42 42 43 22 39 40 37 33 32 31 31 31 31 32 32 30 29 28 26 25 24 23 21 19 17 15 14 15 15 13 13 14 12 12 12 12 13
18 20 23 25 29 28 27 29 26 28 31 38 43 44 46 49 41 40 39 36 33 35 34 30 33 34 33 32 31 29 27 26 25 24 22 21 19 18 17 17 18 17 15 15 14 15 15 16 16
19 22 24 23 30 30 28 27 28 27 30 35 41 44 47 47 44 43 41 40 36 35 40 36 36 37 35 33 32 30 29 27 26 24 24 23 21 20 18 18 21 19 18 17 17 18 18 18 18
24 26 24 25 27 25 26 27 28 28 25 31 37 40 42 43 44 45 44 42 40 46 42 40 38 37 38 35 33 30 29 28 27 24 25 24 22 21 21 21 23 21 21 20 19 19 20 19 19
27 26 27 24 19 16 22 24 25 28 29 28 31 37 38 42 44 45 46 46 43 50 42 25 29 39 39 35 34 32 30 29 28 26 25 25 24 23 23 23 24 23 23 22 22 22 22 23 23
26 24 25 25 24 16 19 22 25 26 30 29 32 33 36 38 43 46 47 46 46 51 30 42 32 33 40 38 34 32 31 31 29 26 26 26 27 26 24 25 26 25 24 24 24 25 26 26 26
21 20 22 26 24 16 16 20 25 29 31 31 33 35 37 38 39 45 47 48 48 42 34 29 39 35 36 32 32 31 33 33 32 31 29 27 28 28 26 27 26 27 26 27 28 27 27 26 26
20 19 22 26 24 22 18 17 24 25 28 31 35 36 36 38 38 41 46 49 48 46 41 41 34 42 36 33 30 32 35 35 35 34 33 31 30 29 29 29 29 28 29 30 30 28 27 28 28
22 18 19 20 19 19 20 20 24 25 26 25 32 38 37 37 39 38 44 47 47 42 41 45 49 48 39 35 34 35 35 37 38 38 38 34 33 32 30 31 31 31 31 32 31 31 32 32 32
18 17 19 20 22 24 24 22 22 23 24 28 29 33 38 38 38 40 39 45 45 43 47 51 47 44 44 40 35 34 31 37 37 37 39 41 41 39 35 36 35 35 34 33 33 33 32 33 33
18 18 18 21 24 23 22 23 20 22 26 27 28 34 37 41 39 39 34 42 44 52 55 50 41 43 40 53 34 27 34 31 35 39 42 42 43 47 41 38 37 37 34 34 34 34 36 35 36
20 20 19 22 20 23 24 23 30 27 30 24 21 29 39 39 38 37 38 40 47 55 48 35 42 33 29 24 25 27 36 33 35 36 42 46 46 47 42 38 38 38 39 39 38 38 38 37 37
20 18 18 21 24 23 29 32 35 31 29 21 23 22 29 40 40 39 38 39 48 51 43 43 23 32 36 26 34 31 31 29 28 33 42 43 45 49 46 39 42 41 41 43 38 42 41 40 39
19 20 20 20 22 24 27 30 29 26 24 23 20 22 24 31 41 40 37 40 45 48 49 37 40 40 36 39 38 37 38 36 34 37 31 47 48 46 41 40 42 44 40 40 40 45 44 50 48
20 19 19 20 21 24 31 32 22 23 21 24 25 21 18 23 33 37 38 38 40 45 45 44 50 26 40 36 36 36 35 36 37 39 42 35 44 47 47 45 45 43 47 46 40 48 41 43 39
20 20 18 18 20 24 29 28 28 27 23 21 18 19 16 21 19 30 35 34 38 41 45 53 48 34 37 39 39 38 37 39 35 33 34 30 41 45 45 47 50 43 46 44 45 47 43 37 24
21 20 18 22 21 22 26 35 29 26 24 21 19 14 2 9 20 24 32 33 35 38 46 53 49 45 32 44 31 39 25 25 33 30 31 30 30 29 34 38 40 42 39 44 45 43 34 23 17
18 20 22 20 19 21 27 32 27 25 26 23 24 17 6 4 10 24 25 33 34 37 41 45 46 39 39 37 41 35 27 31 30 30 33 29 27 24 28 24 37 41 39 32 30 23 17 18 24
18 20 21 17 19 22 29 32 31 27 26 22 16 18 19 16 16 26 29 30 29 33 35 39 41 43 42 43 42 41 38 30 35 26 19 15 18 17 15 19 9 8 23 27 17 18 15 23 27
17 19 17 22 22 23 20 27 31 25 22 23 18 13 13 16 18 25 26 24 24 28 32 33 33 33 34 36 39 38 45 28 23 24 20 22 17 8 13 21 12 7 11 16 13 22 27 32 33
15 15 17 17 19 19 19 23 27 28 19 20 20 19 13 14 15 18 17 17 18 22 26 29 29 26 27 28 29 33 33 27 27 28 29 28 21 6 7 7 10 13 16 22 20 22 26 30 35
15 14 15 16 16 17 16 22 24 26 20 18 16 16 18 16 16 14 11 11 13 17 20 24 26 25 24 26 27 24 24 29 33 18 8 10 7 8 12 12 13 15 16 18 22 27 31 34 38

GFSSGP_500_spd_120.txt.gz
Wind_Speed
19 21 23 24 25 25 24 26 30 34 31 36 33 29 30 33 33 33 29 28 26 24 22 20 18 17 17 15 14 14 12 10 9 7 5 4 3 3 3 4 5 5 5 5 5 4 5 6 6
22 24 25 28 28 29 24 27 27 33 32 39 34 32 30 35 35 33 30 28 28 27 25 24 22 20 19 18 17 16 14 12 10 8 6 4 3 3 4 5 7 7 7 7 6 6 7 7 5
24 26 29 31 31 31 28 27 24 22 38 39 34 35 35 41 35 33 35 32 30 30 28 27 26 24 22 21 20 18 17 14 12 9 7 5 4 4 6 6 7 7 8 8 9 8 9 9 8
26 29 32 34 35 36 33 24 27 34 40 37 36 37 39 40 36 34 37 33 33 30 30 29 28 27 25 23 22 21 19 17 15 13 9 7 5 6 6 7 7 7 8 9 9 9 11 12 11
29 32 36 37 38 39 38 33 30 38 42 35 39 39 42 40 39 36 37 35 34 30 31 31 30 29 28 26 25 23 23 20 18 16 12 9 8 8 7 8 8 7 7 7 8 9 9 10 9
31 33 33 32 33 37 39 31 30 37 38 48 42 43 43 39 39 39 39 36 34 32 32 32 31 32 29 28 27 26 25 23 21 19 16 12 12 10 9 9 8 7 5 5 5 6 5 5 4
29 26 25 25 25 28 31 26 35 25 43 18 38 34 34 43 43 45 40 38 36 32 30 33 32 32 31 29 28 26 25 25 23 21 18 15 14 13 12 10 9 8 7 6 5 6 6 7 6
22 23 22 23 22 23 25 29 35 40 46 45 36 39 40 43 43 43 42 39 36 35 30 33 32 32 32 31 29 28 27 26 24 22 20 18 17 16 13 12 11 10 9 9 9 9 9 10 10
23 21 21 23 24 25 30 30 31 33 36 34 34 42 53 24 23 42 37 42 39 36 33 32 32 32 33 32 31 30 30 28 26 25 22 21 20 18 16 13 14 13 12 13 13 13 13 12 12
20 18 22 25 25 28 29 32 30 31 29 28 33 40 52 45 41 39 40 48 40 37 34 32 33 33 33 33 33 33 32 30 28 27 25 23 19 18 18 16 15 16 15 15 15 15 16 15 15
21 23 26 27 25 24 28 28 27 28 28 28 30 37 42 48 49 52 36 39 33 38 35 33 34 34 35 34 35 34 34 33 30 29 26 23 21 18 19 18 16 18 16 17 17 18 18 18 18
27 29 28 27 24 24 22 19 22 25 26 28 28 34 38 42 44 42 39 37 47 35 46 33 37 39 38 35 36 35 35 34 33 31 27 23 23 19 20 19 18 20 18 18 20 20 20 20 20
24 25 25 23 19 24 20 17 20 24 25 29 31 29 34 38 39 38 40 40 41 47 27 29 36 36 40 34 37 37 35 36 35 32 27 24 24 20 21 21 20 21 20 20 22 21 22 21 22
24 22 20 18 18 22 17 18 20 22 25 28 30 30 32 35 37 37 40 44 45 44 40 42 41 44 38 40 38 36 37 37 36 31 28 27 25 21 21 22 23 22 22 22 23 22 23 24 25
24 21 20 16 18 18 15 17 17 20 26 30 31 33 33 36 36 36 40 43 46 45 42 43 45 43 42 45 43 36 39 39 36 34 30 28 29 25 24 23 24 23 23 23 23 24 25 26 26
17 21 23 24 19 20 18 19 21 22 21 26 28 33 36 37 38 37 36 41 45 48 47 49 49 51 50 41 38 34 36 39 36 34 32 30 31 29 26 24 25 25 23 25 26 26 27 28 28
26 24 21 20 21 20 22 22 22 21 20 18 24 27 34 37 37 38 37 37 44 48 50 48 43 40 36 33 29 34 41 39 36 34 33 31 32 30 30 27 27 26 26 28 29 28 29 28 31
20 21 20 19 20 20 20 20 19 20 23 22 23 25 34 37 38 39 36 38 40 46 49 43 37 37 35 39 36 36 39 35 33 33 35 34 33 32 31 31 31 33 34 32 31 31 29 30 28
20 19 20 21 19 22 22 22 23 22 22 22 25 25 30 38 41 43 41 35 37 41 46 45 42 39 45 41 42 37 33 33 35 32 38 35 33 34 36 35 38 37 40 34 33 32 31 31 32
20 20 21 23 23 22 23 27 31 27 23 24 24 23 23 33 42 41 37 32 36 40 46 49 48 43 49 52 42 37 42 37 36 32 30 33 33 34 37 39 38 43 40 35 34 34 35 35 35
19 18 18 20 21 21 26 32 32 30 33 29 22 24 22 24 32 40 39 36 35 39 48 53 52 54 40 41 45 42 45 38 32 31 32 31 33 35 37 40 43 42 43 40 38 36 36 31 32
19 20 19 19 19 22 27 31 28 26 28 32 33 26 21 22 23 31 36 34 35 39 48 54 52 44 44 36 35 34 35 43 27 31 31 28 31 32 29 37 41 43 42 37 38 39 39 35 37
17 18 17 18 20 22 27 27 24 26 24 24 24 23 24 17 18 24 32 33 38 41 46 49 51 47 36 28 35 36 36 32 30 35 34 37 33 36 37 36 39 41 40 40 41 42 44 39 45
17 16 17 15 19 24 26 28 27 27 28 25 29 27 17 11 13 17 28 34 36 37 37 38 38 41 47 24 32 30 26 32 31 29 33 35 36 33 36 34 39 38 36 36 39 46 44 40 42
17 18 18 19 18 18 23 32 29 27 25 28 29 26 13 6 10 13 25 32 32 33 32 31 38 40 44 31 17 9 20 29 26 32 34 36 32 36 35 30 27 35 40 38 38 37 43 46 43
17 16 18 20 19 15 23 32 31 26 29 29 26 24 14 8 15 13 19 27 29 30 28 27 34 40 38 42 45 35 12 28 32 20 17 25 23 20 18 26 24 30 26 30 38 41 41 36 21
16 16 18 17 18 20 25 31 33 26 27 27 27 21 19 13 15 13 15 23 24 24 24 24 28 26 29 32 32 28 28 30 32 21 18 16 14 14 12 10 12 19 14 17 23 20 11 17 20
14 15 14 15 19 20 18 23 28 23 23 26 29 20 18 18 15 17 13 18 18 18 20 19 21 21 21 26 25 29 30 27 29 27 22 17 23 21 17 11 16 11 6 5 12 22 18 19 23
13 13 14 15 15 16 15 18 24 22 23 20 23 24 18 14 17 15 13 14 15 16 16 17 16 18 19 20 18 20 18 20 25 19 20 25 24 17 14 11 7 9 9 11 13 16 16 20 21
16 14 14 15 14 14 14 19 18 21 20 20 17 19 15 14 15 12 9 6 8 10 12 14 16 17 19 19 19 20 18 19 21 24 20 16 9 9 9 11 13 13 13 14 15 15 20 23 26

GFSSGP_500_spd_123.txt.gz
Wind_Speed
15 18 17 18 20 19 18 20 26 30 31 28 31 26 29 30 30 31 30 25 24 25 24 22 20 18 17 16 16 14 14 13 12 10 9 7 6 4 4 4 4 5 5 5 6 5 4 5 5
18 20 20 22 24 24 20 25 28 30 34 35 35 31 28 34 34 35 30 28 26 27 27 25 23 22 20 19 18 16 15 13 13 11 10 8 6 5 4 5 6 6 6 6 6 6 6 5 6
21 22 24 27 27 29 28 27 32 31 31 33 35 36 33 37 36 35 33 31 30 29 30 30 28 26 24 22 21 19 17 16 15 13 11 8 6 3 4 6 6 7 8 7 7 7 7 7 7
23 25 26 29 31 32 34 29 31 33 34 31 33 31 36 37 36 35 34 35 34 31 31 31 31 29 27 25 23 22 20 19 18 16 13 10 7 5 5 7 7 7 7 7 7 7 7 8 8
24 27 28 29 29 31 34 35 28 30 34 35 31 34 37 38 41 38 35 36 34 33 34 34 34 32 31 29 26 24 23 22 21 18 16 13 10 8 7 6 8 9 8 8 7 7 6 6 6
25 27 26 24 25 25 27 29 38 40 39 34 33 41 42 38 40 42 39 38 35 35 36 36 35 34 32 31 29 27 25 25 24 22 19 17 14 12 9 6 7 8 8 7 7 5 3 2 3
25 25 25 26 22 19 21 25 31 37 40 41 41 43 39 45 32 36 43 42 39 37 37 37 36 36 34 34 32 29 27 27 26 25 23 20 17 15 10 10 9 8 8 8 7 7 4 4 3
26 25 25 24 22 19 21 23 27 32 30 33 50 30 50 22 35 38 47 46 44 41 38 36 36 36 35 34 33 30 28 28 28 27 26 23 20 16 12 13 11 10 10 9 9 9 8 7 7
26 25 24 24 22 23 22 20 25 32 35 33 32 41 41 45 39 41 43 48 37 35 39 37 35 35 35 35 34 33 31 30 30 28 26 25 21 19 14 15 13 12 13 12 13 12 12 11 11
27 27 26 25 25 26 23 21 22 31 34 32 32 36 39 43 46 51 29 42 49 42 37 36 35 34 34 34 34 34 33 33 32 30 28 25 23 22 17 16 14 14 14 15 15 14 13 13 12
28 26 28 31 31 29 26 24 25 26 27 28 27 31 34 38 45 50 56 58 14 36 33 37 36 35 34 35 35 35 35 34 33 31 29 26 24 23 18 17 16 15 15 16 16 14 16 15 15
27 29 25 23 26 24 20 20 19 20 16 22 24 26 34 34 38 39 43 37 33 30 24 48 39 37 35 35 34 35 35 35 35 33 30 27 27 24 20 18 18 17 17 17 17 17 18 17 15
26 27 24 22 20 17 18 18 12 17 17 22 25 25 30 32 33 32 40 37 41 43 33 24 31 35 43 38 32 34 33 34 35 35 31 29 28 25 22 20 20 18 18 17 18 18 19 19 15
25 26 23 22 18 17 15 14 12 12 15 21 24 24 29 33 35 27 30 34 38 37 42 45 31 28 28 35 36 37 35 36 35 35 31 30 28 26 24 23 22 20 20 20 19 19 19 21 18
24 24 21 17 18 17 18 21 20 17 14 16 21 24 28 31 36 34 27 31 36 38 39 21 33 41 33 25 23 35 34 36 34 35 32 32 28 28 27 26 24 23 22 21 21 20 21 21 20
20 24 25 25 20 18 15 16 18 18 16 17 19 20 26 32 35 36 34 33 35 37 42 46 34 32 31 29 30 29 39 36 34 34 34 31 29 29 29 29 25 24 24 22 22 22 22 22 22
25 24 24 24 18 17 18 18 17 16 17 18 19 20 22 29 33 36 37 37 37 38 42 42 38 38 34 34 29 37 31 39 39 38 35 32 32 31 30 30 28 26 27 24 26 24 25 25 25
22 23 21 20 18 21 21 18 20 19 23 21 19 23 24 24 29 34 39 39 38 37 38 39 39 42 42 32 25 28 37 43 43 39 34 32 32 31 31 30 30 29 30 28 28 31 29 28 27
21 22 20 22 20 18 21 25 23 24 21 16 20 22 25 27 30 37 36 40 41 37 37 39 42 43 41 39 35 31 33 37 36 36 34 36 34 33 34 32 33 31 32 34 34 33 35 32 30
19 21 20 22 22 18 22 27 31 29 26 21 16 18 20 24 25 36 40 38 40 39 38 38 41 45 48 44 42 41 39 41 38 37 37 37 35 36 35 34 33 34 38 36 38 36 37 34 31
19 19 19 19 22 22 24 27 25 24 23 24 22 22 21 20 23 27 34 38 36 39 38 37 40 47 49 50 34 40 46 46 41 37 33 37 38 35 33 33 34 36 35 35 40 36 36 34 35
20 20 21 21 20 21 24 30 23 24 24 26 25 25 28 24 21 24 28 34 35 37 35 37 40 45 42 41 40 39 37 40 37 35 33 33 35 35 34 30 30 31 30 36 38 38 41 36 32
17 19 21 21 19 19 23 27 23 27 27 28 27 30 21 13 16 21 25 28 33 35 35 37 38 40 42 46 49 47 31 42 38 36 30 29 30 36 32 33 29 32 35 34 37 38 35 35 35
15 17 19 19 19 18 22 26 25 28 30 29 30 27 20 4 8 13 18 23 31 34 32 35 33 35 40 41 39 41 35 37 33 36 35 27 26 27 38 39 40 35 36 38 33 33 31 32 35
14 16 18 19 21 17 21 24 27 25 29 35 28 26 16 12 9 11 14 21 27 28 25 28 25 26 30 31 36 37 18 33 30 23 25 27 28 30 25 37 38 34 38 35 33 33 33 36 38
16 15 17 19 20 18 19 25 29 28 31 33 29 25 14 10 13 10 9 16 20 20 18 18 17 17 20 26 30 50 28 16 12 20 23 25 22 29 15 19 23 23 28 30 30 31 35 39 37
17 16 16 18 19 20 20 24 25 29 27 29 30 24 15 11 13 11 7 13 11 10 10 11 11 9 12 14 22 28 20 19 14 12 13 11 7 6 9 11 13 16 20 25 27 29 29 26 20
15 17 16 16 17 20 20 19 20 23 25 26 27 23 17 11 14 13 11 11 10 7 5 7 7 6 4 6 8 11 15 13 14 14 20 8 6 12 17 15 16 18 20 20 16 13 15 16 18
15 16 16 15 16 16 16 15 17 23 24 21 23 21 19 13 8 9 9 5 4 2 2 3 5 4 3 3 3 6 8 7 8 15 12 12 15 15 12 13 17 20 23 19 16 16 17 19 21
12 13 14 16 15 15 15 15 16 17 20 20 18 18 18 13 11 9 9 6 2 2 1 2 3 2 2 4 6 7 9 9 11 14 16 15 12 12 10 15 17 17 16 15 16 17 18 20 21

GFSSGP_500_spd_126.txt.gz
Wind_Speed
14 13 16 17 18 17 17 22 25 27 28 31 31 31 28 28 27 29 27 25 21 25 24 23 21 20 19 18 16 15 14 14 12 11 10 9 9 7 6 5 5 6 5 6 6 6 6 6 6
16 17 20 21 22 21 20 27 28 29 31 32 32 34 33 31 31 30 29 30 26 26 26 26 25 23 22 20 19 18 16 16 14 13 11 11 10 8 6 6 6 7 7 7 7 7 7 6 7
19 21 23 25 25 28 26 28 31 32 35 37 37 36 36 34 32 31 31 31 30 27 28 29 28 27 25 24 21 20 19 18 16 15 13 13 11 9 8 6 5 6 8 8 8 7 7 8 8
22 24 26 26 28 31 33 33 38 40 40 42 38 40 38 38 38 37 35 34 33 32 31 30 31 31 29 28 25 23 22 21 19 17 16 14 12 9 7 5 7 7 8 8 8 7 6 8 8
23 24 26 27 30 32 32 32 37 42 44 42 44 42 39 40 36 38 37 37 37 36 34 33 32 32 33 31 29 27 25 24 22 21 19 17 14 9 8 6 9 7 8 7 6 6 7 9 10
24 24 26 27 28 29 30 31 30 31 33 37 40 41 41 40 38 36 37 33 36 38 37 35 35 35 35 35 33 30 27 26 26 24 22 20 17 13 10 10 9 7 6 7 5 5 5 7 6
22 23 26 28 29 28 30 26 26 22 22 26 32 36 40 40 43 35 34 36 39 40 42 40 37 37 38 37 36 34 31 29 28 28 26 23 21 17 14 14 11 7 7 6 6 5 6 8 6
21 23 28 30 27 25 26 26 26 26 26 26 27 30 37 43 41 39 37 40 40 42 42 43 41 40 39 39 39 37 34 32 30 29 29 27 24 21 18 17 14 11 8 8 7 6 9 10 9
21 23 28 31 27 23 25 25 27 24 22 25 29 33 32 41 45 49 56 33 34 40 41 44 46 44 42 41 40 39 36 34 34 32 30 28 26 24 22 20 16 15 12 10 8 8 10 12 11
21 24 28 30 29 28 30 33 29 28 27 28 29 36 37 39 50 52 41 40 48 41 43 47 48 44 42 41 41 38 37 38 35 34 30 28 27 28 25 22 19 17 15 13 11 9 11 12 12
21 24 27 31 28 24 25 28 30 30 27 28 33 36 36 37 41 39 46 48 51 44 67 66 38 46 41 40 40 39 38 39 38 35 32 30 30 28 25 24 20 19 17 15 12 10 11 13 15
22 24 27 29 28 26 21 19 22 24 23 24 26 28 30 31 34 34 43 52 50 50 66 28 35 47 45 42 41 40 39 40 38 36 33 32 31 28 27 25 22 21 19 17 15 13 13 15 16
21 24 28 27 25 21 20 19 17 16 17 19 22 25 28 29 30 31 38 43 42 49 59 34 33 48 46 42 39 38 38 38 37 35 33 33 32 29 28 26 24 22 21 19 18 15 16 17 18
22 23 26 28 25 20 19 18 16 15 13 15 19 23 27 30 28 31 32 31 33 38 51 33 40 26 38 36 39 38 39 37 34 32 31 32 30 29 28 27 25 24 22 22 22 19 18 17 19
22 25 26 22 20 20 20 21 18 17 18 18 18 20 25 30 31 31 32 31 27 30 44 34 30 27 33 30 44 42 40 38 34 31 29 30 29 30 29 28 27 27 24 24 24 23 20 19 19
22 23 22 25 27 25 20 16 15 16 16 17 18 20 24 32 36 36 36 32 29 29 34 34 42 43 23 30 27 34 38 39 36 33 28 29 28 31 30 30 29 27 27 27 26 26 22 19 19
22 21 25 28 28 26 19 13 15 19 22 23 24 24 23 27 36 37 39 35 35 31 29 31 35 40 41 20 15 21 27 41 34 32 31 32 30 31 31 29 28 28 29 28 27 27 25 23 21
21 22 25 26 24 25 23 19 22 24 26 22 21 24 27 28 32 34 39 35 36 36 31 29 33 33 33 41 30 12 16 28 31 36 34 34 34 32 32 31 29 29 30 30 28 28 28 28 28
18 21 23 24 23 23 22 23 25 25 20 16 19 24 27 28 32 36 35 37 32 36 33 28 32 29 33 35 36 32 24 23 30 34 36 39 36 36 34 34 33 33 32 32 32 32 31 31 32
17 20 23 24 23 22 22 24 23 22 26 23 20 21 24 24 27 35 39 36 36 33 36 31 32 31 35 37 36 29 31 26 31 37 37 37 36 36 35 37 35 34 32 33 34 34 34 35 33
17 19 21 21 23 23 22 26 26 26 26 26 28 29 27 23 23 26 36 41 36 33 33 34 32 32 31 36 33 33 35 28 32 33 34 34 35 37 38 37 33 32 33 34 32 32 35 37 37
17 19 20 22 24 23 24 25 25 25 29 33 31 27 26 27 27 27 28 33 36 34 31 34 30 29 30 34 39 38 37 34 30 39 36 40 41 40 37 34 33 32 32 31 31 30 32 36 36
16 19 21 22 22 22 23 24 25 24 26 31 27 21 21 9 9 20 21 25 28 30 28 34 32 29 30 30 36 38 41 35 26 27 36 38 36 33 30 30 31 33 30 31 28 32 37 39 42
14 17 20 21 22 21 20 24 25 25 29 31 29 20 20 15 10 12 9 14 18 24 29 29 28 27 28 28 32 34 42 41 42 28 31 33 29 31 30 31 33 36 35 37 36 34 37 39 38
11 14 19 20 21 22 22 24 26 27 29 32 27 19 20 15 9 9 10 13 18 24 25 23 23 21 22 22 25 29 32 35 42 35 32 28 31 29 27 22 25 34 38 36 41 42 39 37 39
10 13 16 20 19 21 23 23 26 26 28 30 25 20 19 18 13 13 13 11 15 15 15 15 15 15 11 12 10 13 19 29 13 22 29 28 28 32 33 27 26 30 37 41 37 37 37 40 39
10 10 13 16 18 18 21 22 24 25 27 27 27 22 21 20 21 16 14 12 13 12 10 8 7 5 2 1 3 10 21 27 24 9 14 25 19 20 22 27 30 25 26 28 29 32 36 36 37
10 11 12 14 17 18 20 22 22 22 23 25 25 23 19 18 17 13 11 13 15 13 10 8 8 6 5 7 3 2 10 14 2 1 10 3 14 16 15 18 25 28 24 23 23 26 28 26 25
12 11 12 13 14 14 16 19 20 18 20 21 22 21 19 17 15 14 11 9 8 8 9 9 8 8 9 12 9 4 6 3 5 1 2 3 6 10 16 20 22 24 23 23 22 23 24 23 24
13 12 12 12 13 12 13 15 17 18 17 17 18 16 16 14 13 12 12 10 8 7 7 9 12 13 11 13 12 5 7 9 11 10 9 9 4 12 15 19 19 20 21 23 22 25 25 24 24

GFSSGP_500_spd_129.txt.gz
Wind_Speed
14 15 16 17 17 16 18 22 26 26 26 27 29 33 31 31 30 31 29 26 24 21 23 22 21 20 19 18 17 16 15 14 12 12 11 11 9 8 7 6 6 5 5 5 6 6 6 7 7
16 18 19 20 20 20 23 28 28 30 31 32 32 33 34 34 34 33 34 30 28 26 24 25 24 23 22 21 19 18 17 16 14 12 11 11 10 10 9 8 7 7 6 6 7 6 7 7 6
19 21 22 22 22 26 27 31 34 34 35 37 38 37 37 35 33 34 35 36 32 30 27 28 27 26 25 24 23 20 20 18 17 15 13 13 12 11 10 9 7 6 5 6 7 7 8 8 8
21 22 24 24 26 29 31 34 37 39 41 42 42 41 41 40 36 36 38 38 36 34 29 29 30 30 29 28 27 24 22 21 20 18 16 15 14 12 11 9 7 5 5 5 7 8 8 7 7
22 23 25 27 29 30 32 36 37 38 40 42 41 43 43 42 39 36 35 39 38 37 33 31 32 32 33 32 31 28 26 24 23 21 19 18 15 13 12 9 6 5 6 6 7 9 8 6 8
22 24 26 27 28 30 33 34 34 34 34 35 35 37 37 38 37 39 34 33 34 38 37 34 34 34 35 34 34 33 30 28 26 24 23 21 18 16 14 11 8 6 5 6 6 9 6 3 5
22 24 25 26 26 32 33 35 33 33 32 30 28 29 29 32 33 35 40 41 37 35 39 38 36 37 38 38 37 36 34 32 30 27 26 24 22 20 18 15 12 9 7 7 6 8 5 5 6
22 23 24 25 27 31 32 34 33 32 30 29 31 32 31 30 30 33 38 37 36 42 41 44 41 41 39 39 40 39 38 36 34 31 28 27 26 24 22 19 16 12 10 10 10 8 6 7 8
20 22 24 25 28 29 34 34 36 34 32 29 30 30 31 33 33 31 40 41 46 42 43 46 45 42 45 43 43 42 40 39 37 34 31 28 29 28 25 22 20 17 14 12 13 11 9 10 12
19 21 24 26 29 31 31 31 32 36 37 37 34 34 31 35 38 38 39 47 49 47 50 52 51 48 49 51 46 44 41 39 39 36 34 31 30 29 28 25 23 21 18 15 15 14 12 12 12
19 21 24 27 30 32 32 27 28 28 31 32 33 35 36 39 40 43 47 43 54 55 54 63 44 53 61 41 46 44 43 40 41 38 35 33 31 30 29 29 26 24 20 18 18 16 14 13 13
19 22 24 28 32 34 32 29 27 26 27 28 32 35 37 36 35 39 45 45 44 59 57 57 58 65 38 43 47 42 43 42 41 39 36 34 32 30 29 29 27 26 21 20 21 19 18 16 15
19 22 25 27 33 36 31 26 23 22 24 25 25 28 29 30 31 32 35 36 39 45 53 51 59 50 39 43 34 39 43 42 41 40 38 35 33 29 29 29 28 26 22 21 22 21 20 18 18
19 21 24 27 32 35 29 25 19 22 26 28 27 28 26 29 32 33 33 32 33 36 39 36 51 51 36 42 41 41 43 43 40 39 39 36 33 30 29 29 28 26 23 22 23 22 21 20 19
19 21 24 26 29 30 25 25 20 22 23 24 27 30 31 32 33 36 35 31 30 35 32 31 40 59 40 48 44 41 45 45 38 38 37 36 33 31 30 29 29 26 25 24 24 23 23 23 21
18 20 24 25 27 27 24 19 20 21 26 27 26 25 28 32 34 36 35 36 33 30 29 27 27 57 33 34 40 38 43 45 41 38 35 34 32 32 31 31 30 28 26 26 25 23 23 24 23
19 21 23 24 28 29 25 22 22 25 26 30 32 32 33 35 36 35 37 35 30 32 28 28 28 30 23 41 30 36 36 43 40 38 35 34 32 31 31 30 29 29 28 27 26 24 23 23 24
20 22 24 24 28 30 27 25 26 31 30 25 28 29 31 33 35 38 36 35 30 31 29 27 23 26 16 29 35 20 24 36 45 42 35 35 34 33 33 31 31 30 29 27 27 25 24 24 25
18 20 22 22 26 29 29 28 29 29 27 26 27 27 31 34 37 35 36 35 29 29 27 29 24 24 21 25 29 21 12 29 37 37 38 38 35 33 34 33 33 33 33 31 28 27 27 27 29
16 18 21 22 26 28 28 29 31 32 30 29 30 31 28 29 32 34 33 31 30 24 25 25 26 25 25 22 26 24 30 21 23 32 38 38 37 35 35 35 34 34 33 32 31 29 29 32 32
14 16 19 22 25 27 27 27 30 32 31 33 34 33 31 25 24 30 29 26 28 26 23 25 26 25 21 22 23 25 26 21 23 26 32 38 38 38 40 43 40 36 36 35 34 33 33 34 34
14 15 17 19 23 27 28 26 29 30 31 33 31 30 24 24 21 22 23 18 21 25 22 26 26 25 23 23 25 25 30 24 27 25 27 27 33 38 39 44 40 37 35 37 36 34 37 37 36
11 13 15 18 21 25 27 28 29 29 30 30 27 27 24 20 4 9 17 15 12 15 18 23 26 24 23 21 22 25 29 34 35 23 20 24 27 34 35 36 30 30 34 36 35 36 37 37 39
11 12 14 15 18 22 25 26 28 31 30 27 26 29 22 18 12 12 10 9 12 13 19 23 22 20 20 18 22 23 28 28 40 31 23 29 34 34 39 41 41 36 34 30 34 37 38 41 40
11 13 14 13 16 19 22 24 28 28 31 29 25 28 22 16 11 12 9 12 12 16 19 17 14 15 15 15 18 18 18 21 25 31 38 31 27 28 37 32 29 28 29 32 36 39 40 40 45
11 12 14 14 14 17 20 22 24 26 27 28 27 27 23 21 16 10 10 11 10 11 12 10 10 11 11 11 10 11 11 15 17 21 29 26 32 31 31 29 29 25 28 29 28 36 42 44 42
11 12 12 14 13 14 17 19 20 23 25 25 24 25 23 21 17 15 11 10 10 12 11 10 7 6 7 9 10 8 5 10 13 15 20 21 19 29 34 33 31 32 35 33 31 32 36 43 46
10 11 12 12 13 14 15 16 19 21 22 22 21 21 23 22 20 16 13 7 7 6 5 8 10 12 13 15 11 8 6 7 7 14 17 10 22 22 23 24 24 28 34 36 38 32 31 32 33
8 9 10 11 12 14 15 14 16 18 20 19 18 18 19 19 17 15 12 9 6 2 3 6 9 11 16 16 18 15 14 15 14 11 9 6 10 11 21 23 24 25 27 31 33 32 31 30 30
6 7 10 12 11 12 14 13 11 13 16 17 16 14 14 16 16 14 10 8 6 6 6 8 11 13 15 6 13 20 15 17 16 16 12 11 9 7 14 16 22 27 30 29 29 32 32 32 31

GFSSGP_500_spd_132.txt.gz
Wind_Speed
11 13 14 14 14 14 18 20 24 24 23 25 26 28 31 33 33 32 31 28 26 24 26 24 22 21 19 18 16 14 13 13 14 13 11 10 9 7 7 6 5 5 5 5 5 5 4 4 5
15 15 16 16 17 17 21 25 27 27 29 30 31 31 33 32 32 32 33 33 30 27 26 27 26 25 23 22 20 17 15 15 14 13 12 9 8 8 8 8 7 6 7 6 7 6 6 5 4
16 17 18 18 19 21 24 28 30 31 33 34 36 37 35 35 35 34 32 35 35 31 28 29 28 28 28 26 24 20 19 17 16 15 14 11 10 9 8 9 8 7 6 6 8 6 6 6 5
17 18 19 18 21 24 27 29 31 33 36 37 39 41 40 37 36 36 34 35 37 35 33 29 30 31 30 30 29 25 23 21 19 17 17 14 12 11 9 9 8 8 7 7 7 6 6 5 6
17 19 20 20 24 26 28 30 32 33 37 39 39 39 38 38 39 36 36 37 38 38 36 33 30 31 32 33 31 30 26 24 22 20 19 18 15 13 10 9 8 8 8 8 6 6 7 8 8
17 20 21 23 25 27 30 31 34 36 38 41 40 40 38 36 35 36 36 39 39 40 40 32 35 32 33 34 35 33 31 28 26 24 22 21 19 16 14 11 9 8 8 8 6 5 5 6 5
18 21 22 23 25 28 31 34 36 37 38 38 37 38 38 35 32 31 30 34 36 38 40 38 34 35 34 35 38 36 35 34 30 27 25 24 23 21 18 14 12 10 9 9 6 6 6 5 6
20 21 21 23 25 29 32 35 36 36 35 34 35 37 36 37 35 30 29 33 34 38 41 39 40 36 37 33 37 40 38 38 35 32 29 28 26 25 22 19 15 13 12 11 8 8 8 7 7
18 20 21 22 25 30 33 35 38 37 34 33 34 36 35 37 38 35 33 32 37 39 38 44 45 40 36 40 39 41 41 40 39 35 33 30 29 29 25 22 19 16 16 13 12 12 11 10 10
19 20 21 23 27 28 32 34 37 34 33 33 35 39 41 39 37 34 34 36 37 43 46 41 49 41 39 41 45 44 37 42 42 38 36 34 33 31 29 26 22 19 19 16 15 15 15 13 12
17 21 22 24 27 28 31 35 34 31 31 33 34 34 36 39 41 39 38 40 42 42 48 52 48 49 45 43 47 51 45 49 44 41 38 36 34 33 31 28 25 22 22 19 18 19 18 16 15
19 21 23 25 27 29 32 35 37 33 29 30 32 30 32 35 35 39 41 41 43 46 45 54 54 54 52 54 50 60 21 43 44 45 40 38 37 35 32 30 27 23 24 23 21 21 20 18 17
19 21 23 26 28 31 34 37 34 32 27 29 29 29 29 31 34 36 37 38 41 46 49 50 51 56 60 60 53 57 51 44 45 47 42 40 38 36 33 30 27 25 25 25 24 23 21 20 18
19 21 23 25 28 32 35 38 37 34 30 27 30 29 32 34 32 32 34 35 35 40 41 43 45 45 55 60 56 53 49 54 47 48 44 42 39 36 34 32 28 26 26 26 24 23 22 21 20
18 20 22 23 28 31 35 37 36 34 32 32 30 30 31 31 35 37 35 34 35 33 35 35 37 38 39 53 59 24 43 40 40 50 44 43 40 38 35 32 29 27 27 26 24 24 23 22 21
17 19 22 25 28 30 33 35 32 30 27 31 33 32 32 34 35 36 35 34 33 35 33 31 31 28 32 42 52 39 34 39 45 49 46 43 40 38 36 32 29 27 26 25 25 24 23 21 20
17 18 20 23 26 30 33 33 30 29 31 33 30 27 29 30 32 33 40 36 31 30 33 30 30 31 24 36 44 55 38 36 34 45 46 41 38 36 34 32 30 29 28 28 26 24 23 22 22
18 17 20 23 27 29 32 33 31 32 34 34 31 32 32 35 35 32 31 35 35 29 28 31 27 27 20 23 46 38 39 47 34 41 46 38 36 36 35 34 32 31 30 29 27 25 25 24 24
17 17 20 22 25 27 30 33 32 33 36 35 34 35 36 31 32 36 32 24 31 29 24 25 24 23 19 19 34 33 22 42 41 39 43 40 35 34 35 39 34 35 34 30 27 26 26 27 28
16 17 19 21 22 24 27 31 32 33 37 36 40 35 34 33 28 24 25 23 21 24 22 21 21 22 15 12 29 24 21 22 29 37 35 45 41 36 37 36 33 34 33 30 29 28 28 30 32
16 17 18 19 21 23 24 26 28 30 36 38 35 36 36 30 29 17 13 17 15 21 20 18 20 21 17 17 17 15 20 19 16 21 26 40 39 42 38 36 38 37 34 32 30 31 34 33 33
16 17 17 18 20 21 23 23 26 28 35 37 33 36 32 30 22 2 10 11 9 15 19 15 17 17 18 16 19 14 20 22 21 20 27 35 34 36 40 44 42 34 33 34 35 35 36 35 34
16 16 16 18 19 19 21 24 26 27 32 33 31 33 28 29 18 13 18 16 7 11 16 14 15 15 18 13 13 15 19 24 18 24 30 27 29 48 44 42 40 36 38 40 37 37 35 36 38
16 15 15 17 18 18 19 22 24 26 30 32 30 30 30 23 20 20 17 12 8 12 15 14 14 14 16 16 16 17 17 22 27 30 22 28 21 25 41 43 39 34 31 28 33 35 38 39 40
17 16 16 15 16 18 18 19 22 24 27 29 30 28 26 25 17 11 13 11 10 14 13 12 12 11 11 14 15 15 17 22 26 29 33 34 27 22 24 26 33 32 33 31 34 37 38 40 39
14 15 16 15 15 16 16 17 18 20 24 26 29 27 26 22 22 17 11 9 14 15 13 13 11 9 10 11 12 16 16 21 24 21 24 32 35 33 20 30 33 33 32 31 32 33 35 37 39
14 14 15 14 14 15 14 15 16 18 20 23 26 28 26 25 22 19 16 13 11 11 12 11 12 12 11 11 13 14 15 17 19 17 14 22 21 23 25 26 21 29 35 34 28 30 32 33 36
13 13 12 11 12 14 14 14 14 14 16 20 22 25 26 24 21 19 16 14 13 11 10 9 8 10 13 15 15 17 19 18 14 13 10 12 18 12 17 22 26 30 30 32 33 38 42 41 40
10 8 8 9 11 14 13 13 13 12 13 15 18 21 22 22 19 17 13 11 11 10 8 8 8 9 10 14 14 11 15 20 20 21 22 19 15 12 10 23 32 34 34 33 35 36 35 37 41
10 9 9 9 10 12 13 11 13 12 11 12 14 16 17 16 17 16 13 10 8 7 6 6 5 4 6 10 13 14 14 16 21 21 16 23 19 16 15 22 29 29 28 30 29 32 34 37 39

GFSSGP_500_spd_135.txt.gz
Wind_Speed
11 12 13 12 10 11 15 17 18 17 18 20 22 25 27 27 25 25 29 30 28 26 26 26 25 25 23 21 18 16 15 14 13 13 12 11 11 10 8 8 7 6 4 4 4 3 2 2 1
13 13 13 14 11 13 18 19 19 21 23 24 26 27 29 31 30 29 29 30 30 28 28 27 28 27 26 24 22 19 17 16 14 14 14 13 12 11 10 9 9 8 7 6 5 5 4 4 3
15 14 15 13 16 16 19 19 20 23 25 27 30 31 33 33 33 33 33 33 33 32 30 29 29 30 29 27 26 23 22 20 17 16 15 14 13 11 11 10 10 8 7 6 6 5 4 4 4
16 17 16 14 18 17 19 20 22 25 27 29 32 35 36 37 37 35 34 35 36 37 35 32 31 31 31 31 29 27 25 23 21 19 17 16 15 13 12 12 11 10 9 8 7 6 5 4 3
16 17 16 15 18 19 20 22 25 28 32 33 34 37 40 40 39 39 36 36 38 39 40 35 35 32 32 32 32 31 29 27 24 22 19 18 17 15 14 13 12 10 10 9 8 7 6 6 5
15 17 16 17 19 20 21 23 27 29 32 35 36 37 39 40 40 39 38 36 38 41 42 39 38 36 34 31 33 32 33 31 29 26 23 20 19 18 17 15 14 11 11 9 9 9 7 6 5
16 15 17 19 21 21 22 27 29 30 31 34 37 38 37 37 39 37 36 37 37 40 42 43 40 38 32 34 32 33 34 34 33 31 28 24 22 22 20 18 16 14 11 10 9 10 9 8 7
14 16 20 20 21 21 26 30 30 31 33 35 34 36 36 37 38 38 36 36 36 38 42 42 44 43 37 34 39 32 35 36 36 36 33 29 26 25 24 21 19 16 14 12 11 11 10 9 8
16 19 20 20 21 23 27 30 32 33 35 36 38 36 36 38 39 38 37 37 37 35 38 39 40 38 33 33 34 39 34 34 39 39 38 33 30 28 27 24 23 20 16 15 14 13 12 12 11
18 20 20 19 21 25 28 30 33 35 38 40 40 36 34 37 41 42 40 39 39 39 37 40 44 43 42 38 33 33 40 40 35 44 42 40 36 32 29 27 25 24 21 18 16 15 14 14 13
20 20 19 20 22 25 28 31 33 36 39 40 40 36 33 33 35 37 42 43 39 40 39 37 38 44 44 43 44 39 43 43 43 39 50 44 40 34 32 31 27 27 24 22 20 18 16 16 16
21 20 19 20 22 24 28 31 34 37 37 37 35 30 30 31 30 30 32 38 42 41 40 40 41 42 51 46 49 55 47 41 45 40 49 47 42 37 35 31 30 29 26 25 23 21 19 19 18
22 20 21 21 23 25 29 31 34 38 39 36 32 26 25 28 29 30 28 28 35 42 42 41 41 44 47 50 47 55 55 42 40 45 38 46 46 41 37 33 31 31 30 28 25 23 21 21 20
21 21 21 21 23 27 29 34 35 38 38 36 33 30 25 26 28 30 31 31 28 33 40 43 44 45 49 47 50 53 57 57 57 59 52 52 47 44 39 35 32 33 32 30 27 24 22 21 20
21 21 21 20 23 26 30 33 34 37 37 36 35 33 31 26 29 31 31 32 35 33 33 36 38 39 47 52 48 52 56 57 60 51 53 48 50 48 41 36 34 33 31 30 27 25 22 22 21
20 20 20 20 23 25 29 32 33 35 34 34 35 33 28 27 26 29 33 35 34 34 34 33 34 36 37 41 40 50 44 57 46 41 39 44 46 47 40 35 33 33 31 29 28 25 24 23 22
20 20 20 22 22 25 28 30 33 34 32 32 34 33 33 33 36 35 30 34 37 35 30 31 35 34 33 31 34 35 32 50 52 41 49 52 47 48 40 35 33 33 31 30 29 27 26 25 25
20 19 21 21 22 25 27 30 32 34 33 33 33 35 32 28 33 35 30 29 31 31 32 30 30 33 31 28 29 27 34 45 60 34 40 46 46 45 39 34 33 32 32 32 32 30 28 26 26
19 19 20 22 21 25 26 30 32 34 36 36 36 37 32 36 32 29 24 31 27 25 28 30 25 30 27 25 23 21 25 30 58 40 41 43 39 40 39 36 34 36 37 36 35 32 28 28 28
19 18 20 21 21 22 25 29 32 35 36 36 35 35 34 33 33 26 20 21 19 22 22 25 21 27 27 21 20 15 13 29 45 33 42 43 43 40 39 38 40 38 37 35 35 34 31 31 30
19 18 19 19 21 22 22 26 29 33 34 35 36 37 35 35 25 13 11 12 15 18 18 18 21 25 23 20 16 8 15 13 23 35 31 38 40 40 38 38 40 39 36 38 36 34 32 32 31
18 18 17 18 19 21 22 22 28 31 33 35 36 35 33 30 19 13 13 16 15 18 18 19 20 21 22 20 14 12 16 13 19 26 26 35 33 36 37 38 44 35 36 39 36 34 33 31 31
17 18 16 17 18 19 21 21 24 28 30 32 32 31 30 25 19 21 21 16 14 18 19 17 21 24 24 24 18 15 16 22 20 23 15 23 25 29 43 42 36 39 37 37 34 35 35 35 34
15 16 16 17 18 18 19 20 21 25 26 30 31 30 27 24 14 12 10 14 13 15 17 17 20 18 21 20 15 18 20 20 23 23 23 28 27 27 44 45 38 43 41 39 38 35 36 38 39
15 15 15 16 15 17 18 18 19 21 23 26 28 28 24 23 17 11 8 6 11 17 16 12 14 15 14 10 8 7 10 14 17 16 17 22 30 28 40 37 37 44 42 40 39 37 38 35 39
14 14 15 16 15 14 15 16 17 18 20 22 25 26 25 22 20 17 14 9 11 13 16 14 16 16 17 18 18 16 13 9 13 16 21 21 24 16 28 30 32 40 36 35 40 37 34 34 39
14 15 15 15 15 12 12 15 14 15 18 18 21 23 24 24 20 18 15 15 9 9 8 10 12 12 13 15 13 15 17 18 19 19 25 20 21 22 25 24 19 24 34 35 36 39 38 35 37
13 14 13 12 11 10 10 12 13 13 14 16 17 19 22 23 21 18 15 13 11 10 10 9 7 9 10 11 13 15 16 17 20 21 20 18 21 21 19 25 29 27 27 28 34 37 37 36 35
14 14 12 9 9 9 8 9 11 12 12 13 14 15 17 19 19 17 14 12 9 7 6 7 8 8 9 9 10 11 13 16 20 22 22 23 22 23 24 18 21 28 31 32 35 36 37 38 40
15 14 13 11 10 9 6 7 9 11 10 11 11 11 13 14 16 15 15 11 10 8 7 5 6 5 4 4 6 9 12 14 16 21 19 21 30 28 23 19 25 29 32 34 37 37 39 38 37

GFSSGP_500_spd_138.txt.gz
Wind_Speed
12 11 11 11 10 11 13 11 10 11 12 14 16 18 20 21 20 22 24 25 26 26 26 25 26 28 25 22 20 19 19 18 18 16 15 14 14 13 13 12 11 11 9 8 6 5 4 3 3
12 11 10 11 11 13 13 14 13 13 14 15 17 20 22 24 25 25 26 27 30 29 28 29 27 29 30 27 24 22 20 20 20 18 16 15 15 15 14 14 13 12 10 8 7 6 6 5 4
12 12 10 11 14 15 15 15 14 14 15 17 19 22 24 28 31 32 31 31 31 34 34 32 32 30 31 31 28 25 23 21 21 20 18 17 16 16 16 16 15 13 11 9 8 7 8 7 6
13 12 12 12 15 14 15 16 16 17 18 20 22 25 27 30 34 36 38 37 35 35 38 37 34 32 34 33 32 29 26 24 23 21 20 18 18 17 18 18 16 14 12 10 9 8 8 8 7
15 12 12 13 16 15 15 16 18 20 21 23 26 29 32 35 36 39 40 39 38 37 39 41 40 34 34 36 33 33 30 27 26 24 23 21 20 19 19 19 17 15 13 12 11 10 10 9 8
12 10 12 15 16 16 17 17 19 21 25 28 30 33 35 36 39 41 41 41 39 38 40 41 43 38 35 36 36 35 34 32 30 28 26 24 22 22 21 20 17 16 15 14 13 12 11 10 9
9 11 13 15 16 17 20 19 19 23 28 31 34 36 37 37 37 39 40 41 41 38 39 42 42 42 37 34 33 36 37 36 34 32 30 27 26 24 24 22 18 17 16 15 14 13 12 11 9
11 11 12 15 18 21 21 19 22 28 31 31 33 34 35 36 37 37 39 42 40 38 37 41 43 44 37 38 31 30 35 38 39 38 36 32 30 28 27 26 22 18 17 16 15 13 13 12 11
11 11 13 17 21 22 22 22 26 30 31 32 31 32 34 35 34 37 41 42 39 37 37 37 43 44 37 42 39 33 37 33 42 43 41 36 34 32 31 30 26 22 19 17 16 15 14 14 12
10 12 16 20 23 23 23 25 29 31 30 31 32 33 34 33 29 34 39 41 41 39 40 40 41 43 40 35 36 39 39 43 38 46 40 40 39 37 34 33 30 27 23 20 18 16 15 16 14
11 13 18 22 23 23 24 27 29 31 31 32 35 34 34 34 30 28 30 36 40 43 42 40 41 43 44 47 39 40 39 32 42 43 35 47 43 39 37 36 34 30 26 23 20 18 18 17 16
12 16 21 23 23 24 26 28 30 32 32 34 35 34 35 36 31 29 29 30 32 35 41 44 40 43 43 44 46 47 47 52 31 23 39 41 48 42 41 37 36 32 28 26 23 21 20 18 17
14 19 22 24 23 25 27 28 30 32 33 35 34 33 32 33 30 32 31 32 32 30 34 42 43 41 44 43 43 50 51 56 54 35 28 36 32 43 46 41 38 34 32 28 26 24 23 21 20
17 19 22 23 24 26 27 29 30 32 33 36 34 31 32 33 31 33 37 35 34 33 31 34 42 44 41 43 45 44 50 57 56 58 55 29 31 39 53 41 40 36 34 31 29 27 25 24 22
19 20 23 23 25 26 28 29 29 32 34 36 34 33 34 35 36 32 32 36 38 35 33 33 36 41 43 44 42 44 45 47 55 56 63 59 36 32 44 45 41 38 35 34 31 29 27 25 24
20 22 23 23 25 27 28 30 30 32 35 35 35 36 37 39 40 38 33 32 35 38 36 34 33 37 41 42 40 40 42 46 48 47 51 50 48 38 45 47 44 40 37 35 34 32 30 28 26
22 23 23 24 25 27 28 29 31 33 34 35 36 36 38 40 38 36 34 31 36 37 37 36 33 34 37 38 36 36 40 42 46 45 44 49 44 48 49 51 48 42 39 36 34 32 30 29 27
23 24 24 25 24 27 28 29 30 31 33 35 36 37 40 40 40 39 39 40 35 38 34 36 35 33 34 36 33 33 33 35 43 42 40 43 44 49 53 46 48 43 39 37 34 33 32 30 29
24 23 23 24 24 25 27 29 31 30 32 35 37 38 40 39 39 37 35 34 31 28 31 33 35 30 30 32 31 30 28 27 32 36 35 43 38 49 52 45 47 44 40 38 36 34 32 32 32
21 22 23 23 24 25 25 28 29 30 31 34 35 35 35 32 34 31 16 17 24 21 28 31 29 28 26 30 27 25 22 19 27 29 33 38 38 47 48 46 45 43 40 36 34 33 34 34 32
20 20 21 22 22 24 25 25 26 27 29 31 33 34 31 25 25 21 13 3 9 17 25 23 26 27 27 28 23 21 19 11 10 22 30 35 35 43 47 49 49 46 40 34 34 35 37 35 36
19 20 20 20 19 23 24 26 24 25 26 28 31 31 26 19 18 16 13 7 13 18 21 25 26 23 26 26 25 24 22 16 15 14 18 34 46 43 44 42 40 40 40 36 38 39 38 37 35
17 19 19 18 18 20 23 23 23 22 24 26 29 28 24 14 12 15 11 7 12 19 22 24 20 23 27 29 27 24 23 17 27 38 27 35 37 48 40 37 37 37 36 39 40 39 38 37 37
15 17 17 16 18 19 21 21 20 19 21 23 25 25 22 16 11 11 11 7 10 15 16 15 18 22 26 29 30 24 15 15 19 42 24 39 43 46 41 38 44 41 40 39 40 42 40 39 39
16 16 16 16 16 18 19 18 17 16 17 19 21 22 21 15 12 13 11 9 9 12 13 12 16 19 25 25 26 21 19 17 16 20 25 40 45 46 36 33 38 32 36 43 43 37 40 40 39
17 17 16 15 15 16 18 17 15 14 14 16 17 19 20 16 13 15 14 11 9 11 9 10 14 12 15 13 12 14 20 19 21 19 22 20 22 27 25 29 32 40 43 41 41 40 42 43 44
17 16 16 15 15 15 16 15 12 11 11 13 14 16 17 17 13 12 14 14 12 9 5 6 7 9 12 12 9 5 5 12 16 20 18 9 27 22 12 27 33 36 35 41 39 43 49 48 43
19 18 15 14 13 12 14 14 9 8 9 9 12 13 14 16 15 12 10 10 10 10 10 10 8 6 9 11 12 11 13 15 15 12 11 15 15 18 16 17 23 24 25 26 37 43 42 42 43
23 18 16 15 12 10 12 14 8 6 7 7 9 10 11 13 13 14 11 8 7 6 7 7 8 9 10 10 9 11 14 16 19 19 23 23 21 21 23 27 29 26 27 30 31 33 38 41 41
26 20 19 17 14 14 13 13 6 5 4 5 5 7 9 10 11 12 11 11 7 5 5 7 5 2 2 2 4 3 7 10 12 14 20 21 25 23 27 28 28 32 33 33 35 37 38 42 43

GFSSGP_500_spd_141.txt.gz
Wind_Speed
15 14 14 13 12 11 10 8 8 9 10 11 12 13 13 15 14 17 19 20 22 22 22 24 26 25 25 24 24 22 21 21 21 21 19 18 16 15 14 13 12 11 11 10 9 7 5 5 4
12 12 13 13 11 10 10 9 10 12 12 13 14 15 15 18 18 19 22 23 25 26 27 27 27 27 29 27 27 26 24 23 22 22 21 20 19 17 16 15 14 14 14 12 10 9 7 7 6
12 11 12 12 12 11 13 11 11 13 14 15 15 16 17 19 20 23 25 28 30 31 31 32 31 30 29 31 30 29 27 26 24 23 23 23 21 20 18 17 16 16 16 15 12 10 8 8 8
12 12 14 13 13 12 13 12 13 15 15 16 17 19 20 22 25 27 30 32 35 36 35 36 37 33 32 32 33 32 31 29 28 24 23 23 23 22 21 19 19 18 18 16 14 11 9 8 9
13 14 14 14 13 11 14 13 14 15 17 19 20 23 24 25 28 31 34 36 38 41 41 41 39 38 36 35 34 35 33 32 31 28 25 24 24 24 22 22 21 20 19 17 15 12 11 9 9
14 16 14 13 13 12 13 13 15 18 19 20 22 25 27 30 34 35 36 37 38 41 44 44 42 40 40 37 35 36 36 35 34 32 29 27 25 25 24 23 22 22 20 18 17 14 12 11 11
15 14 12 12 13 12 12 15 18 20 21 24 26 30 36 34 36 36 37 38 40 40 43 44 45 41 41 38 36 36 37 38 38 37 34 31 28 27 26 25 24 23 22 20 18 17 15 14 12
13 12 12 11 12 13 15 18 20 22 24 27 29 34 37 34 36 36 39 40 40 41 43 45 45 43 42 42 37 33 34 38 39 39 38 35 33 31 30 28 28 26 23 22 20 17 17 17 15
13 12 12 11 12 15 17 20 22 25 27 29 31 35 36 36 36 38 39 42 40 41 43 43 42 42 43 42 36 40 34 30 38 40 39 41 39 36 34 31 31 29 26 24 21 19 18 17 16
13 13 12 11 13 17 20 23 24 26 29 32 34 35 35 35 35 36 38 41 40 42 41 42 40 41 40 40 35 37 42 38 35 40 49 45 45 41 37 34 33 31 29 25 23 20 20 18 18
14 14 12 12 15 18 22 24 26 27 30 33 36 36 36 36 36 36 37 38 39 42 41 41 41 41 43 42 44 49 36 45 42 48 44 50 50 44 40 37 35 34 31 27 25 23 21 19 18
15 13 12 15 18 21 25 26 27 29 32 34 36 36 37 38 38 36 38 37 37 40 42 42 42 44 44 43 43 47 42 45 50 34 25 30 47 45 41 40 38 36 33 30 27 24 23 21 20
16 13 14 16 19 23 27 26 28 30 33 33 35 36 38 41 40 39 40 40 39 39 41 41 41 42 47 46 44 44 52 46 53 57 39 34 34 38 46 41 39 39 36 33 28 25 23 22 21
15 13 15 18 22 26 28 27 28 30 33 33 35 36 39 42 41 40 41 41 41 43 42 42 41 41 43 46 45 46 43 50 50 54 52 46 36 32 45 44 43 40 39 36 33 30 27 25 23
15 15 18 21 25 27 28 27 29 31 33 33 35 38 40 42 41 42 42 42 40 44 45 44 43 42 43 44 46 45 45 44 49 50 50 52 55 43 31 28 45 41 42 38 35 32 30 28 26
18 18 20 22 27 27 28 27 32 30 32 33 35 39 43 42 45 44 43 42 45 42 44 44 44 43 41 43 45 45 43 42 44 42 48 47 55 59 42 44 38 48 42 39 37 35 33 31 28
20 20 21 26 25 28 28 28 33 29 31 32 35 39 43 46 47 45 44 43 46 44 42 41 42 41 41 40 41 44 41 40 40 39 38 39 40 43 57 57 37 48 43 41 38 37 34 30 28
22 22 25 26 28 27 28 28 30 29 30 32 35 38 42 47 46 42 44 44 43 44 39 39 38 39 38 37 37 39 40 39 39 38 36 36 36 32 43 48 53 31 48 42 38 36 34 32 30
24 25 26 28 29 26 29 28 28 28 29 31 33 36 42 43 41 38 39 38 30 30 27 33 37 35 35 34 32 34 36 36 34 37 34 34 32 28 28 32 41 42 42 51 43 38 35 33 33
24 24 25 26 27 26 28 26 27 27 28 30 32 35 40 40 36 31 33 29 14 8 14 24 33 31 31 29 30 30 31 30 29 30 27 31 29 26 27 27 39 45 45 50 42 36 36 34 35
25 25 25 25 25 25 26 25 23 26 26 27 29 33 36 37 31 27 31 23 11 2 7 16 22 24 29 29 29 25 27 24 28 26 24 26 24 24 30 32 30 39 49 46 38 37 36 36 37
23 25 25 25 24 25 23 24 23 23 24 26 27 30 34 34 27 23 25 21 14 3 7 15 19 25 31 27 23 24 23 29 32 26 21 25 29 23 21 28 34 43 43 42 41 37 37 36 36
22 21 24 23 23 23 23 26 22 23 23 23 24 26 30 29 24 17 16 15 9 3 8 13 19 24 23 24 25 28 27 32 24 25 35 30 27 24 24 30 36 45 43 40 41 38 37 37 34
20 21 22 22 22 22 21 22 22 19 21 21 21 23 25 26 20 15 12 10 7 3 5 11 16 19 23 26 29 31 30 35 14 25 36 34 32 16 21 26 32 42 45 43 43 42 40 38 36
22 23 22 21 20 22 19 20 18 18 19 19 17 19 22 22 18 13 9 6 4 4 7 10 13 17 21 23 23 28 33 21 14 22 33 35 35 28 29 36 35 37 35 34 37 39 39 41 42
25 25 22 21 21 21 20 19 15 17 17 16 14 14 18 18 16 11 8 6 5 5 6 1 10 11 19 18 19 27 27 12 11 12 34 30 33 31 36 36 34 34 30 34 35 39 40 40 40
27 24 25 22 21 21 17 18 14 16 15 14 12 10 13 15 13 9 6 6 5 4 4 6 5 6 2 4 6 6 11 14 14 11 18 28 25 30 30 36 37 27 29 30 33 40 44 42 44
29 26 26 22 22 19 17 15 14 14 15 13 10 8 8 11 10 8 5 3 2 2 3 4 5 3 2 3 4 11 11 5 13 13 17 18 27 26 19 27 40 31 30 33 34 36 41 43 43
34 29 28 25 20 18 16 16 14 14 15 12 9 7 5 7 10 7 4 4 3 2 1 1 1 2 1 1 4 7 10 8 6 4 7 14 19 24 19 17 26 27 29 30 29 36 35 36 41
40 34 32 28 21 19 18 15 15 14 14 11 8 6 4 4 6 8 5 4 4 4 4 3 2 0 3 2 2 5 6 8 9 10 11 10 13 17 17 17 21 24 23 23 22 28 34 38 41

GFSSGP_500_spd_144.txt.gz
Wind_Speed
17 16 16 15 11 8 11 9 7 8 8 9 9 11 11 11 9 13 13 13 14 14 16 18 19 20 22 23 21 23 22 22 22 20 21 20 19 17 15 14 12 12 11 10 9 8 8 6 5
16 16 15 12 10 9 12 9 9 7 9 11 11 12 13 7 12 12 15 16 17 18 20 21 23 22 23 23 26 25 25 24 24 23 21 22 21 20 18 17 15 14 13 13 12 10 10 8 7
16 15 13 11 11 11 12 8 7 11 11 11 13 13 12 13 14 14 19 20 22 21 23 25 26 27 27 27 27 28 28 28 26 25 24 23 22 22 21 20 18 17 16 16 15 13 12 10 9
17 15 14 12 11 14 14 9 10 12 11 12 13 16 14 18 18 20 21 23 26 25 27 30 31 32 31 32 31 31 31 31 31 28 27 26 25 24 23 23 21 20 19 19 18 15 14 11 10
17 16 15 14 14 14 13 11 12 12 13 15 14 19 17 18 21 24 25 27 29 30 32 35 36 38 38 37 35 34 33 33 34 33 30 28 27 26 25 24 24 23 22 21 20 18 16 13 12
17 18 16 15 15 13 13 12 12 14 14 16 16 20 24 18 25 27 30 32 34 35 34 37 40 42 43 42 39 37 37 36 37 35 35 32 30 27 26 25 25 25 24 24 22 21 18 16 14
20 19 17 15 12 13 14 10 14 14 17 17 19 23 28 21 29 31 34 35 35 38 38 37 41 43 44 44 42 38 39 39 36 37 36 36 34 32 28 27 27 26 26 25 24 23 21 19 16
21 17 17 14 14 15 10 12 13 16 19 20 23 27 30 28 33 36 35 37 38 38 42 37 37 41 44 45 44 40 38 40 38 38 38 39 37 35 33 31 29 28 27 26 25 25 24 20 18
18 16 16 16 16 12 9 13 13 18 20 22 26 30 30 33 37 38 39 39 40 40 42 41 39 42 43 43 43 42 41 36 34 37 39 42 41 39 37 34 33 31 30 28 26 25 24 22 20
16 15 16 14 14 11 9 12 15 18 21 24 26 30 31 36 39 40 42 44 41 42 43 43 43 42 43 43 42 39 40 42 38 35 44 43 45 43 41 39 36 34 31 30 27 26 25 23 21
16 18 15 16 13 12 12 14 16 20 23 25 29 30 33 38 39 41 43 45 40 43 44 44 46 45 44 41 39 37 39 37 48 46 38 39 39 42 47 44 41 38 35 32 29 27 25 23 21
17 18 18 15 14 14 15 17 18 22 25 27 30 33 36 38 41 40 42 43 45 44 45 46 47 47 45 44 42 42 41 53 43 54 41 31 42 41 48 46 43 41 39 35 31 26 26 24 23
17 19 18 16 15 15 15 18 20 24 25 28 30 34 36 39 40 41 43 46 47 45 45 44 45 48 47 45 44 45 44 49 48 48 50 35 39 27 39 40 44 41 40 37 33 30 26 24 22
17 19 19 18 18 17 18 19 21 25 27 29 31 34 37 38 39 42 45 49 48 46 48 45 45 48 49 46 44 47 47 47 46 44 45 51 37 27 33 39 46 41 39 37 36 33 29 25 23
18 18 20 22 19 21 20 20 23 24 28 29 31 33 37 37 39 44 49 50 46 43 46 46 45 46 49 48 45 44 49 52 48 44 53 47 47 38 23 34 26 49 40 37 34 34 32 30 28
18 18 23 24 21 23 22 21 25 26 27 28 32 35 37 37 38 44 49 47 41 41 45 48 46 44 46 48 46 43 45 49 48 44 43 46 47 51 56 29 43 20 43 39 37 37 35 33 30
20 21 23 24 23 25 23 23 28 27 27 30 31 34 37 39 44 49 50 45 43 45 48 49 47 41 44 47 45 42 41 44 46 41 38 35 31 32 41 36 37 31 33 26 41 38 37 35 32
23 21 22 24 29 23 27 26 26 29 26 27 30 32 34 38 44 48 44 42 44 48 43 44 38 37 38 40 40 41 39 39 40 37 34 31 28 24 32 46 43 40 47 42 32 40 38 36 34
22 23 24 25 28 28 26 25 25 25 26 26 29 30 33 37 43 44 41 40 43 38 29 22 19 28 31 34 35 37 36 34 36 36 31 29 26 26 25 25 38 34 40 40 32 45 38 36 34
23 25 24 27 30 27 27 23 26 25 24 25 28 28 31 36 41 40 38 35 33 28 21 7 10 19 26 25 31 32 31 31 32 32 30 27 27 27 22 19 27 30 26 32 35 29 40 38 35
23 24 27 29 31 29 27 21 24 22 24 24 25 26 29 34 38 37 34 29 26 23 16 11 9 17 19 25 29 27 29 29 29 29 29 26 25 25 25 23 23 24 23 26 28 34 47 41 42
23 26 25 27 30 28 27 24 22 19 23 22 22 24 26 30 35 33 28 23 20 18 13 2 7 13 20 25 26 24 26 26 26 27 27 27 27 23 23 26 23 27 29 26 19 42 49 53 41
24 24 26 27 28 27 21 29 18 18 19 17 20 22 24 27 31 29 24 18 16 14 10 4 6 13 16 21 23 21 24 26 30 32 32 33 31 29 28 28 28 30 32 35 30 40 50 46 39
27 26 28 27 27 25 21 25 21 16 19 17 18 20 21 23 27 26 22 15 12 12 8 4 2 8 12 17 19 21 25 27 29 30 31 36 35 28 31 29 25 31 35 37 43 43 45 43 36
28 28 28 27 26 26 21 22 17 19 17 16 18 19 19 20 23 24 19 13 9 10 8 5 3 4 9 14 15 17 22 28 33 38 30 37 30 38 30 31 32 29 33 35 33 41 40 35 36
33 33 28 29 28 26 19 20 18 17 16 15 16 17 17 17 19 22 16 13 7 7 8 9 7 4 9 11 10 11 17 30 34 32 28 26 35 35 37 23 25 24 28 27 32 35 31 36 38
36 34 30 32 29 28 21 19 18 14 13 13 16 16 14 14 14 18 16 13 11 7 6 5 5 9 14 10 1 5 16 24 19 11 19 29 29 38 37 33 30 30 33 31 27 27 26 32 39
40 37 35 32 31 27 21 21 16 14 11 12 15 16 12 12 11 14 15 12 12 9 4 5 5 6 8 8 8 14 16 7 11 14 21 24 33 26 32 31 32 26 28 27 24 24 29 29 31
40 40 35 35 32 29 21 25 14 11 10 11 15 15 11 10 9 10 11 10 10 9 7 5 7 7 7 6 7 9 13 14 9 13 11 20 24 26 24 27 24 29 29 22 19 26 27 29 33
44 42 43 40 29 30 27 21 20 12 9 11 15 14 11 9 7 7 7 8 6 7 6 5 5 7 7 7 7 8 9 8 2 11 3 14 27 29 26 25 19 22 33 26 26 28 28 25 31